Time,TemperatureF,DewpointF,PressureIn,WindDirection,WindDirectionDegrees,WindSpeedMPH,WindSpeedGustMPH,Humidity,HourlyPrecipIn,Conditions,Clouds,dailyrainin,SoftwareType,DateUTC
2013-04-26 00:00:00,59.9,34.2,30.23,South,188,4.0,11.0,38,0.00,,---,0.00,VWS V14.00,2013-04-26 05:00:00,
2013-04-26 00:01:00,59.9,34.2,30.23,SSE,155,9.0,12.0,38,0.00,,---,0.00,VWS V14.00,2013-04-26 05:01:00,
2013-04-26 00:02:00,59.9,34.2,30.23,SSE,150,6.0,14.0,38,0.00,,---,0.00,VWS V14.00,2013-04-26 05:02:00,
2013-04-26 00:03:00,59.9,34.2,30.23,SSE,154,12.0,14.0,38,0.00,,---,0.00,VWS V14.00,2013-04-26 05:03:00,
2013-04-26 00:04:00,59.9,34.2,30.23,South,178,9.0,13.0,38,0.00,,---,0.00,VWS V14.00,2013-04-26 05:04:00,
2013-04-26 00:05:00,59.8,34.2,30.23,South,178,5.0,12.0,38,0.00,,---,0.00,VWS V14.00,2013-04-26 05:05:00,
2013-04-26 00:06:00,59.8,34.2,30.23,South,171,4.0,5.0,38,0.00,,---,0.00,VWS V14.00,2013-04-26 05:06:00,
2013-04-26 00:07:00,59.8,34.2,30.23,South,178,3.0,5.0,38,0.00,,---,0.00,VWS V14.00,2013-04-26 05:07:00,
2013-04-26 00:08:00,59.8,34.2,30.23,South,171,5.0,13.0,38,0.00,,---,0.00,VWS V14.00,2013-04-26 05:08:00,
2013-04-26 00:09:00,59.6,34.6,30.23,South,171,6.0,6.0,39,0.00,,---,0.00,VWS V14.00,2013-04-26 05:09:00,
2013-04-26 00:10:00,59.6,34.0,30.23,South,171,4.0,7.0,38,0.00,,---,0.00,VWS V14.00,2013-04-26 05:10:00,
2013-04-26 00:11:00,59.6,34.6,30.23,SSE,161,2.0,3.0,39,0.00,,---,0.00,VWS V14.00,2013-04-26 05:11:00,
2013-04-26 00:12:00,59.6,34.6,30.23,SSE,163,9.0,14.0,39,0.00,,---,0.00,VWS V14.00,2013-04-26 05:12:00,
2013-04-26 00:13:00,59.6,34.0,30.23,SSE,161,3.0,10.0,38,0.00,,---,0.00,VWS V14.00,2013-04-26 05:13:00,
2013-04-26 00:14:00,59.6,34.6,30.23,SSE,161,9.0,9.0,39,0.00,,---,0.00,VWS V14.00,2013-04-26 05:14:00,
2013-04-26 00:15:00,59.5,34.5,30.23,SSE,161,3.0,9.0,39,0.00,,---,0.00,VWS V14.00,2013-04-26 05:15:00,
2013-04-26 00:16:00,59.5,34.5,30.23,South,177,6.0,7.0,39,0.00,,---,0.00,VWS V14.00,2013-04-26 05:16:00,
2013-04-26 00:17:00,59.5,34.5,30.23,South,178,4.0,10.0,39,0.00,,---,0.00,VWS V14.00,2013-04-26 05:17:00,
2013-04-26 00:18:00,59.5,34.5,30.23,South,177,7.0,7.0,39,0.00,,---,0.00,VWS V14.00,2013-04-26 05:18:00,
2013-04-26 00:19:00,59.5,34.5,30.23,South,173,2.0,11.0,39,0.00,,---,0.00,VWS V14.00,2013-04-26 05:19:00,
2013-04-26 00:20:00,59.5,34.5,30.23,South,172,8.0,10.0,39,0.00,,---,0.00,VWS V14.00,2013-04-26 05:20:00,
2013-04-26 00:21:00,59.3,34.4,30.24,SSE,167,3.0,5.0,39,0.00,,---,0.00,VWS V14.00,2013-04-26 05:21:00,
2013-04-26 00:22:00,59.3,34.4,30.24,South,171,6.0,6.0,39,0.00,,---,0.00,VWS V14.00,2013-04-26 05:22:00,
2013-04-26 00:23:00,59.3,34.4,30.24,SSE,167,5.0,11.0,39,0.00,,---,0.00,VWS V14.00,2013-04-26 05:23:00,
2013-04-26 00:24:00,59.3,35.0,30.24,SSE,168,7.0,10.0,40,0.00,,---,0.00,VWS V14.00,2013-04-26 05:24:00,
2013-04-26 00:25:00,59.3,34.4,30.24,SSE,165,2.0,9.0,39,0.00,,---,0.00,VWS V14.00,2013-04-26 05:25:00,
2013-04-26 00:26:00,59.2,34.9,30.24,SSE,165,5.0,5.0,40,0.00,,---,0.00,VWS V14.00,2013-04-26 05:26:00,
2013-04-26 00:27:00,59.3,35.0,30.24,SSE,165,5.0,7.0,40,0.00,,---,0.00,VWS V14.00,2013-04-26 05:27:00,
2013-04-26 00:28:00,59.2,34.9,30.24,SSE,165,3.0,6.0,40,0.00,,---,0.00,VWS V14.00,2013-04-26 05:28:00,
2013-04-26 00:29:00,59.2,34.9,30.24,SSE,166,7.0,10.0,40,0.00,,---,0.00,VWS V14.00,2013-04-26 05:29:00,
2013-04-26 00:30:00,59.2,34.9,30.24,SSE,166,4.0,7.0,40,0.00,,---,0.00,VWS V14.00,2013-04-26 05:30:00,
2013-04-26 00:31:00,59.0,34.7,30.24,SSE,166,1.0,1.0,40,0.00,,---,0.00,VWS V14.00,2013-04-26 05:31:00,
2013-04-26 00:32:00,59.0,34.7,30.24,SSE,166,4.0,6.0,40,0.00,,---,0.00,VWS V14.00,2013-04-26 05:32:00,
2013-04-26 00:33:00,59.0,34.7,30.24,SSE,166,1.0,4.0,40,0.00,,---,0.00,VWS V14.00,2013-04-26 05:33:00,
2013-04-26 00:34:00,58.9,34.6,30.24,SSE,166,3.0,6.0,40,0.00,,---,0.00,VWS V14.00,2013-04-26 05:34:00,
2013-04-26 00:35:00,58.9,35.3,30.24,SSE,166,2.0,9.0,41,0.00,,---,0.00,VWS V14.00,2013-04-26 05:35:00,
2013-04-26 00:36:00,58.6,35.0,30.24,SSE,166,1.0,1.0,41,0.00,,---,0.00,VWS V14.00,2013-04-26 05:36:00,
2013-04-26 00:37:00,58.7,35.1,30.24,SSE,166,1.0,5.0,41,0.00,,---,0.00,VWS V14.00,2013-04-26 05:37:00,
2013-04-26 00:38:00,58.6,35.0,30.24,SSE,166,1.0,6.0,41,0.00,,---,0.00,VWS V14.00,2013-04-26 05:38:00,
2013-04-26 00:39:00,58.6,35.0,30.24,SSE,166,2.0,6.0,41,0.00,,---,0.00,VWS V14.00,2013-04-26 05:39:00,
2013-04-26 00:40:00,58.6,35.0,30.24,SSE,166,3.0,3.0,41,0.00,,---,0.00,VWS V14.00,2013-04-26 05:40:00,
2013-04-26 00:41:00,58.3,34.7,30.24,SSE,166,1.0,1.0,41,0.00,,---,0.00,VWS V14.00,2013-04-26 05:41:00,
2013-04-26 00:42:00,58.4,34.8,30.24,SSE,166,3.0,3.0,41,0.00,,---,0.00,VWS V14.00,2013-04-26 05:42:00,
2013-04-26 00:43:00,58.3,34.7,30.24,SSE,166,1.0,3.0,41,0.00,,---,0.00,VWS V14.00,2013-04-26 05:43:00,
2013-04-26 00:44:00,58.3,34.7,30.24,SSE,166,4.0,4.0,41,0.00,,---,0.00,VWS V14.00,2013-04-26 05:44:00,
2013-04-26 00:45:00,58.3,34.7,30.24,SSE,166,0.0,4.0,41,0.00,,---,0.00,VWS V14.00,2013-04-26 05:45:00,
2013-04-26 00:46:00,58.1,34.5,30.25,SSE,166,2.0,2.0,41,0.00,,---,0.00,VWS V14.00,2013-04-26 05:46:00,
2013-04-26 00:47:00,58.1,34.5,30.25,SSE,166,3.0,3.0,41,0.00,,---,0.00,VWS V14.00,2013-04-26 05:47:00,
2013-04-26 00:48:00,58.1,34.5,30.25,SSE,166,2.0,4.0,41,0.00,,---,0.00,VWS V14.00,2013-04-26 05:48:00,
2013-04-26 00:49:00,58.0,34.5,30.25,SSE,166,0.0,3.0,41,0.00,,---,0.00,VWS V14.00,2013-04-26 05:49:00,
2013-04-26 00:50:00,58.0,34.5,30.25,SSE,166,1.0,5.0,41,0.00,,---,0.00,VWS V14.00,2013-04-26 05:50:00,
2013-04-26 00:51:00,57.6,34.7,30.25,SSE,166,0.0,1.0,42,0.00,,---,0.00,VWS V14.00,2013-04-26 05:51:00,
2013-04-26 00:52:00,57.8,34.9,30.25,SSE,166,1.0,2.0,42,0.00,,---,0.00,VWS V14.00,2013-04-26 05:52:00,
2013-04-26 00:53:00,57.6,34.7,30.25,SSE,166,1.0,1.0,42,0.00,,---,0.00,VWS V14.00,2013-04-26 05:53:00,
2013-04-26 00:54:00,57.6,34.7,30.25,SSE,166,1.0,2.0,42,0.00,,---,0.00,VWS V14.00,2013-04-26 05:54:00,
2013-04-26 00:55:00,57.6,34.7,30.25,SSE,166,0.0,3.0,42,0.00,,---,0.00,VWS V14.00,2013-04-26 05:55:00,
2013-04-26 00:56:00,57.5,35.2,30.25,SSE,166,0.0,1.0,43,0.00,,---,0.00,VWS V14.00,2013-04-26 05:56:00,
2013-04-26 00:57:00,57.5,34.6,30.25,SSE,166,0.0,3.0,42,0.00,,---,0.00,VWS V14.00,2013-04-26 05:57:00,
2013-04-26 00:58:00,57.5,35.2,30.25,SSE,166,1.0,1.0,43,0.00,,---,0.00,VWS V14.00,2013-04-26 05:58:00,
2013-04-26 00:59:00,57.3,34.4,30.25,SSE,166,2.0,2.0,42,0.00,,---,0.00,VWS V14.00,2013-04-26 05:59:00,
2013-04-26 01:00:00,57.3,35.0,30.25,SSE,166,0.0,2.0,43,0.00,,---,0.00,VWS V14.00,2013-04-26 06:00:00,
2013-04-26 01:01:00,57.2,34.9,30.25,SSE,166,0.0,0.0,43,0.00,,---,0.00,VWS V14.00,2013-04-26 06:01:00,
2013-04-26 01:02:00,57.3,35.0,30.25,SSE,166,0.0,0.0,43,0.00,,---,0.00,VWS V14.00,2013-04-26 06:02:00,
2013-04-26 01:03:00,57.2,34.9,30.25,SSE,166,0.0,0.0,43,0.00,,---,0.00,VWS V14.00,2013-04-26 06:03:00,
2013-04-26 01:04:00,57.2,34.9,30.25,SSE,166,0.0,0.0,43,0.00,,---,0.00,VWS V14.00,2013-04-26 06:04:00,
2013-04-26 01:05:00,57.2,34.9,30.25,SSE,166,0.0,0.0,43,0.00,,---,0.00,VWS V14.00,2013-04-26 06:05:00,
2013-04-26 01:06:00,57.0,34.8,30.25,SSE,166,0.0,0.0,43,0.00,,---,0.00,VWS V14.00,2013-04-26 06:06:00,
2013-04-26 01:07:00,57.0,34.8,30.25,SSE,166,0.0,0.0,43,0.00,,---,0.00,VWS V14.00,2013-04-26 06:07:00,
2013-04-26 01:08:00,57.0,34.8,30.25,SSE,166,0.0,0.0,43,0.00,,---,0.00,VWS V14.00,2013-04-26 06:08:00,
2013-04-26 01:09:00,57.0,34.8,30.25,SSE,166,0.0,0.0,43,0.00,,---,0.00,VWS V14.00,2013-04-26 06:09:00,
2013-04-26 01:10:00,57.0,34.8,30.25,SSE,166,0.0,0.0,43,0.00,,---,0.00,VWS V14.00,2013-04-26 06:10:00,
2013-04-26 01:11:00,56.9,35.2,30.25,SSE,166,0.0,0.0,44,0.00,,---,0.00,VWS V14.00,2013-04-26 06:11:00,
2013-04-26 01:12:00,56.9,34.7,30.25,SSE,166,0.0,0.0,43,0.00,,---,0.00,VWS V14.00,2013-04-26 06:12:00,
2013-04-26 01:13:00,56.9,35.2,30.25,SSE,166,0.0,0.0,44,0.00,,---,0.00,VWS V14.00,2013-04-26 06:13:00,
2013-04-26 01:14:00,56.9,35.2,30.25,SSE,166,1.0,2.0,44,0.00,,---,0.00,VWS V14.00,2013-04-26 06:14:00,
2013-04-26 01:15:00,56.7,35.0,30.25,SSE,166,0.0,1.0,44,0.00,,---,0.00,VWS V14.00,2013-04-26 06:15:00,
2013-04-26 01:16:00,56.6,35.5,30.25,SSE,166,0.0,0.0,45,0.00,,---,0.00,VWS V14.00,2013-04-26 06:16:00,
2013-04-26 01:17:00,56.7,35.0,30.25,SSE,166,0.0,2.0,44,0.00,,---,0.00,VWS V14.00,2013-04-26 06:17:00,
2013-04-26 01:18:00,56.6,35.0,30.25,SSE,166,0.0,0.0,44,0.00,,---,0.00,VWS V14.00,2013-04-26 06:18:00,
2013-04-26 01:19:00,56.6,35.5,30.25,SSE,166,0.0,0.0,45,0.00,,---,0.00,VWS V14.00,2013-04-26 06:19:00,
2013-04-26 01:20:00,56.6,35.5,30.25,SSE,166,0.0,0.0,45,0.00,,---,0.00,VWS V14.00,2013-04-26 06:20:00,
2013-04-26 01:21:00,56.5,35.4,30.25,SSE,166,1.0,1.0,45,0.00,,---,0.00,VWS V14.00,2013-04-26 06:21:00,
2013-04-26 01:22:00,56.5,35.4,30.25,SSE,166,0.0,0.0,45,0.00,,---,0.00,VWS V14.00,2013-04-26 06:22:00,
2013-04-26 01:23:00,56.5,35.4,30.25,SSE,166,0.0,0.0,45,0.00,,---,0.00,VWS V14.00,2013-04-26 06:23:00,
2013-04-26 01:24:00,56.5,35.4,30.25,SSE,166,0.0,2.0,45,0.00,,---,0.00,VWS V14.00,2013-04-26 06:24:00,
2013-04-26 01:25:00,56.5,36.0,30.25,SSE,166,0.0,1.0,46,0.00,,---,0.00,VWS V14.00,2013-04-26 06:25:00,
2013-04-26 01:26:00,56.5,36.0,30.25,SSE,166,0.0,0.0,46,0.00,,---,0.00,VWS V14.00,2013-04-26 06:26:00,
2013-04-26 01:27:00,56.5,36.0,30.25,SSE,166,1.0,2.0,46,0.00,,---,0.00,VWS V14.00,2013-04-26 06:27:00,
2013-04-26 01:28:00,56.5,36.0,30.25,SSE,166,0.0,1.0,46,0.00,,---,0.00,VWS V14.00,2013-04-26 06:28:00,
2013-04-26 01:29:00,56.5,36.0,30.25,SSE,166,1.0,3.0,46,0.00,,---,0.00,VWS V14.00,2013-04-26 06:29:00,
2013-04-26 01:30:00,56.5,36.0,30.25,SSE,166,1.0,2.0,46,0.00,,---,0.00,VWS V14.00,2013-04-26 06:30:00,
2013-04-26 01:31:00,56.7,36.2,30.25,SSE,166,0.0,0.0,46,0.00,,---,0.00,VWS V14.00,2013-04-26 06:31:00,
2013-04-26 01:32:00,56.7,35.6,30.25,SSE,166,1.0,3.0,45,0.00,,---,0.00,VWS V14.00,2013-04-26 06:32:00,
2013-04-26 01:33:00,56.7,36.2,30.25,SSE,166,0.0,2.0,46,0.00,,---,0.00,VWS V14.00,2013-04-26 06:33:00,
2013-04-26 01:34:00,56.7,35.6,30.25,SSE,166,0.0,1.0,45,0.00,,---,0.00,VWS V14.00,2013-04-26 06:34:00,
2013-04-26 01:35:00,56.9,35.8,30.25,SSE,166,0.0,2.0,45,0.00,,---,0.00,VWS V14.00,2013-04-26 06:35:00,
2013-04-26 01:36:00,56.9,36.3,30.25,SSE,166,0.0,0.0,46,0.00,,---,0.00,VWS V14.00,2013-04-26 06:36:00,
2013-04-26 01:37:00,56.9,36.3,30.25,SSE,166,0.0,0.0,46,0.00,,---,0.00,VWS V14.00,2013-04-26 06:37:00,
2013-04-26 01:38:00,56.9,36.3,30.25,SSE,166,0.0,0.0,46,0.00,,---,0.00,VWS V14.00,2013-04-26 06:38:00,
2013-04-26 01:39:00,56.7,36.2,30.25,SSE,166,0.0,0.0,46,0.00,,---,0.00,VWS V14.00,2013-04-26 06:39:00,
2013-04-26 01:40:00,56.7,36.7,30.25,SSE,166,0.0,0.0,47,0.00,,---,0.00,VWS V14.00,2013-04-26 06:40:00,
2013-04-26 01:41:00,56.7,36.7,30.25,SSE,166,0.0,0.0,47,0.00,,---,0.00,VWS V14.00,2013-04-26 06:41:00,
2013-04-26 01:42:00,56.7,36.2,30.25,SSE,166,0.0,0.0,46,0.00,,---,0.00,VWS V14.00,2013-04-26 06:42:00,
2013-04-26 01:43:00,56.7,36.7,30.25,SSE,166,0.0,0.0,47,0.00,,---,0.00,VWS V14.00,2013-04-26 06:43:00,
2013-04-26 01:44:00,56.7,36.2,30.25,SSE,166,0.0,0.0,46,0.00,,---,0.00,VWS V14.00,2013-04-26 06:44:00,
2013-04-26 01:45:00,56.7,36.2,30.25,SSE,166,2.0,2.0,46,0.00,,---,0.00,VWS V14.00,2013-04-26 06:45:00,
2013-04-26 01:46:00,56.9,36.9,30.25,SSE,166,2.0,2.0,47,0.00,,---,0.00,VWS V14.00,2013-04-26 06:46:00,
2013-04-26 01:47:00,56.9,36.9,30.25,SSE,166,1.0,2.0,47,0.00,,---,0.00,VWS V14.00,2013-04-26 06:47:00,
2013-04-26 01:48:00,56.9,36.9,30.25,SSE,166,1.0,2.0,47,0.00,,---,0.00,VWS V14.00,2013-04-26 06:48:00,
2013-04-26 01:49:00,56.9,36.9,30.25,SSE,166,7.0,7.0,47,0.00,,---,0.00,VWS V14.00,2013-04-26 06:49:00,
2013-04-26 01:50:00,57.0,36.4,30.25,SSE,168,3.0,10.0,46,0.00,,---,0.00,VWS V14.00,2013-04-26 06:50:00,
2013-04-26 01:51:00,57.3,37.3,30.25,SSE,168,2.0,3.0,47,0.00,,---,0.00,VWS V14.00,2013-04-26 06:51:00,
2013-04-26 01:52:00,57.3,37.8,30.25,SSE,168,5.0,7.0,48,0.00,,---,0.00,VWS V14.00,2013-04-26 06:52:00,
2013-04-26 01:53:00,57.3,37.3,30.25,SSE,168,3.0,5.0,47,0.00,,---,0.00,VWS V14.00,2013-04-26 06:53:00,
2013-04-26 01:54:00,57.5,37.5,30.25,SSE,168,1.0,3.0,47,0.00,,---,0.00,VWS V14.00,2013-04-26 06:54:00,
2013-04-26 01:55:00,57.5,37.5,30.25,SSE,168,2.0,4.0,47,0.00,,---,0.00,VWS V14.00,2013-04-26 06:55:00,
2013-04-26 01:56:00,57.6,37.5,30.25,SSE,160,5.0,6.0,47,0.00,,---,0.00,VWS V14.00,2013-04-26 06:56:00,
2013-04-26 01:57:00,57.6,38.1,30.25,SSE,159,13.0,13.0,48,0.00,,---,0.00,VWS V14.00,2013-04-26 06:57:00,
2013-04-26 01:58:00,57.6,37.5,30.25,SSE,159,6.0,13.0,47,0.00,,---,0.00,VWS V14.00,2013-04-26 06:58:00,
2013-04-26 01:59:00,57.6,37.5,30.25,SSE,160,5.0,6.0,47,0.00,,---,0.00,VWS V14.00,2013-04-26 06:59:00,
2013-04-26 02:00:00,57.8,37.2,30.25,SSE,160,3.0,5.0,46,0.00,,---,0.00,VWS V14.00,2013-04-26 07:00:00,
2013-04-26 02:01:00,57.8,36.6,30.24,SSE,165,5.0,5.0,45,0.00,,---,0.00,VWS V14.00,2013-04-26 07:01:00,
2013-04-26 02:02:00,57.8,36.6,30.24,SSE,165,3.0,11.0,45,0.00,,---,0.00,VWS V14.00,2013-04-26 07:02:00,
2013-04-26 02:03:00,57.8,36.6,30.24,SSE,165,5.0,6.0,45,0.00,,---,0.00,VWS V14.00,2013-04-26 07:03:00,
2013-04-26 02:04:00,57.8,36.6,30.23,SSE,165,4.0,5.0,45,0.00,,---,0.00,VWS V14.00,2013-04-26 07:04:00,
2013-04-26 02:05:00,57.8,36.6,30.23,SSE,165,5.0,7.0,45,0.00,,---,0.00,VWS V14.00,2013-04-26 07:05:00,
2013-04-26 02:06:00,58.0,36.8,30.23,SSE,164,6.0,9.0,45,0.00,,---,0.00,VWS V14.00,2013-04-26 07:06:00,
2013-04-26 02:07:00,58.0,36.8,30.23,SSE,163,4.0,10.0,45,0.00,,---,0.00,VWS V14.00,2013-04-26 07:07:00,
2013-04-26 02:08:00,58.0,36.8,30.23,SSE,164,6.0,9.0,45,0.00,,---,0.00,VWS V14.00,2013-04-26 07:08:00,
2013-04-26 02:09:00,58.0,36.8,30.23,SSE,163,3.0,12.0,45,0.00,,---,0.00,VWS V14.00,2013-04-26 07:09:00,
2013-04-26 02:10:00,58.1,36.9,30.23,SSE,163,3.0,6.0,45,0.00,,---,0.00,VWS V14.00,2013-04-26 07:10:00,
2013-04-26 02:11:00,58.1,36.3,30.23,SSE,165,10.0,10.0,44,0.00,,---,0.00,VWS V14.00,2013-04-26 07:11:00,
2013-04-26 02:12:00,58.1,36.9,30.23,SSE,165,10.0,10.0,45,0.00,,---,0.00,VWS V14.00,2013-04-26 07:12:00,
2013-04-26 02:13:00,58.1,36.3,30.23,SSE,165,10.0,10.0,44,0.00,,---,0.00,VWS V14.00,2013-04-26 07:13:00,
2013-04-26 02:14:00,58.1,36.9,30.23,SSE,165,3.0,10.0,45,0.00,,---,0.00,VWS V14.00,2013-04-26 07:14:00,
2013-04-26 02:15:00,58.1,35.7,30.23,SSE,165,1.0,5.0,43,0.00,,---,0.00,VWS V14.00,2013-04-26 07:15:00,
2013-04-26 02:16:00,58.1,35.7,30.23,SSE,165,5.0,5.0,43,0.00,,---,0.00,VWS V14.00,2013-04-26 07:16:00,
2013-04-26 02:17:00,58.1,36.3,30.23,SSE,165,2.0,7.0,44,0.00,,---,0.00,VWS V14.00,2013-04-26 07:17:00,
2013-04-26 02:18:00,58.1,35.7,30.23,SSE,165,5.0,5.0,43,0.00,,---,0.00,VWS V14.00,2013-04-26 07:18:00,
2013-04-26 02:19:00,58.1,35.7,30.23,SSE,165,1.0,5.0,43,0.00,,---,0.00,VWS V14.00,2013-04-26 07:19:00,
2013-04-26 02:20:00,58.0,36.2,30.23,SSE,164,7.0,10.0,44,0.00,,---,0.00,VWS V14.00,2013-04-26 07:20:00,
2013-04-26 02:21:00,58.0,35.7,30.22,SSE,165,3.0,8.0,43,0.00,,---,0.00,VWS V14.00,2013-04-26 07:21:00,
2013-04-26 02:22:00,58.0,35.7,30.23,SSE,165,5.0,7.0,43,0.00,,---,0.00,VWS V14.00,2013-04-26 07:22:00,
2013-04-26 02:23:00,58.0,35.7,30.22,SSE,165,3.0,8.0,43,0.00,,---,0.00,VWS V14.00,2013-04-26 07:23:00,
2013-04-26 02:24:00,58.0,35.7,30.23,SSE,165,4.0,8.0,43,0.00,,---,0.00,VWS V14.00,2013-04-26 07:24:00,
2013-04-26 02:25:00,58.0,35.1,30.22,SSE,165,0.0,9.0,42,0.00,,---,0.00,VWS V14.00,2013-04-26 07:25:00,
2013-04-26 02:26:00,58.0,35.1,30.22,SSE,167,5.0,8.0,42,0.00,,---,0.00,VWS V14.00,2013-04-26 07:26:00,
2013-04-26 02:27:00,58.0,35.1,30.22,SSE,166,3.0,6.0,42,0.00,,---,0.00,VWS V14.00,2013-04-26 07:27:00,
2013-04-26 02:28:00,58.0,35.1,30.22,SSE,167,5.0,8.0,42,0.00,,---,0.00,VWS V14.00,2013-04-26 07:28:00,
2013-04-26 02:29:00,58.1,36.3,30.22,SSE,167,5.0,7.0,44,0.00,,---,0.00,VWS V14.00,2013-04-26 07:29:00,
2013-04-26 02:30:00,58.1,36.3,30.22,SSE,167,2.0,7.0,44,0.00,,---,0.00,VWS V14.00,2013-04-26 07:30:00,
2013-04-26 02:31:00,58.1,36.3,30.22,SSE,163,6.0,12.0,44,0.00,,---,0.00,VWS V14.00,2013-04-26 07:31:00,
2013-04-26 02:32:00,58.1,35.2,30.22,SSE,167,4.0,5.0,42,0.00,,---,0.00,VWS V14.00,2013-04-26 07:32:00,
2013-04-26 02:33:00,58.1,36.3,30.22,SSE,163,6.0,12.0,44,0.00,,---,0.00,VWS V14.00,2013-04-26 07:33:00,
2013-04-26 02:34:00,58.1,35.7,30.22,SSE,163,5.0,7.0,43,0.00,,---,0.00,VWS V14.00,2013-04-26 07:34:00,
2013-04-26 02:35:00,58.1,36.3,30.21,SSE,163,3.0,7.0,44,0.00,,---,0.00,VWS V14.00,2013-04-26 07:35:00,
2013-04-26 02:36:00,58.1,36.3,30.22,SSE,163,2.0,8.0,44,0.00,,---,0.00,VWS V14.00,2013-04-26 07:36:00,
2013-04-26 02:37:00,58.1,35.7,30.22,SSE,163,6.0,6.0,43,0.00,,---,0.00,VWS V14.00,2013-04-26 07:37:00,
2013-04-26 02:38:00,58.1,36.3,30.22,SSE,163,2.0,8.0,44,0.00,,---,0.00,VWS V14.00,2013-04-26 07:38:00,
2013-04-26 02:39:00,58.1,36.3,30.22,SSE,163,4.0,6.0,44,0.00,,---,0.00,VWS V14.00,2013-04-26 07:39:00,
2013-04-26 02:40:00,58.1,35.7,30.21,SSE,167,4.0,10.0,43,0.00,,---,0.00,VWS V14.00,2013-04-26 07:40:00,
2013-04-26 02:41:00,58.1,35.2,30.21,SSE,167,0.0,7.0,42,0.00,,---,0.00,VWS V14.00,2013-04-26 07:41:00,
2013-04-26 02:42:00,58.1,35.2,30.21,SSE,167,6.0,7.0,42,0.00,,---,0.00,VWS V14.00,2013-04-26 07:42:00,
2013-04-26 02:43:00,58.1,35.2,30.21,SSE,167,0.0,7.0,42,0.00,,---,0.00,VWS V14.00,2013-04-26 07:43:00,
2013-04-26 02:44:00,58.1,35.7,30.21,SSE,167,3.0,6.0,43,0.00,,---,0.00,VWS V14.00,2013-04-26 07:44:00,
2013-04-26 02:45:00,58.1,35.7,30.21,SSE,167,3.0,10.0,43,0.00,,---,0.00,VWS V14.00,2013-04-26 07:45:00,
2013-04-26 02:46:00,58.1,35.2,30.21,South,169,3.0,9.0,42,0.00,,---,0.00,VWS V14.00,2013-04-26 07:46:00,
2013-04-26 02:47:00,58.1,35.2,30.21,SSE,168,4.0,10.0,42,0.00,,---,0.00,VWS V14.00,2013-04-26 07:47:00,
2013-04-26 02:48:00,58.1,35.2,30.21,South,169,3.0,9.0,42,0.00,,---,0.00,VWS V14.00,2013-04-26 07:48:00,
2013-04-26 02:49:00,58.1,35.2,30.21,South,169,4.0,6.0,42,0.00,,---,0.00,VWS V14.00,2013-04-26 07:49:00,
2013-04-26 02:50:00,58.0,35.1,30.21,South,169,0.0,4.0,42,0.00,,---,0.00,VWS V14.00,2013-04-26 07:50:00,
2013-04-26 02:51:00,58.0,35.7,30.21,South,169,5.0,5.0,43,0.00,,---,0.00,VWS V14.00,2013-04-26 07:51:00,
2013-04-26 02:52:00,58.0,35.1,30.21,South,169,2.0,5.0,42,0.00,,---,0.00,VWS V14.00,2013-04-26 07:52:00,
2013-04-26 02:53:00,58.0,35.7,30.21,South,169,5.0,5.0,43,0.00,,---,0.00,VWS V14.00,2013-04-26 07:53:00,
2013-04-26 02:54:00,58.0,35.7,30.21,South,169,4.0,5.0,43,0.00,,---,0.00,VWS V14.00,2013-04-26 07:54:00,
2013-04-26 02:55:00,58.0,35.7,30.21,South,169,4.0,4.0,43,0.00,,---,0.00,VWS V14.00,2013-04-26 07:55:00,
2013-04-26 02:56:00,58.0,35.7,30.20,South,169,5.0,6.0,43,0.00,,---,0.00,VWS V14.00,2013-04-26 07:56:00,
2013-04-26 02:57:00,58.0,35.7,30.21,South,169,6.0,7.0,43,0.00,,---,0.00,VWS V14.00,2013-04-26 07:57:00,
2013-04-26 02:58:00,58.0,35.7,30.20,South,169,5.0,6.0,43,0.00,,---,0.00,VWS V14.00,2013-04-26 07:58:00,
2013-04-26 02:59:00,58.1,35.7,30.20,South,169,5.0,6.0,43,0.00,,---,0.00,VWS V14.00,2013-04-26 07:59:00,
2013-04-26 03:00:00,58.1,35.7,30.20,South,169,2.0,5.0,43,0.00,,---,0.00,VWS V14.00,2013-04-26 08:00:00,
2013-04-26 03:01:00,58.1,36.9,30.20,South,169,1.0,5.0,45,0.00,,---,0.00,VWS V14.00,2013-04-26 08:01:00,
2013-04-26 03:02:00,58.1,36.3,30.20,South,169,4.0,4.0,44,0.00,,---,0.00,VWS V14.00,2013-04-26 08:02:00,
2013-04-26 03:03:00,58.1,36.9,30.20,South,169,1.0,5.0,45,0.00,,---,0.00,VWS V14.00,2013-04-26 08:03:00,
2013-04-26 03:04:00,58.1,36.3,30.20,South,169,11.0,11.0,44,0.00,,---,0.00,VWS V14.00,2013-04-26 08:04:00,
2013-04-26 03:05:00,58.1,36.3,30.20,SSE,167,0.0,11.0,44,0.00,,---,0.00,VWS V14.00,2013-04-26 08:05:00,
2013-04-26 03:06:00,58.1,36.9,30.20,SSE,167,10.0,10.0,45,0.00,,---,0.00,VWS V14.00,2013-04-26 08:06:00,
2013-04-26 03:07:00,58.1,36.9,30.20,SSE,167,1.0,4.0,45,0.00,,---,0.00,VWS V14.00,2013-04-26 08:07:00,
2013-04-26 03:08:00,58.1,36.9,30.20,SSE,167,10.0,10.0,45,0.00,,---,0.00,VWS V14.00,2013-04-26 08:08:00,
2013-04-26 03:09:00,58.3,37.1,30.20,SSE,165,8.0,11.0,45,0.00,,---,0.00,VWS V14.00,2013-04-26 08:09:00,
2013-04-26 03:10:00,58.3,37.1,30.20,SSE,165,9.0,10.0,45,0.00,,---,0.00,VWS V14.00,2013-04-26 08:10:00,
2013-04-26 03:11:00,58.3,37.1,30.20,SSE,161,5.0,6.0,45,0.00,,---,0.00,VWS V14.00,2013-04-26 08:11:00,
2013-04-26 03:12:00,58.3,37.1,30.20,SSE,161,6.0,8.0,45,0.00,,---,0.00,VWS V14.00,2013-04-26 08:12:00,
2013-04-26 03:13:00,58.3,37.1,30.20,SSE,161,5.0,6.0,45,0.00,,---,0.00,VWS V14.00,2013-04-26 08:13:00,
2013-04-26 03:14:00,58.3,36.5,30.20,SSE,165,12.0,12.0,44,0.00,,---,0.00,VWS V14.00,2013-04-26 08:14:00,
2013-04-26 03:15:00,58.1,36.9,30.20,SSE,164,6.0,12.0,45,0.00,,---,0.00,VWS V14.00,2013-04-26 08:15:00,
2013-04-26 03:16:00,57.8,37.7,30.19,SSE,163,0.0,5.0,47,0.00,,---,0.00,VWS V14.00,2013-04-26 08:16:00,
2013-04-26 03:17:00,58.1,38.0,30.19,SSE,163,5.0,8.0,47,0.00,,---,0.00,VWS V14.00,2013-04-26 08:17:00,
2013-04-26 03:18:00,57.8,37.7,30.19,SSE,163,0.0,5.0,47,0.00,,---,0.00,VWS V14.00,2013-04-26 08:18:00,
2013-04-26 03:19:00,57.6,38.1,30.19,SSE,163,5.0,5.0,48,0.00,,---,0.00,VWS V14.00,2013-04-26 08:19:00,
2013-04-26 03:20:00,57.6,37.5,30.19,SSE,161,6.0,12.0,47,0.00,,---,0.00,VWS V14.00,2013-04-26 08:20:00,
2013-04-26 03:21:00,57.6,37.5,30.18,SSE,158,6.0,14.0,47,0.00,,---,0.00,VWS V14.00,2013-04-26 08:21:00,
2013-04-26 03:22:00,57.5,37.5,30.19,SSE,163,8.0,8.0,47,0.00,,---,0.00,VWS V14.00,2013-04-26 08:22:00,
2013-04-26 03:23:00,57.6,37.5,30.18,SSE,158,6.0,14.0,47,0.00,,---,0.00,VWS V14.00,2013-04-26 08:23:00,
2013-04-26 03:24:00,57.6,37.0,30.18,SSE,158,4.0,13.0,46,0.00,,---,0.00,VWS V14.00,2013-04-26 08:24:00,
2013-04-26 03:25:00,57.8,37.7,30.18,SSE,157,4.0,13.0,47,0.00,,---,0.00,VWS V14.00,2013-04-26 08:25:00,
2013-04-26 03:26:00,58.0,38.4,30.17,SSE,162,6.0,16.0,48,0.00,,---,0.00,VWS V14.00,2013-04-26 08:26:00,
2013-04-26 03:27:00,58.0,38.4,30.17,SSE,149,16.0,16.0,48,0.00,,---,0.00,VWS V14.00,2013-04-26 08:27:00,
2013-04-26 03:28:00,58.0,38.4,30.17,SSE,162,6.0,16.0,48,0.00,,---,0.00,VWS V14.00,2013-04-26 08:28:00,
2013-04-26 03:29:00,58.0,38.4,30.17,SE,145,11.0,16.0,48,0.00,,---,0.00,VWS V14.00,2013-04-26 08:29:00,
2013-04-26 03:30:00,58.0,37.9,30.17,SSE,152,3.0,15.0,47,0.00,,---,0.00,VWS V14.00,2013-04-26 08:30:00,
2013-04-26 03:31:00,58.0,36.8,30.17,SSE,157,2.0,6.0,45,0.00,,---,0.00,VWS V14.00,2013-04-26 08:31:00,
2013-04-26 03:32:00,58.0,37.4,30.17,SSE,157,4.0,13.0,46,0.00,,---,0.00,VWS V14.00,2013-04-26 08:32:00,
2013-04-26 03:33:00,58.0,37.4,30.17,SSE,157,4.0,6.0,46,0.00,,---,0.00,VWS V14.00,2013-04-26 08:33:00,
2013-04-26 03:34:00,58.0,37.4,30.17,SSE,155,7.0,11.0,46,0.00,,---,0.00,VWS V14.00,2013-04-26 08:34:00,
2013-04-26 03:35:00,58.0,36.8,30.17,SSE,155,6.0,8.0,45,0.00,,---,0.00,VWS V14.00,2013-04-26 08:35:00,
2013-04-26 03:36:00,58.0,37.9,30.16,SSE,152,5.0,11.0,47,0.00,,---,0.00,VWS V14.00,2013-04-26 08:36:00,
2013-04-26 03:37:00,58.0,37.4,30.16,SSE,152,11.0,11.0,46,0.00,,---,0.00,VWS V14.00,2013-04-26 08:37:00,
2013-04-26 03:38:00,58.0,37.9,30.16,SSE,152,9.0,11.0,47,0.00,,---,0.00,VWS V14.00,2013-04-26 08:38:00,
2013-04-26 03:39:00,58.0,37.4,30.16,SSE,155,6.0,12.0,46,0.00,,---,0.00,VWS V14.00,2013-04-26 08:39:00,
2013-04-26 03:40:00,57.8,37.2,30.16,SSE,155,4.0,6.0,46,0.00,,---,0.00,VWS V14.00,2013-04-26 08:40:00,
2013-04-26 03:41:00,57.8,36.6,30.17,SSE,155,3.0,5.0,45,0.00,,---,0.00,VWS V14.00,2013-04-26 08:41:00,
2013-04-26 03:42:00,57.8,37.2,30.17,SSE,154,4.0,6.0,46,0.00,,---,0.00,VWS V14.00,2013-04-26 08:42:00,
2013-04-26 03:43:00,57.8,36.6,30.17,SSE,155,4.0,5.0,45,0.00,,---,0.00,VWS V14.00,2013-04-26 08:43:00,
2013-04-26 03:44:00,57.6,36.4,30.17,SSE,154,4.0,6.0,45,0.00,,---,0.00,VWS V14.00,2013-04-26 08:44:00,
2013-04-26 03:45:00,57.6,36.4,30.17,SSE,155,2.0,6.0,45,0.00,,---,0.00,VWS V14.00,2013-04-26 08:45:00,
2013-04-26 03:46:00,57.5,36.9,30.17,SSE,155,1.0,4.0,46,0.00,,---,0.00,VWS V14.00,2013-04-26 08:46:00,
2013-04-26 03:47:00,57.5,36.3,30.17,SSE,155,1.0,4.0,45,0.00,,---,0.00,VWS V14.00,2013-04-26 08:47:00,
2013-04-26 03:48:00,57.5,36.9,30.17,SSE,155,0.0,4.0,46,0.00,,---,0.00,VWS V14.00,2013-04-26 08:48:00,
2013-04-26 03:49:00,57.5,36.3,30.17,SSE,155,0.0,2.0,45,0.00,,---,0.00,VWS V14.00,2013-04-26 08:49:00,
2013-04-26 03:50:00,57.5,36.3,30.17,SSE,155,0.0,0.0,45,0.00,,---,0.00,VWS V14.00,2013-04-26 08:50:00,
2013-04-26 03:51:00,57.5,36.3,30.18,SSE,156,5.0,6.0,45,0.00,,---,0.00,VWS V14.00,2013-04-26 08:51:00,
2013-04-26 03:52:00,57.5,36.9,30.18,SSE,155,0.0,2.0,46,0.00,,---,0.00,VWS V14.00,2013-04-26 08:52:00,
2013-04-26 03:53:00,57.5,36.3,30.18,SSE,156,4.0,6.0,45,0.00,,---,0.00,VWS V14.00,2013-04-26 08:53:00,
2013-04-26 03:54:00,57.5,36.3,30.19,SSE,156,2.0,5.0,45,0.00,,---,0.00,VWS V14.00,2013-04-26 08:54:00,
2013-04-26 03:55:00,57.5,36.3,30.19,SSE,156,0.0,2.0,45,0.00,,---,0.00,VWS V14.00,2013-04-26 08:55:00,
2013-04-26 03:56:00,57.3,36.2,30.20,SSE,156,0.0,0.0,45,0.00,,---,0.00,VWS V14.00,2013-04-26 08:56:00,
2013-04-26 03:57:00,57.3,36.2,30.20,SSE,156,0.0,2.0,45,0.00,,---,0.00,VWS V14.00,2013-04-26 08:57:00,
2013-04-26 03:58:00,57.3,36.2,30.20,SSE,156,0.0,0.0,45,0.00,,---,0.00,VWS V14.00,2013-04-26 08:58:00,
2013-04-26 03:59:00,57.3,36.2,30.21,SSE,156,0.0,1.0,45,0.00,,---,0.00,VWS V14.00,2013-04-26 08:59:00,
2013-04-26 04:00:00,57.3,36.2,30.21,SSE,156,0.0,0.0,45,0.00,,---,0.00,VWS V14.00,2013-04-26 09:00:00,
2013-04-26 04:01:00,57.3,36.2,30.21,SSE,156,0.0,2.0,45,0.00,,---,0.00,VWS V14.00,2013-04-26 09:01:00,
2013-04-26 04:02:00,57.3,36.2,30.21,SSE,156,0.0,2.0,45,0.00,,---,0.00,VWS V14.00,2013-04-26 09:02:00,
2013-04-26 04:03:00,57.3,36.2,30.21,SSE,156,0.0,2.0,45,0.00,,---,0.00,VWS V14.00,2013-04-26 09:03:00,
2013-04-26 04:04:00,57.3,36.7,30.21,SSE,156,0.0,0.0,46,0.00,,---,0.00,VWS V14.00,2013-04-26 09:04:00,
2013-04-26 04:05:00,57.3,36.7,30.21,SSE,156,0.0,0.0,46,0.00,,---,0.00,VWS V14.00,2013-04-26 09:05:00,
2013-04-26 04:06:00,57.2,37.2,30.19,SSE,156,3.0,7.0,47,0.02,,---,0.02,VWS V14.00,2013-04-26 09:06:00,
2013-04-26 04:07:00,57.2,37.2,30.20,SSE,156,2.0,2.0,47,0.00,,---,0.00,VWS V14.00,2013-04-26 09:07:00,
2013-04-26 04:08:00,57.2,37.2,30.19,SSE,156,3.0,7.0,47,0.02,,---,0.02,VWS V14.00,2013-04-26 09:08:00,
2013-04-26 04:09:00,57.0,38.0,30.19,SSE,156,1.0,3.0,49,0.04,,---,0.04,VWS V14.00,2013-04-26 09:09:00,
2013-04-26 04:10:00,56.9,39.5,30.20,SSE,156,0.0,2.0,52,0.05,,---,0.05,VWS V14.00,2013-04-26 09:10:00,
2013-04-26 04:11:00,56.5,41.9,30.20,SSE,156,0.0,0.0,58,0.06,,---,0.06,VWS V14.00,2013-04-26 09:11:00,
2013-04-26 04:12:00,56.7,41.7,30.19,SSE,156,0.0,1.0,57,0.06,,---,0.06,VWS V14.00,2013-04-26 09:12:00,
2013-04-26 04:13:00,56.5,41.9,30.20,SSE,156,0.0,0.0,58,0.06,,---,0.06,VWS V14.00,2013-04-26 09:13:00,
2013-04-26 04:14:00,56.3,42.6,30.20,SSE,156,0.0,0.0,60,0.06,,---,0.06,VWS V14.00,2013-04-26 09:14:00,
2013-04-26 04:15:00,56.0,42.8,30.20,SSE,156,0.0,0.0,61,0.06,,---,0.06,VWS V14.00,2013-04-26 09:15:00,
2013-04-26 04:16:00,55.1,42.8,30.20,SSE,156,0.0,1.0,63,0.06,,---,0.06,VWS V14.00,2013-04-26 09:16:00,
2013-04-26 04:17:00,55.4,42.6,30.20,SSE,156,1.0,2.0,62,0.06,,---,0.06,VWS V14.00,2013-04-26 09:17:00,
2013-04-26 04:18:00,55.1,42.8,30.20,SSE,156,0.0,1.0,63,0.06,,---,0.06,VWS V14.00,2013-04-26 09:18:00,
2013-04-26 04:19:00,54.8,42.9,30.20,SSE,156,0.0,0.0,64,0.06,,---,0.06,VWS V14.00,2013-04-26 09:19:00,
2013-04-26 04:20:00,54.5,43.0,30.19,SSE,156,0.0,0.0,65,0.06,,---,0.06,VWS V14.00,2013-04-26 09:20:00,
2013-04-26 04:21:00,53.6,42.9,30.19,SSE,156,0.0,0.0,67,0.06,,---,0.06,VWS V14.00,2013-04-26 09:21:00,
2013-04-26 04:22:00,54.1,43.0,30.19,SSE,156,0.0,0.0,66,0.06,,---,0.06,VWS V14.00,2013-04-26 09:22:00,
2013-04-26 04:23:00,53.6,42.9,30.19,SSE,156,0.0,0.0,67,0.06,,---,0.06,VWS V14.00,2013-04-26 09:23:00,
2013-04-26 04:24:00,53.3,42.6,30.19,SSE,156,0.0,0.0,67,0.06,,---,0.06,VWS V14.00,2013-04-26 09:24:00,
2013-04-26 04:25:00,53.2,42.9,30.19,SSE,156,0.0,0.0,68,0.06,,---,0.06,VWS V14.00,2013-04-26 09:25:00,
2013-04-26 04:26:00,52.6,43.1,30.19,SSE,156,0.0,0.0,70,0.06,,---,0.06,VWS V14.00,2013-04-26 09:26:00,
2013-04-26 04:27:00,52.8,42.9,30.19,SSE,156,0.0,0.0,69,0.06,,---,0.06,VWS V14.00,2013-04-26 09:27:00,
2013-04-26 04:28:00,52.6,43.1,30.19,SSE,156,0.0,0.0,70,0.06,,---,0.06,VWS V14.00,2013-04-26 09:28:00,
2013-04-26 04:29:00,52.5,43.0,30.19,SSE,156,0.0,0.0,70,0.06,,---,0.06,VWS V14.00,2013-04-26 09:29:00,
2013-04-26 04:30:00,52.3,43.2,30.19,SSE,156,0.0,0.0,71,0.06,,---,0.06,VWS V14.00,2013-04-26 09:30:00,
2013-04-26 04:31:00,51.9,43.2,30.20,SSE,156,0.0,1.0,72,0.06,,---,0.06,VWS V14.00,2013-04-26 09:31:00,
2013-04-26 04:32:00,52.0,42.9,30.20,SSE,156,0.0,0.0,71,0.06,,---,0.06,VWS V14.00,2013-04-26 09:32:00,
2013-04-26 04:33:00,51.9,43.2,30.20,SSE,156,0.0,1.0,72,0.06,,---,0.06,VWS V14.00,2013-04-26 09:33:00,
2013-04-26 04:34:00,51.7,43.0,30.20,SSE,156,0.0,1.0,72,0.06,,---,0.06,VWS V14.00,2013-04-26 09:34:00,
2013-04-26 04:35:00,51.7,43.0,30.20,SSE,156,0.0,0.0,72,0.06,,---,0.06,VWS V14.00,2013-04-26 09:35:00,
2013-04-26 04:36:00,51.4,43.8,30.20,SSE,156,0.0,0.0,75,0.06,,---,0.06,VWS V14.00,2013-04-26 09:36:00,
2013-04-26 04:37:00,51.6,43.6,30.20,SSE,156,0.0,0.0,74,0.06,,---,0.06,VWS V14.00,2013-04-26 09:37:00,
2013-04-26 04:38:00,51.4,43.8,30.20,SSE,156,0.0,0.0,75,0.06,,---,0.06,VWS V14.00,2013-04-26 09:38:00,
2013-04-26 04:39:00,51.4,43.8,30.20,SSE,156,0.0,0.0,75,0.06,,---,0.06,VWS V14.00,2013-04-26 09:39:00,
2013-04-26 04:40:00,51.4,43.8,30.20,SSE,156,0.0,0.0,75,0.06,,---,0.06,VWS V14.00,2013-04-26 09:40:00,
2013-04-26 04:41:00,51.1,43.5,30.20,SSE,156,0.0,0.0,75,0.06,,---,0.06,VWS V14.00,2013-04-26 09:41:00,
2013-04-26 04:42:00,51.1,43.5,30.20,SSE,156,0.0,0.0,75,0.06,,---,0.06,VWS V14.00,2013-04-26 09:42:00,
2013-04-26 04:43:00,51.1,43.5,30.20,SSE,156,0.0,0.0,75,0.06,,---,0.06,VWS V14.00,2013-04-26 09:43:00,
2013-04-26 04:44:00,51.1,44.2,30.20,SSE,156,2.0,3.0,77,0.06,,---,0.06,VWS V14.00,2013-04-26 09:44:00,
2013-04-26 04:45:00,51.1,44.2,30.20,SSE,156,3.0,3.0,77,0.06,,---,0.06,VWS V14.00,2013-04-26 09:45:00,
2013-04-26 04:46:00,50.8,43.9,30.21,SSE,156,0.0,3.0,77,0.06,,---,0.06,VWS V14.00,2013-04-26 09:46:00,
2013-04-26 04:47:00,51.0,44.0,30.21,SSE,156,2.0,4.0,77,0.06,,---,0.06,VWS V14.00,2013-04-26 09:47:00,
2013-04-26 04:48:00,50.8,43.9,30.21,SSE,156,0.0,3.0,77,0.06,,---,0.06,VWS V14.00,2013-04-26 09:48:00,
2013-04-26 04:49:00,50.8,44.2,30.21,SSE,156,0.0,0.0,78,0.06,,---,0.06,VWS V14.00,2013-04-26 09:49:00,
2013-04-26 04:50:00,50.8,44.2,30.21,SSE,156,0.0,0.0,78,0.06,,---,0.06,VWS V14.00,2013-04-26 09:50:00,
2013-04-26 04:51:00,50.7,44.1,30.20,SSE,156,0.0,0.0,78,0.08,,---,0.08,VWS V14.00,2013-04-26 09:51:00,
2013-04-26 04:52:00,50.8,44.2,30.20,SSE,156,0.0,0.0,78,0.08,,---,0.08,VWS V14.00,2013-04-26 09:52:00,
2013-04-26 04:53:00,50.7,44.1,30.20,SSE,156,0.0,0.0,78,0.08,,---,0.08,VWS V14.00,2013-04-26 09:53:00,
2013-04-26 04:54:00,50.5,43.9,30.20,SSE,156,0.0,0.0,78,0.08,,---,0.08,VWS V14.00,2013-04-26 09:54:00,
2013-04-26 04:55:00,50.5,43.9,30.20,SSE,156,0.0,0.0,78,0.09,,---,0.09,VWS V14.00,2013-04-26 09:55:00,
2013-04-26 04:56:00,50.2,43.6,30.20,SSE,156,1.0,1.0,78,0.09,,---,0.09,VWS V14.00,2013-04-26 09:56:00,
2013-04-26 04:57:00,50.2,43.6,30.20,SSE,156,0.0,0.0,78,0.09,,---,0.09,VWS V14.00,2013-04-26 09:57:00,
2013-04-26 04:58:00,50.2,43.6,30.20,SSE,156,1.0,1.0,78,0.09,,---,0.09,VWS V14.00,2013-04-26 09:58:00,
2013-04-26 04:59:00,50.1,43.8,30.20,SSE,156,3.0,3.0,79,0.09,,---,0.09,VWS V14.00,2013-04-26 09:59:00,
2013-04-26 05:00:00,50.1,43.8,30.20,SSE,156,2.0,4.0,79,0.09,,---,0.09,VWS V14.00,2013-04-26 10:00:00,
2013-04-26 05:01:00,50.1,43.8,30.20,SSE,157,0.0,3.0,79,0.09,,---,0.09,VWS V14.00,2013-04-26 10:01:00,
2013-04-26 05:02:00,50.1,43.8,30.20,SSE,157,2.0,5.0,79,0.09,,---,0.09,VWS V14.00,2013-04-26 10:02:00,
2013-04-26 05:03:00,50.1,43.8,30.20,SSE,157,0.0,3.0,79,0.09,,---,0.09,VWS V14.00,2013-04-26 10:03:00,
2013-04-26 05:04:00,50.1,44.2,30.20,SSE,157,0.0,1.0,80,0.09,,---,0.09,VWS V14.00,2013-04-26 10:04:00,
2013-04-26 05:05:00,50.1,44.2,30.20,SSE,157,0.0,0.0,80,0.09,,---,0.09,VWS V14.00,2013-04-26 10:05:00,
2013-04-26 05:06:00,50.1,44.2,30.20,SSE,157,0.0,0.0,80,0.09,,---,0.09,VWS V14.00,2013-04-26 10:06:00,
2013-04-26 05:07:00,50.1,44.2,30.20,SSE,157,0.0,0.0,80,0.09,,---,0.09,VWS V14.00,2013-04-26 10:07:00,
2013-04-26 05:08:00,50.1,44.2,30.20,SSE,157,0.0,0.0,80,0.09,,---,0.09,VWS V14.00,2013-04-26 10:08:00,
2013-04-26 05:09:00,50.1,44.2,30.20,SSE,157,0.0,0.0,80,0.07,,---,0.09,VWS V14.00,2013-04-26 10:09:00,
2013-04-26 05:10:00,49.9,44.0,30.21,SSE,157,0.0,0.0,80,0.05,,---,0.09,VWS V14.00,2013-04-26 10:10:00,
2013-04-26 05:11:00,49.8,43.9,30.20,SSE,157,0.0,0.0,80,0.03,,---,0.09,VWS V14.00,2013-04-26 10:11:00,
2013-04-26 05:12:00,49.9,44.0,30.20,SSE,157,0.0,0.0,80,0.03,,---,0.09,VWS V14.00,2013-04-26 10:12:00,
2013-04-26 05:13:00,49.9,44.0,30.20,SSE,157,0.0,0.0,80,0.03,,---,0.09,VWS V14.00,2013-04-26 10:13:00,
2013-04-26 05:14:00,49.9,44.0,30.20,SSE,157,0.0,1.0,80,0.03,,---,0.09,VWS V14.00,2013-04-26 10:14:00,
2013-04-26 05:15:00,49.9,44.0,30.20,SSE,157,0.0,0.0,80,0.03,,---,0.09,VWS V14.00,2013-04-26 10:15:00,
2013-04-26 05:16:00,49.9,44.0,30.21,SSE,157,0.0,0.0,80,0.03,,---,0.09,VWS V14.00,2013-04-26 10:16:00,
2013-04-26 05:17:00,49.9,44.0,30.21,SSE,157,0.0,0.0,80,0.03,,---,0.09,VWS V14.00,2013-04-26 10:17:00,
2013-04-26 05:18:00,49.9,44.0,30.21,SSE,157,0.0,0.0,80,0.03,,---,0.09,VWS V14.00,2013-04-26 10:18:00,
2013-04-26 05:19:00,49.9,44.3,30.21,SSE,157,0.0,0.0,81,0.03,,---,0.09,VWS V14.00,2013-04-26 10:19:00,
2013-04-26 05:20:00,49.9,44.3,30.21,SSE,157,0.0,0.0,81,0.03,,---,0.09,VWS V14.00,2013-04-26 10:20:00,
2013-04-26 05:21:00,49.9,44.3,30.20,SSE,157,4.0,5.0,81,0.03,,---,0.09,VWS V14.00,2013-04-26 10:21:00,
2013-04-26 05:22:00,49.9,44.3,30.21,SSE,157,4.0,4.0,81,0.03,,---,0.09,VWS V14.00,2013-04-26 10:22:00,
2013-04-26 05:23:00,49.9,44.3,30.20,SSE,157,5.0,5.0,81,0.03,,---,0.09,VWS V14.00,2013-04-26 10:23:00,
2013-04-26 05:24:00,49.9,44.3,30.20,SSE,157,2.0,5.0,81,0.03,,---,0.09,VWS V14.00,2013-04-26 10:24:00,
2013-04-26 05:25:00,49.8,44.2,30.20,SSE,157,1.0,3.0,81,0.03,,---,0.09,VWS V14.00,2013-04-26 10:25:00,
2013-04-26 05:26:00,49.6,43.7,30.20,SSE,157,0.0,3.0,80,0.03,,---,0.09,VWS V14.00,2013-04-26 10:26:00,
2013-04-26 05:27:00,49.6,43.7,30.20,SSE,157,0.0,1.0,80,0.03,,---,0.09,VWS V14.00,2013-04-26 10:27:00,
2013-04-26 05:28:00,49.6,43.7,30.20,SSE,157,0.0,3.0,80,0.03,,---,0.09,VWS V14.00,2013-04-26 10:28:00,
2013-04-26 05:29:00,49.6,43.7,30.20,SSE,157,0.0,1.0,80,0.03,,---,0.09,VWS V14.00,2013-04-26 10:29:00,
2013-04-26 05:30:00,49.6,43.7,30.20,SSE,157,0.0,0.0,80,0.03,,---,0.09,VWS V14.00,2013-04-26 10:30:00,
2013-04-26 05:31:00,49.5,43.6,30.20,SSE,157,0.0,0.0,80,0.03,,---,0.09,VWS V14.00,2013-04-26 10:31:00,
2013-04-26 05:32:00,49.5,43.6,30.20,SSE,157,0.0,0.0,80,0.03,,---,0.09,VWS V14.00,2013-04-26 10:32:00,
2013-04-26 05:33:00,49.5,43.6,30.20,SSE,157,0.0,0.0,80,0.03,,---,0.09,VWS V14.00,2013-04-26 10:33:00,
2013-04-26 05:34:00,49.5,43.6,30.20,SSE,157,2.0,2.0,80,0.03,,---,0.09,VWS V14.00,2013-04-26 10:34:00,
2013-04-26 05:35:00,49.5,43.9,30.20,SSE,157,2.0,4.0,81,0.03,,---,0.09,VWS V14.00,2013-04-26 10:35:00,
2013-04-26 05:36:00,49.4,43.8,30.20,SSE,157,0.0,0.0,81,0.03,,---,0.09,VWS V14.00,2013-04-26 10:36:00,
2013-04-26 05:37:00,49.4,43.8,30.20,SSE,157,0.0,0.0,81,0.03,,---,0.09,VWS V14.00,2013-04-26 10:37:00,
2013-04-26 05:38:00,49.4,43.8,30.20,SSE,157,0.0,0.0,81,0.03,,---,0.09,VWS V14.00,2013-04-26 10:38:00,
2013-04-26 05:39:00,49.5,43.9,30.20,SSE,157,0.0,0.0,81,0.03,,---,0.09,VWS V14.00,2013-04-26 10:39:00,
2013-04-26 05:40:00,49.5,43.9,30.20,SSE,157,0.0,0.0,81,0.03,,---,0.09,VWS V14.00,2013-04-26 10:40:00,
2013-04-26 05:41:00,49.5,43.9,30.20,SSE,157,0.0,0.0,81,0.03,,---,0.09,VWS V14.00,2013-04-26 10:41:00,
2013-04-26 05:42:00,49.5,43.9,30.20,SSE,157,0.0,0.0,81,0.03,,---,0.09,VWS V14.00,2013-04-26 10:42:00,
2013-04-26 05:43:00,49.5,43.9,30.20,SSE,157,0.0,0.0,81,0.03,,---,0.09,VWS V14.00,2013-04-26 10:43:00,
2013-04-26 05:44:00,49.4,43.8,30.20,SSE,157,0.0,0.0,81,0.03,,---,0.09,VWS V14.00,2013-04-26 10:44:00,
2013-04-26 05:45:00,49.5,44.2,30.20,SSE,157,0.0,0.0,82,0.03,,---,0.09,VWS V14.00,2013-04-26 10:45:00,
2013-04-26 05:46:00,49.5,44.2,30.20,SSE,157,5.0,5.0,82,0.03,,---,0.09,VWS V14.00,2013-04-26 10:46:00,
2013-04-26 05:47:00,49.5,44.2,30.20,SSE,157,3.0,3.0,82,0.03,,---,0.09,VWS V14.00,2013-04-26 10:47:00,
2013-04-26 05:48:00,49.5,44.2,30.20,SSE,157,5.0,6.0,82,0.03,,---,0.09,VWS V14.00,2013-04-26 10:48:00,
2013-04-26 05:49:00,49.5,43.9,30.20,SSE,157,3.0,5.0,81,0.03,,---,0.09,VWS V14.00,2013-04-26 10:49:00,
2013-04-26 05:50:00,49.5,43.9,30.21,SSE,157,4.0,5.0,81,0.03,,---,0.09,VWS V14.00,2013-04-26 10:50:00,
2013-04-26 05:51:00,49.6,44.0,30.21,SSE,157,0.0,0.0,81,0.01,,---,0.09,VWS V14.00,2013-04-26 10:51:00,
2013-04-26 05:52:00,49.6,44.3,30.21,SSE,157,0.0,5.0,82,0.02,,---,0.09,VWS V14.00,2013-04-26 10:52:00,
2013-04-26 05:53:00,49.6,44.0,30.21,SSE,157,0.0,0.0,81,0.01,,---,0.09,VWS V14.00,2013-04-26 10:53:00,
2013-04-26 05:54:00,49.8,44.2,30.20,SSE,157,0.0,0.0,81,0.01,,---,0.09,VWS V14.00,2013-04-26 10:54:00,
2013-04-26 05:55:00,49.8,44.2,30.20,SSE,157,0.0,0.0,81,0.01,,---,0.09,VWS V14.00,2013-04-26 10:55:00,
2013-04-26 05:56:00,49.8,44.5,30.20,SSE,157,3.0,5.0,82,0.00,,---,0.09,VWS V14.00,2013-04-26 10:56:00,
2013-04-26 05:57:00,49.8,44.2,30.20,SSE,157,4.0,4.0,81,0.00,,---,0.09,VWS V14.00,2013-04-26 10:57:00,
2013-04-26 05:58:00,49.8,44.5,30.20,SSE,157,2.0,5.0,82,0.00,,---,0.09,VWS V14.00,2013-04-26 10:58:00,
2013-04-26 05:59:00,49.8,44.5,30.20,SSE,157,2.0,4.0,82,0.00,,---,0.09,VWS V14.00,2013-04-26 10:59:00,
2013-04-26 06:00:00,49.8,44.5,30.20,SSE,157,2.0,4.0,82,0.00,,---,0.09,VWS V14.00,2013-04-26 11:00:00,
2013-04-26 06:01:00,49.6,44.3,30.21,SSE,157,0.0,0.0,82,0.00,,---,0.09,VWS V14.00,2013-04-26 11:01:00,
2013-04-26 06:02:00,49.6,44.3,30.21,SSE,157,0.0,0.0,82,0.00,,---,0.09,VWS V14.00,2013-04-26 11:02:00,
2013-04-26 06:03:00,49.6,44.3,30.21,SSE,157,0.0,0.0,82,0.00,,---,0.09,VWS V14.00,2013-04-26 11:03:00,
2013-04-26 06:04:00,49.6,44.3,30.21,SSE,157,0.0,0.0,82,0.00,,---,0.09,VWS V14.00,2013-04-26 11:04:00,
2013-04-26 06:05:00,49.6,44.3,30.21,SSE,157,0.0,0.0,82,0.00,,---,0.09,VWS V14.00,2013-04-26 11:05:00,
2013-04-26 06:06:00,49.8,44.5,30.21,SSE,157,0.0,0.0,82,0.00,,---,0.09,VWS V14.00,2013-04-26 11:06:00,
2013-04-26 06:07:00,49.8,44.5,30.21,SSE,157,0.0,0.0,82,0.00,,---,0.09,VWS V14.00,2013-04-26 11:07:00,
2013-04-26 06:08:00,49.8,44.5,30.21,SSE,157,0.0,0.0,82,0.00,,---,0.09,VWS V14.00,2013-04-26 11:08:00,
2013-04-26 06:09:00,49.8,44.5,30.21,SSE,157,0.0,0.0,82,0.00,,---,0.09,VWS V14.00,2013-04-26 11:09:00,
2013-04-26 06:10:00,49.8,44.5,30.21,SSE,157,0.0,0.0,82,0.00,,---,0.09,VWS V14.00,2013-04-26 11:10:00,
2013-04-26 06:11:00,49.8,44.5,30.22,SSE,157,0.0,0.0,82,0.00,,---,0.09,VWS V14.00,2013-04-26 11:11:00,
2013-04-26 06:12:00,49.8,44.5,30.22,SSE,157,0.0,2.0,82,0.00,,---,0.09,VWS V14.00,2013-04-26 11:12:00,
2013-04-26 06:13:00,49.8,44.5,30.22,SSE,157,0.0,0.0,82,0.00,,---,0.09,VWS V14.00,2013-04-26 11:13:00,
2013-04-26 06:14:00,49.8,44.5,30.22,SSE,157,0.0,0.0,82,0.00,,---,0.09,VWS V14.00,2013-04-26 11:14:00,
2013-04-26 06:15:00,49.8,44.5,30.22,SSE,157,0.0,0.0,82,0.00,,---,0.09,VWS V14.00,2013-04-26 11:15:00,
2013-04-26 06:16:00,49.8,44.5,30.23,SSE,156,5.0,5.0,82,0.00,,---,0.09,VWS V14.00,2013-04-26 11:16:00,
2013-04-26 06:17:00,49.8,44.5,30.23,SSE,156,5.0,7.0,82,0.00,,---,0.09,VWS V14.00,2013-04-26 11:17:00,
2013-04-26 06:18:00,49.8,44.5,30.24,SSE,156,6.0,6.0,82,0.00,,---,0.09,VWS V14.00,2013-04-26 11:18:00,
2013-04-26 06:19:00,49.8,44.5,30.24,SSE,156,10.0,10.0,82,0.00,,---,0.09,VWS V14.00,2013-04-26 11:19:00,
2013-04-26 06:20:00,49.9,45.0,30.24,SSE,155,7.0,10.0,83,0.00,,---,0.09,VWS V14.00,2013-04-26 11:20:00,
2013-04-26 06:21:00,50.1,44.8,30.24,SSE,155,3.0,6.0,82,0.00,,---,0.09,VWS V14.00,2013-04-26 11:21:00,
2013-04-26 06:22:00,50.1,45.2,30.24,SSE,156,6.0,7.0,83,0.00,,---,0.09,VWS V14.00,2013-04-26 11:22:00,
2013-04-26 06:23:00,50.1,44.8,30.24,SSE,155,5.0,6.0,82,0.00,,---,0.09,VWS V14.00,2013-04-26 11:23:00,
2013-04-26 06:24:00,50.1,44.8,30.24,SSE,155,5.0,5.0,82,0.00,,---,0.09,VWS V14.00,2013-04-26 11:24:00,
2013-04-26 06:25:00,50.1,44.8,30.24,SSE,155,4.0,5.0,82,0.00,,---,0.09,VWS V14.00,2013-04-26 11:25:00,
2013-04-26 06:26:00,50.1,44.5,30.23,SSE,155,0.0,2.0,81,0.00,,---,0.09,VWS V14.00,2013-04-26 11:26:00,
2013-04-26 06:27:00,50.1,44.5,30.23,SSE,155,2.0,4.0,81,0.00,,---,0.09,VWS V14.00,2013-04-26 11:27:00,
2013-04-26 06:28:00,50.1,44.5,30.24,SSE,155,0.0,2.0,81,0.00,,---,0.09,VWS V14.00,2013-04-26 11:28:00,
2013-04-26 06:29:00,50.2,44.6,30.23,SSE,155,1.0,4.0,81,0.00,,---,0.09,VWS V14.00,2013-04-26 11:29:00,
2013-04-26 06:30:00,50.2,44.6,30.23,SSE,155,1.0,2.0,81,0.00,,---,0.09,VWS V14.00,2013-04-26 11:30:00,
2013-04-26 06:31:00,50.4,44.5,30.24,SSE,155,3.0,4.0,80,0.00,,---,0.09,VWS V14.00,2013-04-26 11:31:00,
2013-04-26 06:32:00,50.2,44.3,30.24,SSE,155,1.0,4.0,80,0.00,,---,0.09,VWS V14.00,2013-04-26 11:32:00,
2013-04-26 06:33:00,50.4,44.5,30.24,SSE,155,4.0,7.0,80,0.00,,---,0.09,VWS V14.00,2013-04-26 11:33:00,
2013-04-26 06:34:00,50.4,44.5,30.25,SSE,155,3.0,5.0,80,0.00,,---,0.09,VWS V14.00,2013-04-26 11:34:00,
2013-04-26 06:35:00,50.4,44.5,30.25,SSE,155,0.0,3.0,80,0.00,,---,0.09,VWS V14.00,2013-04-26 11:35:00,
2013-04-26 06:36:00,50.5,44.6,30.25,SSE,155,4.0,7.0,80,0.00,,---,0.09,VWS V14.00,2013-04-26 11:36:00,
2013-04-26 06:37:00,50.4,44.5,30.25,SSE,155,0.0,0.0,80,0.00,,---,0.09,VWS V14.00,2013-04-26 11:37:00,
2013-04-26 06:38:00,50.5,44.6,30.24,SSE,155,6.0,7.0,80,0.00,,---,0.09,VWS V14.00,2013-04-26 11:38:00,
2013-04-26 06:39:00,50.5,44.9,30.24,SSE,155,9.0,10.0,81,0.00,,---,0.09,VWS V14.00,2013-04-26 11:39:00,
2013-04-26 06:40:00,50.7,44.8,30.24,SSE,154,9.0,10.0,80,0.01,,---,0.10,VWS V14.00,2013-04-26 11:40:00,
2013-04-26 06:41:00,50.5,45.2,30.24,SSE,153,6.0,9.0,82,0.09,,---,0.18,VWS V14.00,2013-04-26 11:41:00,
2013-04-26 06:42:00,50.7,45.1,30.24,SSE,153,9.0,9.0,81,0.07,,---,0.16,VWS V14.00,2013-04-26 11:42:00,
2013-04-26 06:43:00,50.5,45.2,30.24,SSE,153,3.0,9.0,82,0.09,,---,0.18,VWS V14.00,2013-04-26 11:43:00,
2013-04-26 06:44:00,50.4,45.1,30.24,SSE,153,4.0,7.0,82,0.09,,---,0.18,VWS V14.00,2013-04-26 11:44:00,
2013-04-26 06:45:00,50.2,44.9,30.24,SSE,153,6.0,7.0,82,0.10,,---,0.19,VWS V14.00,2013-04-26 11:45:00,
2013-04-26 06:46:00,49.9,45.0,30.24,SSE,152,5.0,8.0,83,0.10,,---,0.19,VWS V14.00,2013-04-26 11:46:00,
2013-04-26 06:47:00,49.9,44.6,30.24,SSE,152,6.0,10.0,82,0.10,,---,0.19,VWS V14.00,2013-04-26 11:47:00,
2013-04-26 06:48:00,49.9,45.0,30.24,SSE,152,6.0,8.0,83,0.10,,---,0.19,VWS V14.00,2013-04-26 11:48:00,
2013-04-26 06:49:00,50.1,45.2,30.23,SSE,151,3.0,10.0,83,0.10,,---,0.19,VWS V14.00,2013-04-26 11:49:00,
2013-04-26 06:50:00,50.1,45.5,30.23,SSE,151,4.0,9.0,84,0.11,,---,0.20,VWS V14.00,2013-04-26 11:50:00,
2013-04-26 06:51:00,49.9,45.0,30.23,SSE,151,12.0,12.0,83,0.11,,---,0.20,VWS V14.00,2013-04-26 11:51:00,
2013-04-26 06:52:00,50.1,45.2,30.23,SSE,151,7.0,7.0,83,0.11,,---,0.20,VWS V14.00,2013-04-26 11:52:00,
2013-04-26 06:53:00,49.9,45.0,30.23,SSE,148,14.0,14.0,83,0.11,,---,0.20,VWS V14.00,2013-04-26 11:53:00,
2013-04-26 06:54:00,49.9,45.0,30.23,SSE,148,13.0,14.0,83,0.11,,---,0.20,VWS V14.00,2013-04-26 11:54:00,
2013-04-26 06:55:00,49.9,45.3,30.23,SSE,147,12.0,15.0,84,0.11,,---,0.20,VWS V14.00,2013-04-26 11:55:00,
2013-04-26 06:56:00,50.1,45.2,30.23,SE,144,9.0,10.0,83,0.11,,---,0.20,VWS V14.00,2013-04-26 11:56:00,
2013-04-26 06:57:00,49.9,45.0,30.23,SE,143,5.0,12.0,83,0.11,,---,0.20,VWS V14.00,2013-04-26 11:57:00,
2013-04-26 06:58:00,50.1,45.2,30.23,SE,144,5.0,10.0,83,0.11,,---,0.20,VWS V14.00,2013-04-26 11:58:00,
2013-04-26 06:59:00,50.1,44.8,30.23,SSE,155,6.0,13.0,82,0.11,,---,0.20,VWS V14.00,2013-04-26 11:59:00,
2013-04-26 07:00:00,50.1,45.2,30.23,SSE,147,6.0,14.0,83,0.11,,---,0.20,VWS V14.00,2013-04-26 12:00:00,
2013-04-26 07:01:00,50.2,45.2,30.23,SSE,147,13.0,14.0,83,0.11,,---,0.20,VWS V14.00,2013-04-26 12:01:00,
2013-04-26 07:02:00,50.2,45.2,30.23,SE,146,10.0,14.0,83,0.11,,---,0.20,VWS V14.00,2013-04-26 12:02:00,
2013-04-26 07:03:00,50.2,45.2,30.22,SSE,147,12.0,14.0,83,0.11,,---,0.20,VWS V14.00,2013-04-26 12:03:00,
2013-04-26 07:04:00,50.4,45.8,30.22,SE,145,12.0,13.0,84,0.11,,---,0.20,VWS V14.00,2013-04-26 12:04:00,
2013-04-26 07:05:00,50.2,45.2,30.23,SE,138,9.0,15.0,83,0.11,,---,0.20,VWS V14.00,2013-04-26 12:05:00,
2013-04-26 07:06:00,50.4,45.4,30.23,SE,137,10.0,15.0,83,0.11,,---,0.20,VWS V14.00,2013-04-26 12:06:00,
2013-04-26 07:07:00,50.4,45.4,30.23,SE,139,11.0,14.0,83,0.11,,---,0.20,VWS V14.00,2013-04-26 12:07:00,
2013-04-26 07:08:00,50.4,45.4,30.23,SE,137,12.0,15.0,83,0.11,,---,0.20,VWS V14.00,2013-04-26 12:08:00,
2013-04-26 07:09:00,50.4,45.1,30.23,SE,134,11.0,15.0,82,0.11,,---,0.20,VWS V14.00,2013-04-26 12:09:00,
2013-04-26 07:10:00,50.4,45.1,30.23,SE,136,13.0,14.0,82,0.11,,---,0.20,VWS V14.00,2013-04-26 12:10:00,
2013-04-26 07:11:00,50.4,45.1,30.23,ESE,121,11.0,15.0,82,0.11,,---,0.20,VWS V14.00,2013-04-26 12:11:00,
2013-04-26 07:12:00,50.4,45.1,30.23,SE,140,12.0,15.0,82,0.11,,---,0.20,VWS V14.00,2013-04-26 12:12:00,
2013-04-26 07:13:00,50.2,44.9,30.23,ESE,121,6.0,15.0,82,0.11,,---,0.20,VWS V14.00,2013-04-26 12:13:00,
2013-04-26 07:14:00,50.4,45.1,30.23,SE,134,12.0,13.0,82,0.11,,---,0.20,VWS V14.00,2013-04-26 12:14:00,
2013-04-26 07:15:00,50.2,44.9,30.23,SE,136,11.0,14.0,82,0.11,,---,0.20,VWS V14.00,2013-04-26 12:15:00,
2013-04-26 07:16:00,50.2,44.9,30.23,SE,136,10.0,13.0,82,0.11,,---,0.20,VWS V14.00,2013-04-26 12:16:00,
2013-04-26 07:17:00,50.2,44.9,30.23,SE,137,11.0,13.0,82,0.11,,---,0.20,VWS V14.00,2013-04-26 12:17:00,
2013-04-26 07:18:00,50.2,44.9,30.23,SE,136,9.0,13.0,82,0.11,,---,0.20,VWS V14.00,2013-04-26 12:18:00,
2013-04-26 07:19:00,50.2,44.9,30.23,SE,134,10.0,12.0,82,0.11,,---,0.20,VWS V14.00,2013-04-26 12:19:00,
2013-04-26 07:20:00,50.2,44.9,30.23,SE,131,7.0,12.0,82,0.11,,---,0.20,VWS V14.00,2013-04-26 12:20:00,
2013-04-26 07:21:00,50.1,44.8,30.23,SE,129,5.0,8.0,82,0.11,,---,0.20,VWS V14.00,2013-04-26 12:21:00,
2013-04-26 07:22:00,50.1,44.8,30.23,SE,129,8.0,10.0,82,0.11,,---,0.20,VWS V14.00,2013-04-26 12:22:00,
2013-04-26 07:23:00,50.1,44.8,30.24,SE,129,6.0,8.0,82,0.11,,---,0.20,VWS V14.00,2013-04-26 12:23:00,
2013-04-26 07:24:00,50.1,44.8,30.24,SE,129,4.0,9.0,82,0.11,,---,0.20,VWS V14.00,2013-04-26 12:24:00,
2013-04-26 07:25:00,50.1,44.8,30.24,SE,129,5.0,11.0,82,0.11,,---,0.20,VWS V14.00,2013-04-26 12:25:00,
2013-04-26 07:26:00,50.1,44.8,30.24,SE,129,4.0,6.0,82,0.11,,---,0.20,VWS V14.00,2013-04-26 12:26:00,
2013-04-26 07:27:00,50.1,44.8,30.24,SE,129,4.0,6.0,82,0.11,,---,0.20,VWS V14.00,2013-04-26 12:27:00,
2013-04-26 07:28:00,50.1,44.8,30.24,SE,129,5.0,6.0,82,0.11,,---,0.20,VWS V14.00,2013-04-26 12:28:00,
2013-04-26 07:29:00,50.1,44.8,30.24,SE,129,6.0,8.0,82,0.11,,---,0.20,VWS V14.00,2013-04-26 12:29:00,
2013-04-26 07:30:00,50.1,44.8,30.24,SE,129,9.0,10.0,82,0.11,,---,0.20,VWS V14.00,2013-04-26 12:30:00,
2013-04-26 07:31:00,50.4,45.1,30.24,SE,134,9.0,9.0,82,0.11,,---,0.20,VWS V14.00,2013-04-26 12:31:00,
2013-04-26 07:32:00,50.2,44.9,30.24,SE,134,3.0,12.0,82,0.11,,---,0.20,VWS V14.00,2013-04-26 12:32:00,
2013-04-26 07:33:00,50.4,45.1,30.24,SE,134,6.0,9.0,82,0.11,,---,0.20,VWS V14.00,2013-04-26 12:33:00,
2013-04-26 07:34:00,50.5,45.2,30.24,SE,134,5.0,8.0,82,0.11,,---,0.20,VWS V14.00,2013-04-26 12:34:00,
2013-04-26 07:35:00,50.5,45.2,30.24,SE,134,4.0,10.0,82,0.11,,---,0.20,VWS V14.00,2013-04-26 12:35:00,
2013-04-26 07:36:00,50.4,45.1,30.24,SE,134,7.0,8.0,82,0.11,,---,0.20,VWS V14.00,2013-04-26 12:36:00,
2013-04-26 07:37:00,50.4,45.1,30.24,SE,134,6.0,10.0,82,0.11,,---,0.20,VWS V14.00,2013-04-26 12:37:00,
2013-04-26 07:38:00,50.4,45.1,30.24,SE,134,8.0,9.0,82,0.11,,---,0.20,VWS V14.00,2013-04-26 12:38:00,
2013-04-26 07:39:00,50.4,45.1,30.24,ESE,123,7.0,11.0,82,0.11,,---,0.20,VWS V14.00,2013-04-26 12:39:00,
2013-04-26 07:40:00,50.4,45.1,30.24,SE,124,11.0,12.0,82,0.11,,---,0.20,VWS V14.00,2013-04-26 12:40:00,
2013-04-26 07:41:00,50.2,44.9,30.23,SE,126,5.0,10.0,82,0.04,,---,0.20,VWS V14.00,2013-04-26 12:41:00,
2013-04-26 07:42:00,50.2,44.9,30.23,SE,126,7.0,12.0,82,0.06,,---,0.20,VWS V14.00,2013-04-26 12:42:00,
2013-04-26 07:43:00,50.2,44.9,30.23,ESE,123,6.0,10.0,82,0.04,,---,0.20,VWS V14.00,2013-04-26 12:43:00,
2013-04-26 07:44:00,50.2,44.9,30.24,SE,124,9.0,11.0,82,0.02,,---,0.20,VWS V14.00,2013-04-26 12:44:00,
2013-04-26 07:45:00,50.1,44.8,30.23,SE,124,6.0,10.0,82,0.02,,---,0.20,VWS V14.00,2013-04-26 12:45:00,
2013-04-26 07:46:00,50.1,44.8,30.23,SE,125,10.0,11.0,82,0.01,,---,0.20,VWS V14.00,2013-04-26 12:46:00,
2013-04-26 07:47:00,50.1,44.8,30.23,SE,124,8.0,10.0,82,0.01,,---,0.20,VWS V14.00,2013-04-26 12:47:00,
2013-04-26 07:48:00,50.1,44.8,30.23,SE,125,11.0,11.0,82,0.01,,---,0.20,VWS V14.00,2013-04-26 12:48:00,
2013-04-26 07:49:00,50.1,44.8,30.23,SE,125,7.0,13.0,82,0.01,,---,0.20,VWS V14.00,2013-04-26 12:49:00,
2013-04-26 07:50:00,50.2,44.9,30.23,SE,125,9.0,13.0,82,0.01,,---,0.20,VWS V14.00,2013-04-26 12:50:00,
2013-04-26 07:51:00,50.4,45.1,30.24,ESE,116,5.0,9.0,82,0.00,,---,0.20,VWS V14.00,2013-04-26 12:51:00,
2013-04-26 07:52:00,50.4,45.1,30.24,SE,126,7.0,10.0,82,0.00,,---,0.20,VWS V14.00,2013-04-26 12:52:00,
2013-04-26 07:53:00,50.4,45.1,30.24,ESE,116,10.0,10.0,82,0.00,,---,0.20,VWS V14.00,2013-04-26 12:53:00,
2013-04-26 07:54:00,50.4,45.1,30.24,ESE,116,4.0,10.0,82,0.00,,---,0.20,VWS V14.00,2013-04-26 12:54:00,
2013-04-26 07:55:00,50.5,45.2,30.24,ESE,111,4.0,10.0,82,0.00,,---,0.20,VWS V14.00,2013-04-26 12:55:00,
2013-04-26 07:56:00,50.7,45.4,30.24,SE,132,7.0,7.0,82,0.00,,---,0.20,VWS V14.00,2013-04-26 12:56:00,
2013-04-26 07:57:00,50.7,45.4,30.24,SE,131,5.0,7.0,82,0.00,,---,0.20,VWS V14.00,2013-04-26 12:57:00,
2013-04-26 07:58:00,50.8,45.2,30.24,SE,132,6.0,7.0,81,0.00,,---,0.20,VWS V14.00,2013-04-26 12:58:00,
2013-04-26 07:59:00,50.8,45.2,30.24,SE,132,7.0,7.0,81,0.00,,---,0.20,VWS V14.00,2013-04-26 12:59:00,
2013-04-26 08:00:00,50.8,45.2,30.24,SE,132,9.0,11.0,81,0.00,,---,0.20,VWS V14.00,2013-04-26 13:00:00,
2013-04-26 08:01:00,51.0,45.1,30.24,SE,129,13.0,13.0,80,0.00,,---,0.20,VWS V14.00,2013-04-26 13:01:00,
2013-04-26 08:02:00,51.0,45.1,30.24,SE,130,11.0,14.0,80,0.00,,---,0.20,VWS V14.00,2013-04-26 13:02:00,
2013-04-26 08:03:00,51.0,45.1,30.24,SE,129,12.0,13.0,80,0.00,,---,0.20,VWS V14.00,2013-04-26 13:03:00,
2013-04-26 08:04:00,51.0,45.1,30.24,SE,127,13.0,17.0,80,0.00,,---,0.20,VWS V14.00,2013-04-26 13:04:00,
2013-04-26 08:05:00,51.1,45.2,30.24,SE,135,13.0,16.0,80,0.00,,---,0.20,VWS V14.00,2013-04-26 13:05:00,
2013-04-26 08:06:00,51.3,45.3,30.24,SE,132,10.0,12.0,80,0.00,,---,0.20,VWS V14.00,2013-04-26 13:06:00,
2013-04-26 08:07:00,51.3,45.0,30.24,SE,131,11.0,15.0,79,0.00,,---,0.20,VWS V14.00,2013-04-26 13:07:00,
2013-04-26 08:08:00,51.3,45.3,30.24,SE,134,11.0,12.0,80,0.00,,---,0.20,VWS V14.00,2013-04-26 13:08:00,
2013-04-26 08:09:00,51.4,45.1,30.24,SE,131,9.0,14.0,79,0.00,,---,0.20,VWS V14.00,2013-04-26 13:09:00,
2013-04-26 08:10:00,51.4,45.1,30.24,SE,128,9.0,13.0,79,0.00,,---,0.20,VWS V14.00,2013-04-26 13:10:00,
2013-04-26 08:11:00,51.3,45.0,30.24,SE,126,10.0,12.0,79,0.00,,---,0.20,VWS V14.00,2013-04-26 13:11:00,
2013-04-26 08:12:00,51.4,45.1,30.24,SE,125,10.0,13.0,79,0.00,,---,0.20,VWS V14.00,2013-04-26 13:12:00,
2013-04-26 08:13:00,51.3,45.0,30.24,SE,126,7.0,12.0,79,0.00,,---,0.20,VWS V14.00,2013-04-26 13:13:00,
2013-04-26 08:14:00,51.3,45.0,30.24,SE,126,10.0,11.0,79,0.00,,---,0.20,VWS V14.00,2013-04-26 13:14:00,
2013-04-26 08:15:00,51.4,45.5,30.24,SE,126,6.0,10.0,80,0.00,,---,0.20,VWS V14.00,2013-04-26 13:15:00,
2013-04-26 08:16:00,51.4,45.1,30.24,SE,125,10.0,10.0,79,0.00,,---,0.20,VWS V14.00,2013-04-26 13:16:00,
2013-04-26 08:17:00,51.4,45.5,30.24,SE,125,8.0,8.0,80,0.00,,---,0.20,VWS V14.00,2013-04-26 13:17:00,
2013-04-26 08:18:00,51.4,45.1,30.24,SE,125,10.0,10.0,79,0.00,,---,0.20,VWS V14.00,2013-04-26 13:18:00,
2013-04-26 08:19:00,51.4,45.1,30.25,ESE,121,5.0,12.0,79,0.00,,---,0.20,VWS V14.00,2013-04-26 13:19:00,
2013-04-26 08:20:00,51.6,45.3,30.24,ESE,119,6.0,10.0,79,0.00,,---,0.20,VWS V14.00,2013-04-26 13:20:00,
2013-04-26 08:21:00,51.4,45.1,30.24,ESE,121,11.0,11.0,79,0.00,,---,0.20,VWS V14.00,2013-04-26 13:21:00,
2013-04-26 08:22:00,51.6,45.0,30.24,ESE,119,3.0,11.0,78,0.00,,---,0.20,VWS V14.00,2013-04-26 13:22:00,
2013-04-26 08:23:00,51.6,45.3,30.24,ESE,120,8.0,10.0,79,0.00,,---,0.20,VWS V14.00,2013-04-26 13:23:00,
2013-04-26 08:24:00,51.6,45.3,30.24,ESE,120,10.0,10.0,79,0.00,,---,0.20,VWS V14.00,2013-04-26 13:24:00,
2013-04-26 08:25:00,51.7,45.4,30.23,ESE,118,7.0,8.0,79,0.00,,---,0.20,VWS V14.00,2013-04-26 13:25:00,
2013-04-26 08:26:00,51.6,45.3,30.23,ESE,121,6.0,10.0,79,0.00,,---,0.20,VWS V14.00,2013-04-26 13:26:00,
2013-04-26 08:27:00,51.6,45.3,30.23,ESE,121,7.0,11.0,79,0.00,,---,0.20,VWS V14.00,2013-04-26 13:27:00,
2013-04-26 08:28:00,51.7,45.4,30.23,ESE,118,8.0,10.0,79,0.00,,---,0.20,VWS V14.00,2013-04-26 13:28:00,
2013-04-26 08:29:00,51.7,45.1,30.23,ESE,111,7.0,11.0,78,0.00,,---,0.20,VWS V14.00,2013-04-26 13:29:00,
2013-04-26 08:30:00,51.9,45.3,30.23,SE,141,12.0,12.0,78,0.00,,---,0.20,VWS V14.00,2013-04-26 13:30:00,
2013-04-26 08:31:00,51.9,45.6,30.23,ESE,123,8.0,10.0,79,0.00,,---,0.20,VWS V14.00,2013-04-26 13:31:00,
2013-04-26 08:32:00,51.9,45.3,30.23,ESE,123,7.0,11.0,78,0.00,,---,0.20,VWS V14.00,2013-04-26 13:32:00,
2013-04-26 08:33:00,51.9,45.3,30.23,SE,141,11.0,12.0,78,0.00,,---,0.20,VWS V14.00,2013-04-26 13:33:00,
2013-04-26 08:34:00,52.0,45.4,30.23,SE,139,5.0,11.0,78,0.00,,---,0.20,VWS V14.00,2013-04-26 13:34:00,
2013-04-26 08:35:00,52.2,45.6,30.23,SE,142,7.0,11.0,78,0.00,,---,0.20,VWS V14.00,2013-04-26 13:35:00,
2013-04-26 08:36:00,52.0,45.4,30.23,SE,138,7.0,11.0,78,0.00,,---,0.20,VWS V14.00,2013-04-26 13:36:00,
2013-04-26 08:37:00,52.2,45.2,30.23,SE,145,10.0,14.0,77,0.00,,---,0.20,VWS V14.00,2013-04-26 13:37:00,
2013-04-26 08:38:00,52.2,45.6,30.23,SE,137,9.0,12.0,78,0.00,,---,0.20,VWS V14.00,2013-04-26 13:38:00,
2013-04-26 08:39:00,52.2,45.6,30.23,SE,134,11.0,13.0,78,0.00,,---,0.20,VWS V14.00,2013-04-26 13:39:00,
2013-04-26 08:40:00,52.3,45.3,30.23,East,97,8.0,8.0,77,0.00,,---,0.20,VWS V14.00,2013-04-26 13:40:00,
2013-04-26 08:41:00,52.2,45.2,30.23,East,101,5.0,13.0,77,0.00,,---,0.20,VWS V14.00,2013-04-26 13:41:00,
2013-04-26 08:42:00,52.2,45.2,30.23,ESE,105,3.0,9.0,77,0.00,,---,0.20,VWS V14.00,2013-04-26 13:42:00,
2013-04-26 08:43:00,52.3,45.3,30.23,East,97,6.0,9.0,77,0.00,,---,0.20,VWS V14.00,2013-04-26 13:43:00,
2013-04-26 08:44:00,52.3,45.3,30.23,East,97,5.0,9.0,77,0.00,,---,0.20,VWS V14.00,2013-04-26 13:44:00,
2013-04-26 08:45:00,52.3,45.3,30.24,SE,130,6.0,9.0,77,0.00,,---,0.20,VWS V14.00,2013-04-26 13:45:00,
2013-04-26 08:46:00,52.3,45.3,30.23,SE,127,8.0,10.0,77,0.00,,---,0.20,VWS V14.00,2013-04-26 13:46:00,
2013-04-26 08:47:00,52.3,45.3,30.24,SE,128,3.0,9.0,77,0.00,,---,0.20,VWS V14.00,2013-04-26 13:47:00,
2013-04-26 08:48:00,52.3,45.3,30.24,SE,130,2.0,9.0,77,0.00,,---,0.20,VWS V14.00,2013-04-26 13:48:00,
2013-04-26 08:49:00,52.3,45.3,30.24,SE,130,5.0,7.0,77,0.00,,---,0.20,VWS V14.00,2013-04-26 13:49:00,
2013-04-26 08:50:00,52.5,45.2,30.25,NNE,13,6.0,9.0,76,0.00,,---,0.20,VWS V14.00,2013-04-26 13:50:00,
2013-04-26 08:51:00,52.3,45.3,30.24,SE,130,3.0,3.0,77,0.00,,---,0.20,VWS V14.00,2013-04-26 13:51:00,
2013-04-26 08:52:00,52.5,45.5,30.25,NE,40,9.0,9.0,77,0.00,,---,0.20,VWS V14.00,2013-04-26 13:52:00,
2013-04-26 08:53:00,52.5,45.2,30.25,NNE,13,4.0,9.0,76,0.00,,---,0.20,VWS V14.00,2013-04-26 13:53:00,
2013-04-26 08:54:00,52.5,45.2,30.25,NNE,13,6.0,8.0,76,0.00,,---,0.20,VWS V14.00,2013-04-26 13:54:00,
2013-04-26 08:55:00,52.3,45.0,30.25,North,360,6.0,10.0,76,0.00,,---,0.20,VWS V14.00,2013-04-26 13:55:00,
2013-04-26 08:56:00,52.5,45.2,30.25,North,10,6.0,10.0,76,0.00,,---,0.20,VWS V14.00,2013-04-26 13:56:00,
2013-04-26 08:57:00,52.3,45.0,30.25,North,9,7.0,9.0,76,0.00,,---,0.20,VWS V14.00,2013-04-26 13:57:00,
2013-04-26 08:58:00,52.3,45.0,30.25,NNW,337,6.0,10.0,76,0.00,,---,0.20,VWS V14.00,2013-04-26 13:58:00,
2013-04-26 08:59:00,52.3,45.0,30.25,NNW,336,9.0,10.0,76,0.00,,---,0.20,VWS V14.00,2013-04-26 13:59:00,
2013-04-26 09:00:00,52.3,45.3,30.26,NNW,337,10.0,10.0,77,0.00,,---,0.20,VWS V14.00,2013-04-26 14:00:00,
2013-04-26 09:01:00,52.3,45.0,30.26,NNW,337,3.0,10.0,76,0.00,,---,0.20,VWS V14.00,2013-04-26 14:01:00,
2013-04-26 09:02:00,52.3,45.3,30.26,NNW,337,3.0,9.0,77,0.00,,---,0.20,VWS V14.00,2013-04-26 14:02:00,
2013-04-26 09:03:00,52.3,45.3,30.26,NNW,337,6.0,10.0,77,0.00,,---,0.20,VWS V14.00,2013-04-26 14:03:00,
2013-04-26 09:04:00,52.3,45.3,30.26,NNW,336,3.0,9.0,77,0.00,,---,0.20,VWS V14.00,2013-04-26 14:04:00,
2013-04-26 09:05:00,52.3,45.3,30.26,North,355,5.0,9.0,77,0.00,,---,0.20,VWS V14.00,2013-04-26 14:05:00,
2013-04-26 09:06:00,52.3,45.3,30.26,North,355,12.0,12.0,77,0.00,,---,0.20,VWS V14.00,2013-04-26 14:06:00,
2013-04-26 09:07:00,52.3,45.3,30.26,North,355,6.0,12.0,77,0.00,,---,0.20,VWS V14.00,2013-04-26 14:07:00,
2013-04-26 09:08:00,52.3,45.3,30.26,North,355,6.0,9.0,77,0.00,,---,0.20,VWS V14.00,2013-04-26 14:08:00,
2013-04-26 09:09:00,52.3,45.3,30.26,North,355,0.0,8.0,77,0.00,,---,0.20,VWS V14.00,2013-04-26 14:09:00,
2013-04-26 09:10:00,52.2,45.2,30.26,NNE,19,5.0,6.0,77,0.00,,---,0.20,VWS V14.00,2013-04-26 14:10:00,
2013-04-26 09:11:00,52.2,45.2,30.26,NNE,32,4.0,10.0,77,0.00,,---,0.20,VWS V14.00,2013-04-26 14:11:00,
2013-04-26 09:12:00,52.2,45.2,30.26,NNE,19,1.0,6.0,77,0.00,,---,0.20,VWS V14.00,2013-04-26 14:12:00,
2013-04-26 09:13:00,52.2,45.2,30.26,NNE,23,3.0,10.0,77,0.00,,---,0.20,VWS V14.00,2013-04-26 14:13:00,
2013-04-26 09:14:00,52.2,45.2,30.26,NNE,23,0.0,5.0,77,0.00,,---,0.20,VWS V14.00,2013-04-26 14:14:00,
2013-04-26 09:15:00,51.9,44.9,30.26,NNE,20,4.0,7.0,77,0.00,,---,0.20,VWS V14.00,2013-04-26 14:15:00,
2013-04-26 09:16:00,52.0,45.0,30.26,NNE,19,6.0,15.0,77,0.00,,---,0.20,VWS V14.00,2013-04-26 14:16:00,
2013-04-26 09:17:00,52.0,45.0,30.26,NNE,19,7.0,10.0,77,0.00,,---,0.20,VWS V14.00,2013-04-26 14:17:00,
2013-04-26 09:18:00,51.9,44.9,30.26,NNE,20,2.0,7.0,77,0.00,,---,0.20,VWS V14.00,2013-04-26 14:18:00,
2013-04-26 09:19:00,51.9,44.9,30.26,NNE,19,0.0,3.0,77,0.00,,---,0.20,VWS V14.00,2013-04-26 14:19:00,
2013-04-26 09:20:00,51.7,45.1,30.27,NNE,19,0.0,3.0,78,0.00,,---,0.20,VWS V14.00,2013-04-26 14:20:00,
2013-04-26 09:21:00,51.9,45.3,30.26,NNE,19,0.0,3.0,78,0.00,,---,0.20,VWS V14.00,2013-04-26 14:21:00,
2013-04-26 09:22:00,51.9,44.9,30.27,NNE,19,2.0,2.0,77,0.00,,---,0.20,VWS V14.00,2013-04-26 14:22:00,
2013-04-26 09:23:00,51.7,45.1,30.28,NNE,19,0.0,3.0,78,0.00,,---,0.20,VWS V14.00,2013-04-26 14:23:00,
2013-04-26 09:24:00,51.7,45.1,30.28,North,5,5.0,6.0,78,0.00,,---,0.20,VWS V14.00,2013-04-26 14:24:00,
2013-04-26 09:25:00,51.7,45.1,30.29,NNW,338,0.0,0.0,78,0.00,,---,0.20,VWS V14.00,2013-04-26 14:25:00,
2013-04-26 09:26:00,51.7,45.1,30.29,NNW,338,0.0,2.0,78,0.00,,---,0.20,VWS V14.00,2013-04-26 14:26:00,
2013-04-26 09:27:00,51.7,45.1,30.29,NNW,338,0.0,0.0,78,0.00,,---,0.20,VWS V14.00,2013-04-26 14:27:00,
2013-04-26 09:28:00,51.7,45.1,30.29,NNW,338,2.0,2.0,78,0.00,,---,0.20,VWS V14.00,2013-04-26 14:28:00,
2013-04-26 09:29:00,51.7,45.1,30.30,NNW,338,1.0,4.0,78,0.00,,---,0.20,VWS V14.00,2013-04-26 14:29:00,
2013-04-26 09:30:00,51.7,45.4,30.31,NNW,339,3.0,3.0,79,0.01,,---,0.21,VWS V14.00,2013-04-26 14:30:00,
2013-04-26 09:31:00,51.7,45.1,30.31,NNW,338,0.0,0.0,78,0.00,,---,0.20,VWS V14.00,2013-04-26 14:31:00,
2013-04-26 09:32:00,51.7,45.4,30.31,NNW,338,0.0,0.0,79,0.01,,---,0.21,VWS V14.00,2013-04-26 14:32:00,
2013-04-26 09:33:00,51.7,45.4,30.30,NNW,339,0.0,3.0,79,0.02,,---,0.22,VWS V14.00,2013-04-26 14:33:00,
2013-04-26 09:34:00,51.7,45.4,30.30,NNW,339,0.0,2.0,79,0.02,,---,0.22,VWS V14.00,2013-04-26 14:34:00,
2013-04-26 09:35:00,51.4,45.1,30.30,NNW,347,1.0,2.0,79,0.07,,---,0.27,VWS V14.00,2013-04-26 14:35:00,
2013-04-26 09:36:00,51.6,45.3,30.29,NNW,347,1.0,5.0,79,0.06,,---,0.26,VWS V14.00,2013-04-26 14:36:00,
2013-04-26 09:37:00,51.6,45.3,30.30,NNW,347,0.0,2.0,79,0.07,,---,0.27,VWS V14.00,2013-04-26 14:37:00,
2013-04-26 09:38:00,51.4,45.1,30.30,NNW,347,2.0,5.0,79,0.08,,---,0.28,VWS V14.00,2013-04-26 14:38:00,
2013-04-26 09:39:00,51.4,45.1,30.29,NNW,347,4.0,5.0,79,0.08,,---,0.28,VWS V14.00,2013-04-26 14:39:00,
2013-04-26 09:40:00,51.0,45.4,30.27,SSE,154,11.0,12.0,81,0.10,,---,0.30,VWS V14.00,2013-04-26 14:40:00,
2013-04-26 09:41:00,51.1,45.2,30.28,North,11,7.0,7.0,80,0.09,,---,0.29,VWS V14.00,2013-04-26 14:41:00,
2013-04-26 09:42:00,51.0,45.4,30.27,SSE,147,10.0,11.0,81,0.10,,---,0.30,VWS V14.00,2013-04-26 14:42:00,
2013-04-26 09:43:00,50.8,45.2,30.28,SSE,156,11.0,12.0,81,0.10,,---,0.30,VWS V14.00,2013-04-26 14:43:00,
2013-04-26 09:44:00,50.7,45.4,30.28,SE,142,11.0,13.0,82,0.10,,---,0.30,VWS V14.00,2013-04-26 14:44:00,
2013-04-26 09:45:00,50.5,45.5,30.28,SE,141,2.0,5.0,83,0.12,,---,0.32,VWS V14.00,2013-04-26 14:45:00,
2013-04-26 09:46:00,50.5,45.2,30.28,SE,142,11.0,11.0,82,0.12,,---,0.32,VWS V14.00,2013-04-26 14:46:00,
2013-04-26 09:47:00,50.5,45.5,30.28,SE,141,5.0,11.0,83,0.12,,---,0.32,VWS V14.00,2013-04-26 14:47:00,
2013-04-26 09:48:00,50.5,45.5,30.28,SE,141,5.0,5.0,83,0.12,,---,0.32,VWS V14.00,2013-04-26 14:48:00,
2013-04-26 09:49:00,50.4,45.4,30.28,SE,141,5.0,6.0,83,0.12,,---,0.32,VWS V14.00,2013-04-26 14:49:00,
2013-04-26 09:50:00,50.4,45.4,30.30,SE,141,0.0,0.0,83,0.12,,---,0.32,VWS V14.00,2013-04-26 14:50:00,
2013-04-26 09:51:00,50.4,45.4,30.29,SE,141,0.0,7.0,83,0.12,,---,0.32,VWS V14.00,2013-04-26 14:51:00,
2013-04-26 09:52:00,50.4,45.4,30.30,SE,141,0.0,0.0,83,0.12,,---,0.32,VWS V14.00,2013-04-26 14:52:00,
2013-04-26 09:53:00,50.4,45.4,30.30,SSE,159,4.0,6.0,83,0.12,,---,0.32,VWS V14.00,2013-04-26 14:53:00,
2013-04-26 09:54:00,50.4,45.4,30.31,SSE,163,3.0,5.0,83,0.12,,---,0.32,VWS V14.00,2013-04-26 14:54:00,
2013-04-26 09:55:00,50.4,45.4,30.31,South,169,0.0,0.0,83,0.12,,---,0.32,VWS V14.00,2013-04-26 14:55:00,
2013-04-26 09:56:00,50.4,45.4,30.31,South,169,0.0,3.0,83,0.12,,---,0.32,VWS V14.00,2013-04-26 14:56:00,
2013-04-26 09:57:00,50.4,45.4,30.31,South,169,0.0,0.0,83,0.12,,---,0.32,VWS V14.00,2013-04-26 14:57:00,
2013-04-26 09:58:00,50.4,45.4,30.31,South,169,0.0,0.0,83,0.12,,---,0.32,VWS V14.00,2013-04-26 14:58:00,
2013-04-26 09:59:00,50.4,45.8,30.30,South,169,0.0,0.0,84,0.12,,---,0.32,VWS V14.00,2013-04-26 14:59:00,
2013-04-26 10:00:00,50.2,45.6,30.28,South,169,0.0,0.0,84,0.13,,---,0.33,VWS V14.00,2013-04-26 15:00:00,
2013-04-26 10:01:00,50.4,45.8,30.29,South,169,0.0,0.0,84,0.13,,---,0.33,VWS V14.00,2013-04-26 15:01:00,
2013-04-26 10:02:00,50.2,45.6,30.28,South,169,0.0,0.0,84,0.13,,---,0.33,VWS V14.00,2013-04-26 15:02:00,
2013-04-26 10:03:00,50.2,45.6,30.28,South,169,1.0,1.0,84,0.13,,---,0.33,VWS V14.00,2013-04-26 15:03:00,
2013-04-26 10:04:00,50.2,45.6,30.28,SSE,167,6.0,10.0,84,0.13,,---,0.33,VWS V14.00,2013-04-26 15:04:00,
2013-04-26 10:05:00,50.1,45.8,30.29,SSE,166,6.0,8.0,85,0.13,,---,0.33,VWS V14.00,2013-04-26 15:05:00,
2013-04-26 10:06:00,50.1,45.8,30.28,SSE,166,7.0,7.0,85,0.13,,---,0.33,VWS V14.00,2013-04-26 15:06:00,
2013-04-26 10:07:00,50.1,45.8,30.29,SSE,166,3.0,7.0,85,0.13,,---,0.33,VWS V14.00,2013-04-26 15:07:00,
2013-04-26 10:08:00,50.1,45.8,30.29,SSE,161,5.0,11.0,85,0.13,,---,0.33,VWS V14.00,2013-04-26 15:08:00,
2013-04-26 10:09:00,50.1,45.8,30.29,SSE,161,5.0,7.0,85,0.13,,---,0.33,VWS V14.00,2013-04-26 15:09:00,
2013-04-26 10:10:00,50.1,45.8,30.28,SSE,152,0.0,5.0,85,0.14,,---,0.34,VWS V14.00,2013-04-26 15:10:00,
2013-04-26 10:11:00,50.1,45.8,30.29,SSE,151,4.0,5.0,85,0.14,,---,0.34,VWS V14.00,2013-04-26 15:11:00,
2013-04-26 10:12:00,50.1,45.8,30.28,SSE,151,2.0,5.0,85,0.14,,---,0.34,VWS V14.00,2013-04-26 15:12:00,
2013-04-26 10:13:00,50.1,46.1,30.28,SSE,151,8.0,8.0,86,0.14,,---,0.34,VWS V14.00,2013-04-26 15:13:00,
2013-04-26 10:14:00,50.1,46.1,30.29,SSE,148,1.0,10.0,86,0.14,,---,0.34,VWS V14.00,2013-04-26 15:14:00,
2013-04-26 10:15:00,49.9,45.9,30.32,SSE,148,0.0,0.0,86,0.14,,---,0.34,VWS V14.00,2013-04-26 15:15:00,
2013-04-26 10:16:00,49.9,45.9,30.31,SSE,148,0.0,10.0,86,0.14,,---,0.34,VWS V14.00,2013-04-26 15:16:00,
2013-04-26 10:17:00,49.9,45.9,30.32,SSE,148,0.0,1.0,86,0.14,,---,0.34,VWS V14.00,2013-04-26 15:17:00,
2013-04-26 10:18:00,49.9,45.6,30.33,SSE,148,0.0,0.0,85,0.14,,---,0.34,VWS V14.00,2013-04-26 15:18:00,
2013-04-26 10:19:00,49.9,45.6,30.33,SSE,148,0.0,0.0,85,0.14,,---,0.34,VWS V14.00,2013-04-26 15:19:00,
2013-04-26 10:20:00,50.1,46.1,30.32,SE,146,3.0,8.0,86,0.16,,---,0.36,VWS V14.00,2013-04-26 15:20:00,
2013-04-26 10:21:00,50.1,46.1,30.32,SSE,148,0.0,0.0,86,0.14,,---,0.34,VWS V14.00,2013-04-26 15:21:00,
2013-04-26 10:22:00,50.1,46.1,30.32,SSE,147,7.0,7.0,86,0.15,,---,0.35,VWS V14.00,2013-04-26 15:22:00,
2013-04-26 10:23:00,50.1,46.1,30.32,SE,146,5.0,8.0,86,0.16,,---,0.36,VWS V14.00,2013-04-26 15:23:00,
2013-04-26 10:24:00,50.1,46.1,30.32,SE,145,6.0,9.0,86,0.18,,---,0.38,VWS V14.00,2013-04-26 15:24:00,
2013-04-26 10:25:00,50.1,46.1,30.31,SE,143,5.0,5.0,86,0.21,,---,0.41,VWS V14.00,2013-04-26 15:25:00,
2013-04-26 10:26:00,50.2,46.2,30.31,SE,144,6.0,11.0,86,0.20,,---,0.40,VWS V14.00,2013-04-26 15:26:00,
2013-04-26 10:27:00,50.1,46.1,30.31,SE,144,3.0,6.0,86,0.20,,---,0.40,VWS V14.00,2013-04-26 15:27:00,
2013-04-26 10:28:00,50.1,46.1,30.30,SE,143,7.0,7.0,86,0.21,,---,0.41,VWS V14.00,2013-04-26 15:28:00,
2013-04-26 10:29:00,49.9,45.9,30.30,SE,132,5.0,11.0,86,0.22,,---,0.42,VWS V14.00,2013-04-26 15:29:00,
2013-04-26 10:30:00,49.8,45.8,30.31,SE,138,3.0,4.0,86,0.21,,---,0.42,VWS V14.00,2013-04-26 15:30:00,
2013-04-26 10:31:00,49.9,45.9,30.30,SE,132,4.0,8.0,86,0.22,,---,0.42,VWS V14.00,2013-04-26 15:31:00,
2013-04-26 10:32:00,49.8,45.8,30.31,SE,137,3.0,9.0,86,0.22,,---,0.42,VWS V14.00,2013-04-26 15:32:00,
2013-04-26 10:33:00,49.8,45.8,30.32,SE,138,0.0,4.0,86,0.22,,---,0.43,VWS V14.00,2013-04-26 15:33:00,
2013-04-26 10:34:00,49.6,45.6,30.32,SE,138,0.0,0.0,86,0.21,,---,0.43,VWS V14.00,2013-04-26 15:34:00,
2013-04-26 10:35:00,49.6,45.9,30.32,SE,137,1.0,2.0,87,0.16,,---,0.43,VWS V14.00,2013-04-26 15:35:00,
2013-04-26 10:36:00,49.6,45.6,30.32,SE,138,1.0,1.0,86,0.19,,---,0.43,VWS V14.00,2013-04-26 15:36:00,
2013-04-26 10:37:00,49.6,45.9,30.32,SE,137,2.0,5.0,87,0.17,,---,0.43,VWS V14.00,2013-04-26 15:37:00,
2013-04-26 10:38:00,49.6,45.9,30.32,SE,137,3.0,4.0,87,0.16,,---,0.43,VWS V14.00,2013-04-26 15:38:00,
2013-04-26 10:39:00,49.6,45.6,30.31,SE,137,3.0,5.0,86,0.15,,---,0.43,VWS V14.00,2013-04-26 15:39:00,
2013-04-26 10:40:00,49.5,45.8,30.31,SE,137,0.0,5.0,87,0.13,,---,0.43,VWS V14.00,2013-04-26 15:40:00,
2013-04-26 10:41:00,49.6,45.9,30.31,SE,137,2.0,2.0,87,0.15,,---,0.43,VWS V14.00,2013-04-26 15:41:00,
2013-04-26 10:42:00,49.5,45.8,30.31,SE,137,5.0,7.0,87,0.14,,---,0.43,VWS V14.00,2013-04-26 15:42:00,
2013-04-26 10:43:00,49.5,45.8,30.32,SE,137,4.0,5.0,87,0.13,,---,0.43,VWS V14.00,2013-04-26 15:43:00,
2013-04-26 10:44:00,49.5,45.8,30.33,SSE,150,9.0,12.0,87,0.13,,---,0.43,VWS V14.00,2013-04-26 15:44:00,
2013-04-26 10:45:00,49.5,46.1,30.30,SE,125,13.0,13.0,88,0.14,,---,0.46,VWS V14.00,2013-04-26 15:45:00,
2013-04-26 10:46:00,49.4,45.7,30.31,SSE,151,6.0,12.0,87,0.14,,---,0.45,VWS V14.00,2013-04-26 15:46:00,
2013-04-26 10:47:00,49.5,46.1,30.30,ESE,118,12.0,16.0,88,0.13,,---,0.45,VWS V14.00,2013-04-26 15:47:00,
2013-04-26 10:48:00,49.4,45.7,30.30,ESE,122,7.0,13.0,87,0.14,,---,0.46,VWS V14.00,2013-04-26 15:48:00,
2013-04-26 10:49:00,49.4,45.7,30.30,SE,142,12.0,14.0,87,0.15,,---,0.47,VWS V14.00,2013-04-26 15:49:00,
2013-04-26 10:50:00,49.5,46.1,30.31,East,81,9.0,14.0,88,0.17,,---,0.49,VWS V14.00,2013-04-26 15:50:00,
2013-04-26 10:51:00,49.4,46.0,30.32,SSE,154,6.0,10.0,88,0.16,,---,0.48,VWS V14.00,2013-04-26 15:51:00,
2013-04-26 10:52:00,49.4,46.0,30.31,SSE,154,7.0,7.0,88,0.17,,---,0.49,VWS V14.00,2013-04-26 15:52:00,
2013-04-26 10:53:00,49.4,46.0,30.30,SE,130,10.0,14.0,88,0.17,,---,0.49,VWS V14.00,2013-04-26 15:53:00,
2013-04-26 10:54:00,49.2,45.8,30.30,SE,138,6.0,13.0,88,0.18,,---,0.50,VWS V14.00,2013-04-26 15:54:00,
2013-04-26 10:55:00,49.1,45.7,30.29,SE,137,10.0,11.0,88,0.19,,---,0.51,VWS V14.00,2013-04-26 15:55:00,
2013-04-26 10:56:00,49.1,45.7,30.30,SE,144,5.0,10.0,88,0.18,,---,0.50,VWS V14.00,2013-04-26 15:56:00,
2013-04-26 10:57:00,49.1,45.7,30.29,SE,144,9.0,9.0,88,0.18,,---,0.50,VWS V14.00,2013-04-26 15:57:00,
2013-04-26 10:58:00,49.1,45.7,30.29,SE,138,6.0,19.0,88,0.19,,---,0.51,VWS V14.00,2013-04-26 15:58:00,
2013-04-26 10:59:00,48.9,45.5,30.28,ESE,105,12.0,19.0,88,0.19,,---,0.51,VWS V14.00,2013-04-26 15:59:00,
2013-04-26 11:00:00,48.9,45.5,30.29,SE,146,12.0,15.0,88,0.18,,---,0.51,VWS V14.00,2013-04-26 16:00:00,
2013-04-26 11:01:00,48.9,45.5,30.28,SE,138,5.0,13.0,88,0.19,,---,0.51,VWS V14.00,2013-04-26 16:01:00,
2013-04-26 11:02:00,48.9,45.5,30.29,SSE,153,12.0,14.0,88,0.18,,---,0.51,VWS V14.00,2013-04-26 16:02:00,
2013-04-26 11:03:00,48.9,45.5,30.29,SE,141,9.0,15.0,88,0.18,,---,0.51,VWS V14.00,2013-04-26 16:03:00,
2013-04-26 11:04:00,48.9,45.5,30.28,SE,126,11.0,15.0,88,0.18,,---,0.51,VWS V14.00,2013-04-26 16:04:00,
2013-04-26 11:05:00,48.9,45.8,30.28,SE,138,11.0,15.0,89,0.18,,---,0.51,VWS V14.00,2013-04-26 16:05:00,
2013-04-26 11:06:00,49.1,46.0,30.28,SE,140,10.0,18.0,89,0.18,,---,0.51,VWS V14.00,2013-04-26 16:06:00,
2013-04-26 11:07:00,48.9,45.5,30.28,SE,141,10.0,14.0,88,0.18,,---,0.51,VWS V14.00,2013-04-26 16:07:00,
2013-04-26 11:08:00,48.9,45.8,30.28,SE,139,7.0,15.0,89,0.18,,---,0.51,VWS V14.00,2013-04-26 16:08:00,
2013-04-26 11:09:00,48.9,45.5,30.28,SE,139,4.0,11.0,88,0.18,,---,0.51,VWS V14.00,2013-04-26 16:09:00,
2013-04-26 11:10:00,48.9,45.5,30.33,SSE,147,0.0,0.0,88,0.17,,---,0.51,VWS V14.00,2013-04-26 16:10:00,
2013-04-26 11:11:00,48.9,45.5,30.31,SSE,147,2.0,11.0,88,0.17,,---,0.51,VWS V14.00,2013-04-26 16:11:00,
2013-04-26 11:12:00,48.9,45.5,30.33,SSE,147,0.0,2.0,88,0.17,,---,0.51,VWS V14.00,2013-04-26 16:12:00,
2013-04-26 11:13:00,48.9,45.5,30.34,SSE,155,5.0,5.0,88,0.17,,---,0.51,VWS V14.00,2013-04-26 16:13:00,
2013-04-26 11:14:00,48.9,45.5,30.36,WNW,283,9.0,9.0,88,0.17,,---,0.51,VWS V14.00,2013-04-26 16:14:00,
2013-04-26 11:15:00,49.1,46.0,30.37,NNW,329,9.0,14.0,89,0.19,,---,0.53,VWS V14.00,2013-04-26 16:15:00,
2013-04-26 11:16:00,48.9,45.5,30.37,NNW,327,15.0,17.0,88,0.17,,---,0.51,VWS V14.00,2013-04-26 16:16:00,
2013-04-26 11:17:00,48.9,45.8,30.37,NNW,327,14.0,15.0,89,0.19,,---,0.53,VWS V14.00,2013-04-26 16:17:00,
2013-04-26 11:18:00,49.1,46.0,30.36,NNW,340,10.0,14.0,89,0.20,,---,0.54,VWS V14.00,2013-04-26 16:18:00,
2013-04-26 11:19:00,49.1,45.7,30.36,NNW,340,4.0,10.0,88,0.21,,---,0.55,VWS V14.00,2013-04-26 16:19:00,
2013-04-26 11:20:00,49.1,45.7,30.36,NNE,22,4.0,6.0,88,0.20,,---,0.55,VWS V14.00,2013-04-26 16:20:00,
2013-04-26 11:21:00,49.1,46.0,30.36,NNW,340,0.0,3.0,89,0.21,,---,0.55,VWS V14.00,2013-04-26 16:21:00,
2013-04-26 11:22:00,49.1,45.7,30.36,NNE,20,4.0,4.0,88,0.21,,---,0.55,VWS V14.00,2013-04-26 16:22:00,
2013-04-26 11:23:00,49.1,45.7,30.36,NE,44,2.0,6.0,88,0.20,,---,0.55,VWS V14.00,2013-04-26 16:23:00,
2013-04-26 11:24:00,48.9,45.5,30.36,NE,44,6.0,7.0,88,0.20,,---,0.56,VWS V14.00,2013-04-26 16:24:00,
2013-04-26 11:25:00,48.9,45.5,30.36,NE,44,1.0,7.0,88,0.18,,---,0.58,VWS V14.00,2013-04-26 16:25:00,
2013-04-26 11:26:00,48.9,45.5,30.36,NE,44,0.0,6.0,88,0.19,,---,0.57,VWS V14.00,2013-04-26 16:26:00,
2013-04-26 11:27:00,48.9,45.5,30.36,NE,44,6.0,7.0,88,0.17,,---,0.57,VWS V14.00,2013-04-26 16:27:00,
2013-04-26 11:28:00,48.9,45.5,30.35,NE,44,3.0,7.0,88,0.18,,---,0.58,VWS V14.00,2013-04-26 16:28:00,
2013-04-26 11:29:00,48.9,45.5,30.35,NE,51,1.0,11.0,88,0.17,,---,0.58,VWS V14.00,2013-04-26 16:29:00,
2013-04-26 11:30:00,48.8,45.4,30.35,NNE,29,3.0,6.0,88,0.17,,---,0.59,VWS V14.00,2013-04-26 16:30:00,
2013-04-26 11:31:00,48.8,45.4,30.35,NNE,29,0.0,6.0,88,0.17,,---,0.59,VWS V14.00,2013-04-26 16:31:00,
2013-04-26 11:32:00,48.8,45.4,30.35,NNE,29,5.0,5.0,88,0.17,,---,0.59,VWS V14.00,2013-04-26 16:32:00,
2013-04-26 11:33:00,48.8,45.4,30.36,NNE,29,6.0,10.0,88,0.17,,---,0.59,VWS V14.00,2013-04-26 16:33:00,
2013-04-26 11:34:00,48.8,45.7,30.36,North,9,0.0,11.0,89,0.16,,---,0.59,VWS V14.00,2013-04-26 16:34:00,
2013-04-26 11:35:00,48.6,45.2,30.36,North,9,3.0,9.0,88,0.16,,---,0.59,VWS V14.00,2013-04-26 16:35:00,
2013-04-26 11:36:00,48.8,45.7,30.36,North,9,6.0,6.0,89,0.16,,---,0.59,VWS V14.00,2013-04-26 16:36:00,
2013-04-26 11:37:00,48.6,45.5,30.36,North,5,7.0,9.0,89,0.16,,---,0.59,VWS V14.00,2013-04-26 16:37:00,
2013-04-26 11:38:00,48.6,45.2,30.36,North,9,3.0,9.0,88,0.16,,---,0.59,VWS V14.00,2013-04-26 16:38:00,
2013-04-26 11:39:00,48.6,45.5,30.36,North,5,0.0,5.0,89,0.16,,---,0.59,VWS V14.00,2013-04-26 16:39:00,
2013-04-26 11:40:00,48.6,45.2,30.34,North,5,0.0,3.0,88,0.16,,---,0.59,VWS V14.00,2013-04-26 16:40:00,
2013-04-26 11:41:00,48.6,45.5,30.35,North,5,1.0,2.0,89,0.16,,---,0.59,VWS V14.00,2013-04-26 16:41:00,
2013-04-26 11:42:00,48.6,45.5,30.34,North,5,3.0,4.0,89,0.16,,---,0.59,VWS V14.00,2013-04-26 16:42:00,
2013-04-26 11:43:00,48.6,45.2,30.33,North,9,2.0,5.0,88,0.16,,---,0.59,VWS V14.00,2013-04-26 16:43:00,
2013-04-26 11:44:00,48.6,45.5,30.33,SSE,150,6.0,14.0,89,0.16,,---,0.59,VWS V14.00,2013-04-26 16:44:00,
2013-04-26 11:45:00,48.6,45.5,30.32,SE,125,3.0,6.0,89,0.15,,---,0.60,VWS V14.00,2013-04-26 16:45:00,
2013-04-26 11:46:00,48.6,45.5,30.32,SE,138,2.0,12.0,89,0.17,,---,0.60,VWS V14.00,2013-04-26 16:46:00,
2013-04-26 11:47:00,48.6,45.5,30.32,SE,138,6.0,6.0,89,0.15,,---,0.60,VWS V14.00,2013-04-26 16:47:00,
2013-04-26 11:48:00,48.8,45.7,30.32,SE,125,0.0,6.0,89,0.15,,---,0.60,VWS V14.00,2013-04-26 16:48:00,
2013-04-26 11:49:00,48.8,45.7,30.32,SE,125,0.0,2.0,89,0.14,,---,0.60,VWS V14.00,2013-04-26 16:49:00,
2013-04-26 11:50:00,48.8,45.7,30.33,North,360,5.0,6.0,89,0.11,,---,0.60,VWS V14.00,2013-04-26 16:50:00,
2013-04-26 11:51:00,48.8,46.0,30.32,North,355,7.0,10.0,90,0.12,,---,0.60,VWS V14.00,2013-04-26 16:51:00,
2013-04-26 11:52:00,48.8,45.7,30.33,North,355,4.0,7.0,89,0.12,,---,0.60,VWS V14.00,2013-04-26 16:52:00,
2013-04-26 11:53:00,48.8,45.7,30.33,North,5,0.0,6.0,89,0.11,,---,0.60,VWS V14.00,2013-04-26 16:53:00,
2013-04-26 11:54:00,48.8,45.7,30.33,North,11,4.0,6.0,89,0.11,,---,0.60,VWS V14.00,2013-04-26 16:54:00,
2013-04-26 11:55:00,48.9,45.8,30.33,North,11,3.0,3.0,89,0.10,,---,0.60,VWS V14.00,2013-04-26 16:55:00,
2013-04-26 11:56:00,48.8,45.7,30.33,North,11,1.0,3.0,89,0.10,,---,0.60,VWS V14.00,2013-04-26 16:56:00,
2013-04-26 11:57:00,48.9,45.8,30.33,North,11,0.0,3.0,89,0.10,,---,0.60,VWS V14.00,2013-04-26 16:57:00,
2013-04-26 11:58:00,48.9,45.8,30.33,North,11,0.0,3.0,89,0.10,,---,0.60,VWS V14.00,2013-04-26 16:58:00,
2013-04-26 11:59:00,48.9,45.8,30.32,North,11,2.0,4.0,89,0.09,,---,0.60,VWS V14.00,2013-04-26 16:59:00,
2013-04-26 12:00:00,48.9,45.8,30.32,SE,143,5.0,6.0,89,0.09,,---,0.60,VWS V14.00,2013-04-26 17:00:00,
2013-04-26 12:01:00,48.9,45.8,30.32,ESE,112,0.0,12.0,89,0.09,,---,0.60,VWS V14.00,2013-04-26 17:01:00,
2013-04-26 12:02:00,48.9,45.5,30.32,SE,143,5.0,11.0,88,0.09,,---,0.60,VWS V14.00,2013-04-26 17:02:00,
2013-04-26 12:03:00,48.9,45.8,30.32,SSE,160,11.0,14.0,89,0.09,,---,0.60,VWS V14.00,2013-04-26 17:03:00,
2013-04-26 12:04:00,48.8,45.4,30.32,SSE,147,9.0,11.0,88,0.09,,---,0.60,VWS V14.00,2013-04-26 17:04:00,
2013-04-26 12:05:00,48.9,45.5,30.32,SE,141,7.0,11.0,88,0.09,,---,0.60,VWS V14.00,2013-04-26 17:05:00,
2013-04-26 12:06:00,48.9,45.8,30.32,ESE,119,12.0,15.0,89,0.09,,---,0.60,VWS V14.00,2013-04-26 17:06:00,
2013-04-26 12:07:00,48.9,45.8,30.32,SE,133,5.0,12.0,89,0.09,,---,0.60,VWS V14.00,2013-04-26 17:07:00,
2013-04-26 12:08:00,48.9,45.5,30.32,SE,136,16.0,18.0,88,0.09,,---,0.60,VWS V14.00,2013-04-26 17:08:00,
2013-04-26 12:09:00,48.8,45.4,30.31,ESE,112,14.0,18.0,88,0.09,,---,0.60,VWS V14.00,2013-04-26 17:09:00,
2013-04-26 12:10:00,49.1,46.0,30.30,SSE,153,15.0,15.0,89,0.09,,---,0.60,VWS V14.00,2013-04-26 17:10:00,
2013-04-26 12:11:00,48.9,45.8,30.31,SSE,153,11.0,13.0,89,0.09,,---,0.60,VWS V14.00,2013-04-26 17:11:00,
2013-04-26 12:12:00,49.1,46.0,30.30,SSE,148,14.0,19.0,89,0.09,,---,0.60,VWS V14.00,2013-04-26 17:12:00,
2013-04-26 12:13:00,49.1,46.0,30.30,SE,135,5.0,17.0,89,0.09,,---,0.60,VWS V14.00,2013-04-26 17:13:00,
2013-04-26 12:14:00,49.1,45.7,30.30,SE,133,6.0,11.0,88,0.09,,---,0.60,VWS V14.00,2013-04-26 17:14:00,
2013-04-26 12:15:00,49.2,45.8,30.30,SE,125,10.0,14.0,88,0.07,,---,0.60,VWS V14.00,2013-04-26 17:15:00,
2013-04-26 12:16:00,49.1,45.7,30.30,SE,129,3.0,18.0,88,0.09,,---,0.60,VWS V14.00,2013-04-26 17:16:00,
2013-04-26 12:17:00,49.2,45.8,30.30,SE,139,14.0,14.0,88,0.09,,---,0.60,VWS V14.00,2013-04-26 17:17:00,
2013-04-26 12:18:00,49.2,45.8,30.31,SE,134,10.0,14.0,88,0.07,,---,0.60,VWS V14.00,2013-04-26 17:18:00,
2013-04-26 12:19:00,49.2,45.8,30.31,SE,125,19.0,19.0,88,0.06,,---,0.60,VWS V14.00,2013-04-26 17:19:00,
2013-04-26 12:20:00,49.2,45.8,30.30,ESE,122,6.0,12.0,88,0.05,,---,0.60,VWS V14.00,2013-04-26 17:20:00,
2013-04-26 12:21:00,49.2,45.8,30.30,ESE,110,5.0,12.0,88,0.05,,---,0.60,VWS V14.00,2013-04-26 17:21:00,
2013-04-26 12:22:00,49.2,45.8,30.30,SE,144,9.0,11.0,88,0.05,,---,0.60,VWS V14.00,2013-04-26 17:22:00,
2013-04-26 12:23:00,49.2,45.8,30.30,SE,140,13.0,14.0,88,0.05,,---,0.60,VWS V14.00,2013-04-26 17:23:00,
2013-04-26 12:24:00,49.2,45.8,30.30,SE,126,10.0,15.0,88,0.05,,---,0.60,VWS V14.00,2013-04-26 17:24:00,
2013-04-26 12:25:00,49.5,46.1,30.29,SE,136,11.0,14.0,88,0.03,,---,0.60,VWS V14.00,2013-04-26 17:25:00,
2013-04-26 12:26:00,49.4,46.0,30.30,SE,132,12.0,15.0,88,0.03,,---,0.60,VWS V14.00,2013-04-26 17:26:00,
2013-04-26 12:27:00,49.4,46.0,30.29,SSE,149,5.0,18.0,88,0.03,,---,0.60,VWS V14.00,2013-04-26 17:27:00,
2013-04-26 12:28:00,49.5,46.1,30.29,SE,140,12.0,14.0,88,0.03,,---,0.60,VWS V14.00,2013-04-26 17:28:00,
2013-04-26 12:29:00,49.5,46.1,30.29,SE,136,15.0,15.0,88,0.02,,---,0.60,VWS V14.00,2013-04-26 17:29:00,
2013-04-26 12:30:00,49.5,45.8,30.30,ESE,104,7.0,13.0,87,0.01,,---,0.60,VWS V14.00,2013-04-26 17:30:00,
2013-04-26 12:31:00,49.5,46.1,30.30,ESE,123,21.0,21.0,88,0.01,,---,0.60,VWS V14.00,2013-04-26 17:31:00,
2013-04-26 12:32:00,49.5,45.8,30.30,ESE,104,5.0,21.0,87,0.01,,---,0.60,VWS V14.00,2013-04-26 17:32:00,
2013-04-26 12:33:00,49.5,45.8,30.30,ESE,104,11.0,13.0,87,0.01,,---,0.60,VWS V14.00,2013-04-26 17:33:00,
2013-04-26 12:34:00,49.5,45.8,30.30,ESE,104,12.0,12.0,87,0.01,,---,0.60,VWS V14.00,2013-04-26 17:34:00,
2013-04-26 12:35:00,49.4,46.0,30.29,SE,138,11.0,15.0,88,0.02,,---,0.61,VWS V14.00,2013-04-26 17:35:00,
2013-04-26 12:36:00,49.4,46.0,30.29,SE,144,12.0,16.0,88,0.01,,---,0.60,VWS V14.00,2013-04-26 17:36:00,
2013-04-26 12:37:00,49.4,46.0,30.29,SE,142,12.0,16.0,88,0.01,,---,0.60,VWS V14.00,2013-04-26 17:37:00,
2013-04-26 12:38:00,49.4,45.7,30.29,SE,134,12.0,15.0,87,0.02,,---,0.61,VWS V14.00,2013-04-26 17:38:00,
2013-04-26 12:39:00,49.4,46.0,30.29,SE,134,7.0,16.0,88,0.02,,---,0.61,VWS V14.00,2013-04-26 17:39:00,
2013-04-26 12:40:00,49.4,46.0,30.29,SE,135,13.0,14.0,88,0.02,,---,0.61,VWS V14.00,2013-04-26 17:40:00,
2013-04-26 12:41:00,49.4,46.0,30.29,ESE,117,11.0,14.0,88,0.02,,---,0.61,VWS V14.00,2013-04-26 17:41:00,
2013-04-26 12:42:00,49.4,46.0,30.29,SE,126,11.0,16.0,88,0.02,,---,0.61,VWS V14.00,2013-04-26 17:42:00,
2013-04-26 12:43:00,49.4,46.0,30.30,SE,138,19.0,23.0,88,0.02,,---,0.61,VWS V14.00,2013-04-26 17:43:00,
2013-04-26 12:44:00,49.4,45.7,30.30,SE,140,14.0,23.0,87,0.02,,---,0.61,VWS V14.00,2013-04-26 17:44:00,
2013-04-26 12:45:00,49.5,46.1,30.30,SE,143,10.0,11.0,88,0.01,,---,0.61,VWS V14.00,2013-04-26 17:45:00,
2013-04-26 12:46:00,49.5,46.1,30.29,ESE,122,13.0,21.0,88,0.02,,---,0.61,VWS V14.00,2013-04-26 17:46:00,
2013-04-26 12:47:00,49.5,45.8,30.30,SE,143,11.0,15.0,87,0.01,,---,0.61,VWS V14.00,2013-04-26 17:47:00,
2013-04-26 12:48:00,49.6,46.2,30.29,SE,141,11.0,13.0,88,0.01,,---,0.61,VWS V14.00,2013-04-26 17:48:00,
2013-04-26 12:49:00,49.6,46.2,30.30,SE,139,22.0,22.0,88,0.01,,---,0.61,VWS V14.00,2013-04-26 17:49:00,
2013-04-26 12:50:00,49.5,46.1,30.29,ESE,115,15.0,15.0,88,0.02,,---,0.62,VWS V14.00,2013-04-26 17:50:00,
2013-04-26 12:51:00,49.6,46.2,30.29,SE,138,12.0,18.0,88,0.02,,---,0.62,VWS V14.00,2013-04-26 17:51:00,
2013-04-26 12:52:00,49.5,46.1,30.29,SE,129,14.0,22.0,88,0.02,,---,0.62,VWS V14.00,2013-04-26 17:52:00,
2013-04-26 12:53:00,49.5,45.8,30.30,SE,133,14.0,17.0,87,0.02,,---,0.62,VWS V14.00,2013-04-26 17:53:00,
2013-04-26 12:54:00,49.4,45.7,30.30,SE,126,17.0,20.0,87,0.03,,---,0.63,VWS V14.00,2013-04-26 17:54:00,
2013-04-26 12:55:00,49.4,46.0,30.29,SE,132,17.0,19.0,88,0.03,,---,0.63,VWS V14.00,2013-04-26 17:55:00,
2013-04-26 12:56:00,49.4,45.7,30.30,SE,144,9.0,22.0,87,0.03,,---,0.63,VWS V14.00,2013-04-26 17:56:00,
2013-04-26 12:57:00,49.4,46.0,30.29,SE,131,19.0,23.0,88,0.03,,---,0.63,VWS V14.00,2013-04-26 17:57:00,
2013-04-26 12:58:00,49.4,46.0,30.29,ESE,117,12.0,19.0,88,0.03,,---,0.63,VWS V14.00,2013-04-26 17:58:00,
2013-04-26 12:59:00,49.4,46.0,30.29,SE,138,11.0,15.0,88,0.03,,---,0.63,VWS V14.00,2013-04-26 17:59:00,
2013-04-26 13:00:00,49.4,46.0,30.28,SE,138,15.0,15.0,88,0.03,,---,0.63,VWS V14.00,2013-04-26 18:00:00,
2013-04-26 13:01:00,49.4,46.0,30.28,SE,128,13.0,19.0,88,0.03,,---,0.63,VWS V14.00,2013-04-26 18:01:00,
2013-04-26 13:02:00,49.4,46.0,30.28,ESE,120,13.0,16.0,88,0.03,,---,0.63,VWS V14.00,2013-04-26 18:02:00,
2013-04-26 13:03:00,49.4,46.0,30.28,SE,128,11.0,15.0,88,0.03,,---,0.63,VWS V14.00,2013-04-26 18:03:00,
2013-04-26 13:04:00,49.4,46.0,30.28,SE,136,10.0,15.0,88,0.03,,---,0.63,VWS V14.00,2013-04-26 18:04:00,
2013-04-26 13:05:00,49.4,46.0,30.28,SE,141,10.0,15.0,88,0.03,,---,0.63,VWS V14.00,2013-04-26 18:05:00,
2013-04-26 13:06:00,49.4,46.0,30.28,SE,135,13.0,13.0,88,0.03,,---,0.63,VWS V14.00,2013-04-26 18:06:00,
2013-04-26 13:07:00,49.4,46.0,30.28,SE,136,15.0,15.0,88,0.03,,---,0.63,VWS V14.00,2013-04-26 18:07:00,
2013-04-26 13:08:00,49.4,46.0,30.28,SE,136,9.0,15.0,88,0.03,,---,0.63,VWS V14.00,2013-04-26 18:08:00,
2013-04-26 13:09:00,49.4,46.0,30.28,SE,124,10.0,13.0,88,0.03,,---,0.63,VWS V14.00,2013-04-26 18:09:00,
2013-04-26 13:10:00,49.4,46.0,30.29,ESE,110,4.0,14.0,88,0.03,,---,0.63,VWS V14.00,2013-04-26 18:10:00,
2013-04-26 13:11:00,49.4,46.0,30.29,SSE,153,13.0,13.0,88,0.03,,---,0.63,VWS V14.00,2013-04-26 18:11:00,
2013-04-26 13:12:00,49.4,46.0,30.29,SSE,148,12.0,15.0,88,0.03,,---,0.63,VWS V14.00,2013-04-26 18:12:00,
2013-04-26 13:13:00,49.4,46.0,30.28,East,98,5.0,14.0,88,0.03,,---,0.63,VWS V14.00,2013-04-26 18:13:00,
2013-04-26 13:14:00,49.4,46.0,30.28,East,100,6.0,14.0,88,0.03,,---,0.63,VWS V14.00,2013-04-26 18:14:00,
2013-04-26 13:15:00,49.4,46.0,30.28,ESE,108,5.0,11.0,88,0.03,,---,0.63,VWS V14.00,2013-04-26 18:15:00,
2013-04-26 13:16:00,49.4,46.0,30.28,East,101,11.0,12.0,88,0.03,,---,0.63,VWS V14.00,2013-04-26 18:16:00,
2013-04-26 13:17:00,49.4,46.0,30.28,SE,126,11.0,12.0,88,0.03,,---,0.63,VWS V14.00,2013-04-26 18:17:00,
2013-04-26 13:18:00,49.4,46.0,30.28,ESE,108,7.0,11.0,88,0.03,,---,0.63,VWS V14.00,2013-04-26 18:18:00,
2013-04-26 13:19:00,49.4,46.0,30.27,ESE,108,7.0,7.0,88,0.03,,---,0.63,VWS V14.00,2013-04-26 18:19:00,
2013-04-26 13:20:00,49.5,46.1,30.27,SE,144,15.0,15.0,88,0.03,,---,0.63,VWS V14.00,2013-04-26 18:20:00,
2013-04-26 13:21:00,49.5,46.1,30.27,ESE,107,7.0,12.0,88,0.03,,---,0.63,VWS V14.00,2013-04-26 18:21:00,
2013-04-26 13:22:00,49.5,46.1,30.27,ESE,107,15.0,15.0,88,0.03,,---,0.63,VWS V14.00,2013-04-26 18:22:00,
2013-04-26 13:23:00,49.5,46.1,30.27,SE,133,13.0,19.0,88,0.03,,---,0.63,VWS V14.00,2013-04-26 18:23:00,
2013-04-26 13:24:00,49.5,46.1,30.27,ESE,113,9.0,14.0,88,0.03,,---,0.63,VWS V14.00,2013-04-26 18:24:00,
2013-04-26 13:25:00,49.8,46.4,30.27,SSE,151,11.0,11.0,88,0.03,,---,0.63,VWS V14.00,2013-04-26 18:25:00,
2013-04-26 13:26:00,49.6,46.2,30.27,SE,145,10.0,13.0,88,0.03,,---,0.63,VWS V14.00,2013-04-26 18:26:00,
2013-04-26 13:27:00,49.6,46.2,30.27,SE,132,7.0,12.0,88,0.03,,---,0.63,VWS V14.00,2013-04-26 18:27:00,
2013-04-26 13:28:00,49.6,46.2,30.27,SE,126,3.0,14.0,88,0.03,,---,0.63,VWS V14.00,2013-04-26 18:28:00,
2013-04-26 13:29:00,49.6,45.9,30.26,SE,141,12.0,16.0,87,0.03,,---,0.63,VWS V14.00,2013-04-26 18:29:00,
2013-04-26 13:30:00,49.8,46.1,30.26,East,96,5.0,18.0,87,0.03,,---,0.63,VWS V14.00,2013-04-26 18:30:00,
2013-04-26 13:31:00,49.8,46.1,30.26,SE,131,14.0,16.0,87,0.03,,---,0.63,VWS V14.00,2013-04-26 18:31:00,
2013-04-26 13:32:00,49.8,46.1,30.26,ESE,123,18.0,18.0,87,0.03,,---,0.63,VWS V14.00,2013-04-26 18:32:00,
2013-04-26 13:33:00,49.8,45.8,30.26,SE,139,17.0,19.0,86,0.03,,---,0.63,VWS V14.00,2013-04-26 18:33:00,
2013-04-26 13:34:00,49.8,46.1,30.26,SE,136,11.0,17.0,87,0.03,,---,0.63,VWS V14.00,2013-04-26 18:34:00,
2013-04-26 13:35:00,49.9,45.9,30.26,ESE,122,9.0,15.0,86,0.03,,---,0.63,VWS V14.00,2013-04-26 18:35:00,
2013-04-26 13:36:00,49.9,46.2,30.26,SE,138,10.0,14.0,87,0.03,,---,0.63,VWS V14.00,2013-04-26 18:36:00,
2013-04-26 13:37:00,49.9,45.9,30.26,ESE,121,15.0,17.0,86,0.03,,---,0.63,VWS V14.00,2013-04-26 18:37:00,
2013-04-26 13:38:00,49.9,46.2,30.26,SE,132,9.0,15.0,87,0.03,,---,0.63,VWS V14.00,2013-04-26 18:38:00,
2013-04-26 13:39:00,49.9,46.2,30.26,SE,132,7.0,10.0,87,0.02,,---,0.63,VWS V14.00,2013-04-26 18:39:00,
2013-04-26 13:40:00,49.9,46.2,30.26,SE,140,6.0,12.0,87,0.02,,---,0.63,VWS V14.00,2013-04-26 18:40:00,
2013-04-26 13:41:00,49.9,46.2,30.26,SE,131,6.0,13.0,87,0.02,,---,0.63,VWS V14.00,2013-04-26 18:41:00,
2013-04-26 13:42:00,49.9,46.2,30.26,SE,132,6.0,14.0,87,0.02,,---,0.63,VWS V14.00,2013-04-26 18:42:00,
2013-04-26 13:43:00,50.1,46.4,30.26,SE,138,7.0,12.0,87,0.02,,---,0.63,VWS V14.00,2013-04-26 18:43:00,
2013-04-26 13:44:00,50.1,46.4,30.26,SE,134,16.0,16.0,87,0.02,,---,0.63,VWS V14.00,2013-04-26 18:44:00,
2013-04-26 13:45:00,50.1,46.1,30.26,ESE,108,9.0,11.0,86,0.02,,---,0.63,VWS V14.00,2013-04-26 18:45:00,
2013-04-26 13:46:00,50.1,46.1,30.26,SE,138,10.0,17.0,86,0.02,,---,0.63,VWS V14.00,2013-04-26 18:46:00,
2013-04-26 13:47:00,50.1,46.4,30.26,SE,138,10.0,11.0,87,0.02,,---,0.63,VWS V14.00,2013-04-26 18:47:00,
2013-04-26 13:48:00,50.1,46.1,30.26,ESE,117,10.0,11.0,86,0.02,,---,0.63,VWS V14.00,2013-04-26 18:48:00,
2013-04-26 13:49:00,50.1,46.1,30.26,SE,130,13.0,14.0,86,0.02,,---,0.63,VWS V14.00,2013-04-26 18:49:00,
2013-04-26 13:50:00,50.2,46.5,30.26,SE,128,7.0,7.0,87,0.01,,---,0.63,VWS V14.00,2013-04-26 18:50:00,
2013-04-26 13:51:00,50.2,46.5,30.26,SE,127,10.0,12.0,87,0.02,,---,0.63,VWS V14.00,2013-04-26 18:51:00,
2013-04-26 13:52:00,50.2,46.2,30.26,SE,126,7.0,11.0,86,0.01,,---,0.63,VWS V14.00,2013-04-26 18:52:00,
2013-04-26 13:53:00,50.2,46.5,30.26,SE,144,10.0,10.0,87,0.01,,---,0.63,VWS V14.00,2013-04-26 18:53:00,
2013-04-26 13:54:00,50.2,46.5,30.25,SE,144,12.0,15.0,87,0.01,,---,0.63,VWS V14.00,2013-04-26 18:54:00,
2013-04-26 13:55:00,50.2,46.5,30.25,SE,140,6.0,16.0,87,0.00,,---,0.63,VWS V14.00,2013-04-26 18:55:00,
2013-04-26 13:56:00,50.2,46.5,30.25,SE,125,5.0,8.0,87,0.00,,---,0.63,VWS V14.00,2013-04-26 18:56:00,
2013-04-26 13:57:00,50.2,46.5,30.25,SE,139,16.0,16.0,87,0.00,,---,0.63,VWS V14.00,2013-04-26 18:57:00,
2013-04-26 13:58:00,50.4,46.7,30.25,SE,139,7.0,16.0,87,0.00,,---,0.63,VWS V14.00,2013-04-26 18:58:00,
2013-04-26 13:59:00,50.4,46.7,30.25,SE,126,0.0,11.0,87,0.00,,---,0.63,VWS V14.00,2013-04-26 18:59:00,
2013-04-26 14:00:00,50.4,46.7,30.25,SE,142,11.0,14.0,87,0.00,,---,0.63,VWS V14.00,2013-04-26 19:00:00,
2013-04-26 14:01:00,50.4,46.7,30.25,ESE,121,9.0,10.0,87,0.00,,---,0.63,VWS V14.00,2013-04-26 19:01:00,
2013-04-26 14:02:00,50.4,46.7,30.25,SE,146,12.0,13.0,87,0.00,,---,0.63,VWS V14.00,2013-04-26 19:02:00,
2013-04-26 14:03:00,50.4,46.7,30.25,ESE,119,12.0,14.0,87,0.00,,---,0.63,VWS V14.00,2013-04-26 19:03:00,
2013-04-26 14:04:00,50.4,46.7,30.25,SE,136,4.0,12.0,87,0.00,,---,0.63,VWS V14.00,2013-04-26 19:04:00,
2013-04-26 14:05:00,50.5,46.8,30.25,SE,136,8.0,13.0,87,0.00,,---,0.63,VWS V14.00,2013-04-26 19:05:00,
2013-04-26 14:06:00,50.4,46.7,30.25,SE,131,12.0,16.0,87,0.00,,---,0.63,VWS V14.00,2013-04-26 19:06:00,
2013-04-26 14:07:00,50.5,46.8,30.25,SE,136,13.0,13.0,87,0.00,,---,0.63,VWS V14.00,2013-04-26 19:07:00,
2013-04-26 14:08:00,50.5,46.8,30.25,SE,132,15.0,16.0,87,0.00,,---,0.63,VWS V14.00,2013-04-26 19:08:00,
2013-04-26 14:09:00,50.5,46.8,30.25,SE,138,11.0,16.0,87,0.00,,---,0.63,VWS V14.00,2013-04-26 19:09:00,
2013-04-26 14:10:00,50.7,47.0,30.24,SE,137,10.0,12.0,87,0.00,,---,0.63,VWS V14.00,2013-04-26 19:10:00,
2013-04-26 14:11:00,50.5,46.8,30.25,SE,130,10.0,14.0,87,0.00,,---,0.63,VWS V14.00,2013-04-26 19:11:00,
2013-04-26 14:12:00,50.7,47.0,30.24,SE,136,10.0,13.0,87,0.00,,---,0.63,VWS V14.00,2013-04-26 19:12:00,
2013-04-26 14:13:00,50.7,47.0,30.24,SE,136,12.0,13.0,87,0.00,,---,0.63,VWS V14.00,2013-04-26 19:13:00,
2013-04-26 14:14:00,50.8,47.1,30.24,SE,143,15.0,17.0,87,0.00,,---,0.63,VWS V14.00,2013-04-26 19:14:00,
2013-04-26 14:15:00,50.8,46.8,30.24,SE,131,13.0,15.0,86,0.00,,---,0.63,VWS V14.00,2013-04-26 19:15:00,
2013-04-26 14:16:00,50.8,47.1,30.24,SE,136,16.0,16.0,87,0.00,,---,0.63,VWS V14.00,2013-04-26 19:16:00,
2013-04-26 14:17:00,50.8,46.8,30.24,SE,132,15.0,16.0,86,0.00,,---,0.63,VWS V14.00,2013-04-26 19:17:00,
2013-04-26 14:18:00,50.8,47.1,30.23,SE,125,11.0,15.0,87,0.00,,---,0.63,VWS V14.00,2013-04-26 19:18:00,
2013-04-26 14:19:00,50.8,47.1,30.23,ESE,120,16.0,20.0,87,0.00,,---,0.63,VWS V14.00,2013-04-26 19:19:00,
2013-04-26 14:20:00,51.0,47.0,30.23,SE,140,10.0,17.0,86,0.00,,---,0.63,VWS V14.00,2013-04-26 19:20:00,
2013-04-26 14:21:00,50.8,46.8,30.23,SE,143,11.0,15.0,86,0.00,,---,0.63,VWS V14.00,2013-04-26 19:21:00,
2013-04-26 14:22:00,51.0,47.0,30.23,SE,142,16.0,18.0,86,0.00,,---,0.63,VWS V14.00,2013-04-26 19:22:00,
2013-04-26 14:23:00,51.0,47.0,30.23,SE,135,15.0,17.0,86,0.00,,---,0.63,VWS V14.00,2013-04-26 19:23:00,
2013-04-26 14:24:00,51.0,47.0,30.23,SE,140,16.0,17.0,86,0.00,,---,0.63,VWS V14.00,2013-04-26 19:24:00,
2013-04-26 14:25:00,51.1,47.1,30.22,ESE,119,14.0,18.0,86,0.00,,---,0.63,VWS V14.00,2013-04-26 19:25:00,
2013-04-26 14:26:00,51.1,47.1,30.23,SE,132,17.0,19.0,86,0.00,,---,0.63,VWS V14.00,2013-04-26 19:26:00,
2013-04-26 14:27:00,51.1,47.1,30.22,SSE,147,13.0,19.0,86,0.00,,---,0.63,VWS V14.00,2013-04-26 19:27:00,
2013-04-26 14:28:00,51.1,47.1,30.22,ESE,123,15.0,19.0,86,0.00,,---,0.63,VWS V14.00,2013-04-26 19:28:00,
2013-04-26 14:29:00,51.1,47.1,30.22,SE,130,15.0,19.0,86,0.00,,---,0.63,VWS V14.00,2013-04-26 19:29:00,
2013-04-26 14:30:00,51.3,47.3,30.23,SE,134,10.0,11.0,86,0.00,,---,0.63,VWS V14.00,2013-04-26 19:30:00,
2013-04-26 14:31:00,51.3,47.3,30.23,SE,132,14.0,15.0,86,0.00,,---,0.63,VWS V14.00,2013-04-26 19:31:00,
2013-04-26 14:32:00,51.3,47.3,30.23,SE,138,11.0,17.0,86,0.00,,---,0.63,VWS V14.00,2013-04-26 19:32:00,
2013-04-26 14:33:00,51.3,47.3,30.23,ESE,107,13.0,18.0,86,0.00,,---,0.63,VWS V14.00,2013-04-26 19:33:00,
2013-04-26 14:34:00,51.3,47.0,30.23,ESE,122,10.0,17.0,85,0.00,,---,0.63,VWS V14.00,2013-04-26 19:34:00,
2013-04-26 14:35:00,51.3,47.3,30.23,SSE,150,13.0,13.0,86,0.00,,---,0.63,VWS V14.00,2013-04-26 19:35:00,
2013-04-26 14:36:00,51.3,47.0,30.23,SE,131,10.0,15.0,85,0.00,,---,0.63,VWS V14.00,2013-04-26 19:36:00,
2013-04-26 14:37:00,51.3,47.3,30.23,SE,142,5.0,12.0,86,0.00,,---,0.63,VWS V14.00,2013-04-26 19:37:00,
2013-04-26 14:38:00,51.3,47.3,30.23,SE,141,10.0,13.0,86,0.00,,---,0.63,VWS V14.00,2013-04-26 19:38:00,
2013-04-26 14:39:00,51.4,47.4,30.23,SE,139,10.0,13.0,86,0.00,,---,0.63,VWS V14.00,2013-04-26 19:39:00,
2013-04-26 14:40:00,51.4,47.4,30.22,SE,129,13.0,13.0,86,0.00,,---,0.63,VWS V14.00,2013-04-26 19:40:00,
2013-04-26 14:41:00,51.4,47.4,30.22,SE,135,11.0,13.0,86,0.00,,---,0.63,VWS V14.00,2013-04-26 19:41:00,
2013-04-26 14:42:00,51.4,47.4,30.22,SE,128,10.0,15.0,86,0.00,,---,0.63,VWS V14.00,2013-04-26 19:42:00,
2013-04-26 14:43:00,51.4,47.4,30.22,SE,128,12.0,16.0,86,0.00,,---,0.63,VWS V14.00,2013-04-26 19:43:00,
2013-04-26 14:44:00,51.3,47.3,30.22,SE,144,18.0,18.0,86,0.00,,---,0.63,VWS V14.00,2013-04-26 19:44:00,
2013-04-26 14:45:00,51.4,47.4,30.22,SE,126,15.0,16.0,86,0.00,,---,0.63,VWS V14.00,2013-04-26 19:45:00,
2013-04-26 14:46:00,51.3,47.0,30.22,SE,134,12.0,13.0,85,0.00,,---,0.63,VWS V14.00,2013-04-26 19:46:00,
2013-04-26 14:47:00,51.4,47.4,30.22,ESE,116,16.0,19.0,86,0.00,,---,0.63,VWS V14.00,2013-04-26 19:47:00,
2013-04-26 14:48:00,51.4,47.4,30.22,SE,130,10.0,16.0,86,0.00,,---,0.63,VWS V14.00,2013-04-26 19:48:00,
2013-04-26 14:49:00,51.4,47.4,30.22,SE,129,11.0,15.0,86,0.00,,---,0.63,VWS V14.00,2013-04-26 19:49:00,
2013-04-26 14:50:00,51.4,47.4,30.20,SE,136,12.0,16.0,86,0.00,,---,0.63,VWS V14.00,2013-04-26 19:50:00,
2013-04-26 14:51:00,51.4,47.0,30.21,SE,133,12.0,18.0,85,0.00,,---,0.63,VWS V14.00,2013-04-26 19:51:00,
2013-04-26 14:52:00,51.4,47.4,30.20,SE,128,14.0,17.0,86,0.00,,---,0.63,VWS V14.00,2013-04-26 19:52:00,
2013-04-26 14:53:00,51.4,47.0,30.21,SE,128,15.0,17.0,85,0.00,,---,0.63,VWS V14.00,2013-04-26 19:53:00,
2013-04-26 14:54:00,51.6,47.6,30.21,SE,134,16.0,17.0,86,0.00,,---,0.63,VWS V14.00,2013-04-26 19:54:00,
2013-04-26 14:55:00,51.6,47.6,30.20,ESE,115,9.0,9.0,86,0.00,,---,0.63,VWS V14.00,2013-04-26 19:55:00,
2013-04-26 14:56:00,51.6,47.6,30.20,ESE,115,13.0,16.0,86,0.00,,---,0.63,VWS V14.00,2013-04-26 19:56:00,
2013-04-26 14:57:00,51.6,47.2,30.20,ESE,115,8.0,14.0,85,0.00,,---,0.63,VWS V14.00,2013-04-26 19:57:00,
2013-04-26 14:58:00,51.7,47.7,30.20,ESE,109,13.0,16.0,86,0.00,,---,0.63,VWS V14.00,2013-04-26 19:58:00,
2013-04-26 14:59:00,51.7,47.7,30.20,ESE,115,11.0,13.0,86,0.00,,---,0.63,VWS V14.00,2013-04-26 19:59:00,
2013-04-26 15:00:00,51.9,47.5,30.20,SE,145,10.0,14.0,85,0.00,,---,0.63,VWS V14.00,2013-04-26 20:00:00,
2013-04-26 15:01:00,51.9,47.8,30.20,ESE,111,19.0,19.0,86,0.00,,---,0.63,VWS V14.00,2013-04-26 20:01:00,
2013-04-26 15:02:00,51.9,47.5,30.20,SSE,152,11.0,19.0,85,0.00,,---,0.63,VWS V14.00,2013-04-26 20:02:00,
2013-04-26 15:03:00,51.9,47.5,30.20,SE,144,10.0,14.0,85,0.00,,---,0.63,VWS V14.00,2013-04-26 20:03:00,
2013-04-26 15:04:00,51.9,47.5,30.20,SE,136,10.0,14.0,85,0.00,,---,0.63,VWS V14.00,2013-04-26 20:04:00,
2013-04-26 15:05:00,52.0,47.6,30.20,SE,137,12.0,13.0,85,0.00,,---,0.63,VWS V14.00,2013-04-26 20:05:00,
2013-04-26 15:06:00,52.0,48.0,30.20,SE,127,6.0,19.0,86,0.00,,---,0.63,VWS V14.00,2013-04-26 20:06:00,
2013-04-26 15:07:00,52.0,47.6,30.20,SE,136,11.0,15.0,85,0.00,,---,0.63,VWS V14.00,2013-04-26 20:07:00,
2013-04-26 15:08:00,52.2,47.8,30.20,SE,138,11.0,13.0,85,0.00,,---,0.63,VWS V14.00,2013-04-26 20:08:00,
2013-04-26 15:09:00,52.3,47.9,30.19,SSE,149,12.0,15.0,85,0.00,,---,0.63,VWS V14.00,2013-04-26 20:09:00,
2013-04-26 15:10:00,52.5,47.8,30.20,SE,140,5.0,11.0,84,0.00,,---,0.63,VWS V14.00,2013-04-26 20:10:00,
2013-04-26 15:11:00,52.5,48.1,30.20,SE,134,17.0,17.0,85,0.00,,---,0.63,VWS V14.00,2013-04-26 20:11:00,
2013-04-26 15:12:00,52.5,47.8,30.20,SE,140,10.0,17.0,84,0.00,,---,0.63,VWS V14.00,2013-04-26 20:12:00,
2013-04-26 15:13:00,52.5,47.8,30.19,SE,140,13.0,15.0,84,0.00,,---,0.63,VWS V14.00,2013-04-26 20:13:00,
2013-04-26 15:14:00,52.6,48.2,30.20,SSE,163,5.0,14.0,85,0.00,,---,0.63,VWS V14.00,2013-04-26 20:14:00,
2013-04-26 15:15:00,52.8,47.8,30.20,SSE,155,12.0,13.0,83,0.00,,---,0.63,VWS V14.00,2013-04-26 20:15:00,
2013-04-26 15:16:00,52.8,48.1,30.20,SSE,151,14.0,15.0,84,0.00,,---,0.63,VWS V14.00,2013-04-26 20:16:00,
2013-04-26 15:17:00,52.8,47.8,30.20,SSE,161,9.0,16.0,83,0.00,,---,0.63,VWS V14.00,2013-04-26 20:17:00,
2013-04-26 15:18:00,52.8,48.1,30.20,South,174,7.0,18.0,84,0.00,,---,0.63,VWS V14.00,2013-04-26 20:18:00,
2013-04-26 15:19:00,52.8,47.8,30.20,SE,142,16.0,18.0,83,0.00,,---,0.63,VWS V14.00,2013-04-26 20:19:00,
2013-04-26 15:20:00,52.8,47.8,30.20,SSE,165,9.0,9.0,83,0.00,,---,0.63,VWS V14.00,2013-04-26 20:20:00,
2013-04-26 15:21:00,52.8,47.8,30.20,SSE,147,6.0,13.0,83,0.00,,---,0.63,VWS V14.00,2013-04-26 20:21:00,
2013-04-26 15:22:00,52.8,47.8,30.20,SSE,167,7.0,14.0,83,0.00,,---,0.63,VWS V14.00,2013-04-26 20:22:00,
2013-04-26 15:23:00,52.8,47.8,30.20,SE,140,7.0,15.0,83,0.00,,---,0.63,VWS V14.00,2013-04-26 20:23:00,
2013-04-26 15:24:00,52.9,47.9,30.20,SE,146,13.0,15.0,83,0.00,,---,0.63,VWS V14.00,2013-04-26 20:24:00,
2013-04-26 15:25:00,52.9,47.9,30.20,SSE,161,9.0,11.0,83,0.00,,---,0.63,VWS V14.00,2013-04-26 20:25:00,
2013-04-26 15:26:00,52.9,47.9,30.20,SSE,159,8.0,9.0,83,0.00,,---,0.63,VWS V14.00,2013-04-26 20:26:00,
2013-04-26 15:27:00,52.9,47.9,30.20,SSE,159,11.0,13.0,83,0.00,,---,0.63,VWS V14.00,2013-04-26 20:27:00,
2013-04-26 15:28:00,52.9,47.6,30.20,SSE,155,12.0,14.0,82,0.00,,---,0.63,VWS V14.00,2013-04-26 20:28:00,
2013-04-26 15:29:00,52.9,47.9,30.20,ESE,123,12.0,16.0,83,0.00,,---,0.63,VWS V14.00,2013-04-26 20:29:00,
2013-04-26 15:30:00,52.9,47.6,30.20,SSE,157,8.0,8.0,82,0.00,,---,0.63,VWS V14.00,2013-04-26 20:30:00,
2013-04-26 15:31:00,52.9,47.9,30.20,SE,128,13.0,13.0,83,0.00,,---,0.63,VWS V14.00,2013-04-26 20:31:00,
2013-04-26 15:32:00,52.9,47.6,30.20,SE,144,6.0,13.0,82,0.00,,---,0.63,VWS V14.00,2013-04-26 20:32:00,
2013-04-26 15:33:00,52.9,47.9,30.20,SSE,148,6.0,16.0,83,0.00,,---,0.63,VWS V14.00,2013-04-26 20:33:00,
2013-04-26 15:34:00,52.9,47.6,30.20,SSE,147,11.0,13.0,82,0.00,,---,0.63,VWS V14.00,2013-04-26 20:34:00,
2013-04-26 15:35:00,53.1,47.4,30.20,SSE,156,11.0,11.0,81,0.00,,---,0.63,VWS V14.00,2013-04-26 20:35:00,
2013-04-26 15:36:00,53.1,47.8,30.20,SE,144,15.0,19.0,82,0.00,,---,0.63,VWS V14.00,2013-04-26 20:36:00,
2013-04-26 15:37:00,53.1,47.4,30.20,SSE,155,10.0,22.0,81,0.00,,---,0.63,VWS V14.00,2013-04-26 20:37:00,
2013-04-26 15:38:00,53.1,47.8,30.20,SSE,157,7.0,16.0,82,0.00,,---,0.63,VWS V14.00,2013-04-26 20:38:00,
2013-04-26 15:39:00,53.1,47.4,30.20,SE,139,16.0,18.0,81,0.00,,---,0.63,VWS V14.00,2013-04-26 20:39:00,
2013-04-26 15:40:00,53.1,47.4,30.20,SE,140,13.0,13.0,81,0.00,,---,0.63,VWS V14.00,2013-04-26 20:40:00,
2013-04-26 15:41:00,53.1,47.4,30.20,SE,144,15.0,19.0,81,0.00,,---,0.63,VWS V14.00,2013-04-26 20:41:00,
2013-04-26 15:42:00,53.1,47.4,30.20,SE,142,11.0,18.0,81,0.00,,---,0.63,VWS V14.00,2013-04-26 20:42:00,
2013-04-26 15:43:00,53.1,47.4,30.19,South,175,9.0,13.0,81,0.00,,---,0.63,VWS V14.00,2013-04-26 20:43:00,
2013-04-26 15:44:00,53.1,47.8,30.19,SSE,153,12.0,16.0,82,0.00,,---,0.63,VWS V14.00,2013-04-26 20:44:00,
2013-04-26 15:45:00,53.1,47.8,30.19,South,170,5.0,9.0,82,0.00,,---,0.63,VWS V14.00,2013-04-26 20:45:00,
2013-04-26 15:46:00,53.1,47.4,30.19,SE,140,14.0,14.0,81,0.00,,---,0.63,VWS V14.00,2013-04-26 20:46:00,
2013-04-26 15:47:00,53.1,47.8,30.19,South,170,9.0,14.0,82,0.00,,---,0.63,VWS V14.00,2013-04-26 20:47:00,
2013-04-26 15:48:00,53.1,47.4,30.19,SSE,148,9.0,12.0,81,0.00,,---,0.63,VWS V14.00,2013-04-26 20:48:00,
2013-04-26 15:49:00,53.1,47.4,30.19,SSE,149,4.0,10.0,81,0.00,,---,0.63,VWS V14.00,2013-04-26 20:49:00,
2013-04-26 15:50:00,53.1,47.8,30.19,SE,142,6.0,6.0,82,0.00,,---,0.63,VWS V14.00,2013-04-26 20:50:00,
2013-04-26 15:51:00,53.1,47.8,30.19,SE,141,5.0,11.0,82,0.00,,---,0.63,VWS V14.00,2013-04-26 20:51:00,
2013-04-26 15:52:00,53.1,47.8,30.19,SE,142,6.0,7.0,82,0.00,,---,0.63,VWS V14.00,2013-04-26 20:52:00,
2013-04-26 15:53:00,53.1,47.8,30.19,SE,142,9.0,13.0,82,0.00,,---,0.63,VWS V14.00,2013-04-26 20:53:00,
2013-04-26 15:54:00,53.1,47.8,30.19,SE,128,11.0,11.0,82,0.00,,---,0.63,VWS V14.00,2013-04-26 20:54:00,
2013-04-26 15:55:00,52.9,47.2,30.19,SE,131,13.0,13.0,81,0.00,,---,0.63,VWS V14.00,2013-04-26 20:55:00,
2013-04-26 15:56:00,52.9,47.6,30.19,SE,136,7.0,15.0,82,0.00,,---,0.63,VWS V14.00,2013-04-26 20:56:00,
2013-04-26 15:57:00,52.9,47.2,30.19,SE,135,12.0,15.0,81,0.00,,---,0.63,VWS V14.00,2013-04-26 20:57:00,
2013-04-26 15:58:00,52.9,47.2,30.19,SE,144,7.0,16.0,81,0.00,,---,0.63,VWS V14.00,2013-04-26 20:58:00,
2013-04-26 15:59:00,52.9,47.2,30.19,SSE,148,3.0,10.0,81,0.00,,---,0.63,VWS V14.00,2013-04-26 20:59:00,
2013-04-26 16:00:00,52.9,47.2,30.20,SE,135,11.0,11.0,81,0.00,,---,0.63,VWS V14.00,2013-04-26 21:00:00,
2013-04-26 16:01:00,52.9,47.6,30.19,SE,133,16.0,17.0,82,0.00,,---,0.63,VWS V14.00,2013-04-26 21:01:00,
2013-04-26 16:02:00,52.9,47.2,30.20,SE,136,7.0,16.0,81,0.00,,---,0.63,VWS V14.00,2013-04-26 21:02:00,
2013-04-26 16:03:00,52.9,47.6,30.20,SE,135,3.0,13.0,82,0.00,,---,0.63,VWS V14.00,2013-04-26 21:03:00,
2013-04-26 16:04:00,52.9,47.6,30.19,SE,136,7.0,8.0,82,0.00,,---,0.63,VWS V14.00,2013-04-26 21:04:00,
2013-04-26 16:05:00,52.9,47.6,30.19,SE,144,14.0,14.0,82,0.00,,---,0.63,VWS V14.00,2013-04-26 21:05:00,
2013-04-26 16:06:00,52.9,47.6,30.19,SE,136,5.0,11.0,82,0.00,,---,0.63,VWS V14.00,2013-04-26 21:06:00,
2013-04-26 16:07:00,52.9,47.6,30.19,SE,142,11.0,11.0,82,0.00,,---,0.63,VWS V14.00,2013-04-26 21:07:00,
2013-04-26 16:08:00,52.9,47.6,30.19,SE,146,11.0,17.0,82,0.00,,---,0.63,VWS V14.00,2013-04-26 21:08:00,
2013-04-26 16:09:00,52.9,47.6,30.19,SSE,147,11.0,15.0,82,0.00,,---,0.63,VWS V14.00,2013-04-26 21:09:00,
2013-04-26 16:10:00,52.9,47.6,30.19,SE,146,8.0,11.0,82,0.00,,---,0.63,VWS V14.00,2013-04-26 21:10:00,
2013-04-26 16:11:00,52.9,47.6,30.19,SSE,147,9.0,11.0,82,0.00,,---,0.63,VWS V14.00,2013-04-26 21:11:00,
2013-04-26 16:12:00,52.9,47.6,30.19,SE,146,8.0,11.0,82,0.00,,---,0.63,VWS V14.00,2013-04-26 21:12:00,
2013-04-26 16:13:00,52.9,47.6,30.19,SE,144,10.0,13.0,82,0.00,,---,0.63,VWS V14.00,2013-04-26 21:13:00,
2013-04-26 16:14:00,52.9,48.8,30.19,SE,144,3.0,13.0,86,0.00,,---,0.63,VWS V14.00,2013-04-26 21:14:00,
2013-04-26 16:15:00,52.9,47.6,30.19,SE,138,11.0,13.0,82,0.00,,---,0.63,VWS V14.00,2013-04-26 21:15:00,
2013-04-26 16:16:00,52.9,47.6,30.19,SE,142,10.0,11.0,82,0.00,,---,0.63,VWS V14.00,2013-04-26 21:16:00,
2013-04-26 16:17:00,52.9,47.6,30.19,SE,138,13.0,13.0,82,0.00,,---,0.63,VWS V14.00,2013-04-26 21:17:00,
2013-04-26 16:18:00,52.9,47.6,30.19,SSE,153,9.0,14.0,82,0.00,,---,0.63,VWS V14.00,2013-04-26 21:18:00,
2013-04-26 16:19:00,52.9,47.6,30.19,SE,144,13.0,15.0,82,0.00,,---,0.63,VWS V14.00,2013-04-26 21:19:00,
2013-04-26 16:20:00,52.9,47.6,30.19,SE,142,12.0,13.0,82,0.00,,---,0.63,VWS V14.00,2013-04-26 21:20:00,
2013-04-26 16:21:00,52.9,47.6,30.19,SE,143,10.0,11.0,82,0.00,,---,0.63,VWS V14.00,2013-04-26 21:21:00,
2013-04-26 16:22:00,52.9,47.6,30.19,SE,142,13.0,16.0,82,0.00,,---,0.63,VWS V14.00,2013-04-26 21:22:00,
2013-04-26 16:23:00,52.8,47.1,30.19,SE,140,10.0,13.0,81,0.00,,---,0.63,VWS V14.00,2013-04-26 21:23:00,
2013-04-26 16:24:00,52.8,47.5,30.19,SE,138,9.0,12.0,82,0.00,,---,0.63,VWS V14.00,2013-04-26 21:24:00,
2013-04-26 16:25:00,52.8,47.5,30.19,SE,138,9.0,9.0,82,0.00,,---,0.63,VWS V14.00,2013-04-26 21:25:00,
2013-04-26 16:26:00,52.8,47.1,30.19,SE,138,6.0,10.0,81,0.00,,---,0.63,VWS V14.00,2013-04-26 21:26:00,
2013-04-26 16:27:00,52.8,47.5,30.19,SE,138,9.0,10.0,82,0.00,,---,0.63,VWS V14.00,2013-04-26 21:27:00,
2013-04-26 16:28:00,52.8,47.5,30.19,SE,138,6.0,9.0,82,0.00,,---,0.63,VWS V14.00,2013-04-26 21:28:00,
2013-04-26 16:29:00,52.8,47.5,30.19,SE,138,4.0,7.0,82,0.00,,---,0.63,VWS V14.00,2013-04-26 21:29:00,
2013-04-26 16:30:00,52.8,47.5,30.19,SSE,150,9.0,15.0,82,0.00,,---,0.63,VWS V14.00,2013-04-26 21:30:00,
2013-04-26 16:31:00,52.8,47.5,30.19,SSE,153,5.0,8.0,82,0.00,,---,0.63,VWS V14.00,2013-04-26 21:31:00,
2013-04-26 16:32:00,52.8,47.5,30.19,SSE,150,9.0,15.0,82,0.00,,---,0.63,VWS V14.00,2013-04-26 21:32:00,
2013-04-26 16:33:00,52.8,47.5,30.19,SE,138,9.0,11.0,82,0.00,,---,0.63,VWS V14.00,2013-04-26 21:33:00,
2013-04-26 16:34:00,52.8,47.5,30.19,SE,139,6.0,10.0,82,0.00,,---,0.63,VWS V14.00,2013-04-26 21:34:00,
2013-04-26 16:35:00,52.8,47.5,30.19,SE,138,6.0,10.0,82,0.00,,---,0.63,VWS V14.00,2013-04-26 21:35:00,
2013-04-26 16:36:00,52.8,47.5,30.19,SE,139,4.0,7.0,82,0.00,,---,0.63,VWS V14.00,2013-04-26 21:36:00,
2013-04-26 16:37:00,52.8,47.5,30.19,SE,138,6.0,10.0,82,0.00,,---,0.63,VWS V14.00,2013-04-26 21:37:00,
2013-04-26 16:38:00,52.8,47.5,30.19,SE,135,13.0,13.0,82,0.00,,---,0.63,VWS V14.00,2013-04-26 21:38:00,
2013-04-26 16:39:00,52.8,47.5,30.19,SE,138,7.0,13.0,82,0.00,,---,0.63,VWS V14.00,2013-04-26 21:39:00,
2013-04-26 16:40:00,52.8,47.5,30.19,SE,134,9.0,14.0,82,0.00,,---,0.63,VWS V14.00,2013-04-26 21:40:00,
2013-04-26 16:41:00,52.8,47.5,30.19,SE,136,11.0,11.0,82,0.00,,---,0.63,VWS V14.00,2013-04-26 21:41:00,
2013-04-26 16:42:00,52.8,47.5,30.19,SE,134,9.0,14.0,82,0.00,,---,0.63,VWS V14.00,2013-04-26 21:42:00,
2013-04-26 16:43:00,52.8,47.5,30.19,SE,134,12.0,13.0,82,0.00,,---,0.63,VWS V14.00,2013-04-26 21:43:00,
2013-04-26 16:44:00,52.8,47.5,30.19,SE,132,9.0,14.0,82,0.00,,---,0.63,VWS V14.00,2013-04-26 21:44:00,
2013-04-26 16:45:00,52.8,47.5,30.18,SE,132,5.0,9.0,82,0.00,,---,0.63,VWS V14.00,2013-04-26 21:45:00,
2013-04-26 16:46:00,52.8,47.5,30.19,SE,132,9.0,11.0,82,0.00,,---,0.63,VWS V14.00,2013-04-26 21:46:00,
2013-04-26 16:47:00,52.8,47.5,30.18,SE,132,5.0,9.0,82,0.00,,---,0.63,VWS V14.00,2013-04-26 21:47:00,
2013-04-26 16:48:00,52.8,47.8,30.19,SE,132,11.0,11.0,83,0.00,,---,0.63,VWS V14.00,2013-04-26 21:48:00,
2013-04-26 16:49:00,52.8,47.5,30.19,SE,130,10.0,11.0,82,0.00,,---,0.63,VWS V14.00,2013-04-26 21:49:00,
2013-04-26 16:50:00,52.9,47.9,30.19,SE,130,4.0,7.0,83,0.00,,---,0.63,VWS V14.00,2013-04-26 21:50:00,
2013-04-26 16:51:00,52.8,47.8,30.19,SE,130,5.0,9.0,83,0.00,,---,0.63,VWS V14.00,2013-04-26 21:51:00,
2013-04-26 16:52:00,52.9,47.9,30.19,SE,130,4.0,7.0,83,0.00,,---,0.63,VWS V14.00,2013-04-26 21:52:00,
2013-04-26 16:53:00,52.9,47.9,30.19,SE,131,6.0,11.0,83,0.00,,---,0.63,VWS V14.00,2013-04-26 21:53:00,
2013-04-26 16:54:00,52.9,47.9,30.19,SE,132,2.0,8.0,83,0.00,,---,0.63,VWS V14.00,2013-04-26 21:54:00,
2013-04-26 16:55:00,52.8,47.5,30.18,SE,138,9.0,12.0,82,0.00,,---,0.63,VWS V14.00,2013-04-26 21:55:00,
2013-04-26 16:56:00,52.8,47.5,30.19,SSE,154,8.0,9.0,82,0.00,,---,0.63,VWS V14.00,2013-04-26 21:56:00,
2013-04-26 16:57:00,52.8,47.5,30.18,SE,138,9.0,12.0,82,0.00,,---,0.63,VWS V14.00,2013-04-26 21:57:00,
2013-04-26 16:58:00,52.8,47.5,30.18,SE,126,14.0,14.0,82,0.00,,---,0.63,VWS V14.00,2013-04-26 21:58:00,
2013-04-26 16:59:00,52.8,47.5,30.19,SE,138,6.0,17.0,82,0.00,,---,0.63,VWS V14.00,2013-04-26 21:59:00,
2013-04-26 17:00:00,52.8,47.5,30.19,SE,138,10.0,12.0,82,0.00,,---,0.63,VWS V14.00,2013-04-26 22:00:00,
2013-04-26 17:01:00,52.8,47.5,30.19,SE,146,8.0,14.0,82,0.00,,---,0.63,VWS V14.00,2013-04-26 22:01:00,
2013-04-26 17:02:00,52.8,47.5,30.19,SE,138,9.0,12.0,82,0.00,,---,0.63,VWS V14.00,2013-04-26 22:02:00,
2013-04-26 17:03:00,52.8,47.5,30.19,SE,135,12.0,12.0,82,0.00,,---,0.63,VWS V14.00,2013-04-26 22:03:00,
2013-04-26 17:04:00,52.8,47.5,30.19,SE,134,7.0,13.0,82,0.00,,---,0.63,VWS V14.00,2013-04-26 22:04:00,
2013-04-26 17:05:00,52.8,47.5,30.18,SE,140,9.0,14.0,82,0.00,,---,0.63,VWS V14.00,2013-04-26 22:05:00,
2013-04-26 17:06:00,52.8,47.5,30.18,SE,142,9.0,14.0,82,0.00,,---,0.63,VWS V14.00,2013-04-26 22:06:00,
2013-04-26 17:07:00,52.8,47.5,30.18,SE,140,5.0,14.0,82,0.00,,---,0.63,VWS V14.00,2013-04-26 22:07:00,
2013-04-26 17:08:00,52.6,47.3,30.19,SE,140,6.0,12.0,82,0.00,,---,0.63,VWS V14.00,2013-04-26 22:08:00,
2013-04-26 17:09:00,52.8,47.5,30.18,SE,141,9.0,9.0,82,0.00,,---,0.63,VWS V14.00,2013-04-26 22:09:00,
2013-04-26 17:10:00,52.8,47.5,30.18,SE,133,1.0,7.0,82,0.00,,---,0.63,VWS V14.00,2013-04-26 22:10:00,
2013-04-26 17:11:00,52.6,47.3,30.19,SE,133,2.0,13.0,82,0.00,,---,0.63,VWS V14.00,2013-04-26 22:11:00,
2013-04-26 17:12:00,52.6,47.3,30.18,SE,133,1.0,7.0,82,0.00,,---,0.63,VWS V14.00,2013-04-26 22:12:00,
2013-04-26 17:13:00,52.6,47.3,30.19,SE,142,11.0,13.0,82,0.00,,---,0.63,VWS V14.00,2013-04-26 22:13:00,
2013-04-26 17:14:00,52.6,47.3,30.19,SE,146,6.0,15.0,82,0.00,,---,0.63,VWS V14.00,2013-04-26 22:14:00,
2013-04-26 17:15:00,52.6,47.3,30.18,South,175,7.0,12.0,82,0.00,,---,0.63,VWS V14.00,2013-04-26 22:15:00,
2013-04-26 17:16:00,52.6,47.3,30.19,SE,142,6.0,14.0,82,0.00,,---,0.63,VWS V14.00,2013-04-26 22:16:00,
2013-04-26 17:17:00,52.6,47.3,30.18,South,175,7.0,12.0,82,0.00,,---,0.63,VWS V14.00,2013-04-26 22:17:00,
2013-04-26 17:18:00,52.6,46.9,30.18,SSE,166,6.0,12.0,81,0.00,,---,0.63,VWS V14.00,2013-04-26 22:18:00,
2013-04-26 17:19:00,52.6,47.3,30.18,SSE,160,7.0,11.0,82,0.00,,---,0.63,VWS V14.00,2013-04-26 22:19:00,
2013-04-26 17:20:00,52.6,47.3,30.18,SSE,153,11.0,11.0,82,0.00,,---,0.63,VWS V14.00,2013-04-26 22:20:00,
2013-04-26 17:21:00,52.6,47.3,30.18,SSE,154,9.0,13.0,82,0.00,,---,0.63,VWS V14.00,2013-04-26 22:21:00,
2013-04-26 17:22:00,52.6,47.3,30.18,SSE,153,11.0,11.0,82,0.00,,---,0.63,VWS V14.00,2013-04-26 22:22:00,
2013-04-26 17:23:00,52.6,47.3,30.18,SSE,162,5.0,11.0,82,0.00,,---,0.63,VWS V14.00,2013-04-26 22:23:00,
2013-04-26 17:24:00,52.6,47.3,30.18,SSE,158,9.0,11.0,82,0.00,,---,0.63,VWS V14.00,2013-04-26 22:24:00,
2013-04-26 17:25:00,52.5,46.8,30.18,SSE,149,13.0,13.0,81,0.00,,---,0.63,VWS V14.00,2013-04-26 22:25:00,
2013-04-26 17:26:00,52.6,47.3,30.18,SSE,155,10.0,12.0,82,0.00,,---,0.63,VWS V14.00,2013-04-26 22:26:00,
2013-04-26 17:27:00,52.5,46.8,30.18,SSE,148,13.0,13.0,81,0.00,,---,0.63,VWS V14.00,2013-04-26 22:27:00,
2013-04-26 17:28:00,52.5,47.2,30.18,SE,130,13.0,14.0,82,0.00,,---,0.63,VWS V14.00,2013-04-26 22:28:00,
2013-04-26 17:29:00,52.5,46.8,30.18,SSE,153,6.0,13.0,81,0.00,,---,0.63,VWS V14.00,2013-04-26 22:29:00,
2013-04-26 17:30:00,52.5,47.2,30.18,SE,145,7.0,14.0,82,0.00,,---,0.63,VWS V14.00,2013-04-26 22:30:00,
2013-04-26 17:31:00,52.5,47.2,30.18,SE,135,11.0,15.0,82,0.00,,---,0.63,VWS V14.00,2013-04-26 22:31:00,
2013-04-26 17:32:00,52.5,47.2,30.18,SE,145,10.0,14.0,82,0.00,,---,0.63,VWS V14.00,2013-04-26 22:32:00,
2013-04-26 17:33:00,52.5,47.2,30.18,SSE,151,4.0,12.0,82,0.00,,---,0.63,VWS V14.00,2013-04-26 22:33:00,
2013-04-26 17:34:00,52.5,47.2,30.18,SSE,150,5.0,11.0,82,0.00,,---,0.63,VWS V14.00,2013-04-26 22:34:00,
2013-04-26 17:35:00,52.5,46.8,30.18,SSE,163,7.0,12.0,81,0.00,,---,0.63,VWS V14.00,2013-04-26 22:35:00,
2013-04-26 17:36:00,52.5,47.2,30.18,South,169,10.0,17.0,82,0.00,,---,0.63,VWS V14.00,2013-04-26 22:36:00,
2013-04-26 17:37:00,52.5,46.8,30.18,SSE,163,5.0,12.0,81,0.00,,---,0.63,VWS V14.00,2013-04-26 22:37:00,
2013-04-26 17:38:00,52.5,46.8,30.18,SSE,162,4.0,10.0,81,0.00,,---,0.63,VWS V14.00,2013-04-26 22:38:00,
2013-04-26 17:39:00,52.3,47.0,30.17,SSE,156,11.0,12.0,82,0.00,,---,0.63,VWS V14.00,2013-04-26 22:39:00,
2013-04-26 17:40:00,52.5,47.2,30.17,SE,129,14.0,14.0,82,0.00,,---,0.63,VWS V14.00,2013-04-26 22:40:00,
2013-04-26 17:41:00,52.5,47.2,30.18,SSE,154,8.0,10.0,82,0.00,,---,0.63,VWS V14.00,2013-04-26 22:41:00,
2013-04-26 17:42:00,52.5,47.2,30.17,SE,132,11.0,14.0,82,0.00,,---,0.63,VWS V14.00,2013-04-26 22:42:00,
2013-04-26 17:43:00,52.5,47.2,30.17,SE,139,3.0,11.0,82,0.00,,---,0.63,VWS V14.00,2013-04-26 22:43:00,
2013-04-26 17:44:00,52.5,47.2,30.17,SE,143,5.0,7.0,82,0.00,,---,0.63,VWS V14.00,2013-04-26 22:44:00,
2013-04-26 17:45:00,52.3,47.0,30.17,SE,143,6.0,6.0,82,0.00,,---,0.63,VWS V14.00,2013-04-26 22:45:00,
2013-04-26 17:46:00,52.3,47.0,30.17,SE,143,5.0,6.0,82,0.00,,---,0.63,VWS V14.00,2013-04-26 22:46:00,
2013-04-26 17:47:00,52.3,47.0,30.17,SE,143,10.0,10.0,82,0.00,,---,0.63,VWS V14.00,2013-04-26 22:47:00,
2013-04-26 17:48:00,52.3,47.0,30.17,SE,146,10.0,10.0,82,0.00,,---,0.63,VWS V14.00,2013-04-26 22:48:00,
2013-04-26 17:49:00,52.3,47.0,30.17,SE,146,6.0,10.0,82,0.00,,---,0.63,VWS V14.00,2013-04-26 22:49:00,
2013-04-26 17:50:00,52.3,47.0,30.17,SE,142,3.0,11.0,82,0.00,,---,0.63,VWS V14.00,2013-04-26 22:50:00,
2013-04-26 17:51:00,52.3,47.0,30.17,SSE,148,5.0,13.0,82,0.00,,---,0.63,VWS V14.00,2013-04-26 22:51:00,
2013-04-26 17:52:00,52.3,47.0,30.17,SE,142,5.0,11.0,82,0.00,,---,0.63,VWS V14.00,2013-04-26 22:52:00,
2013-04-26 17:53:00,52.3,47.0,30.17,SE,128,9.0,9.0,82,0.00,,---,0.63,VWS V14.00,2013-04-26 22:53:00,
2013-04-26 17:54:00,52.3,47.0,30.17,ESE,115,6.0,11.0,82,0.00,,---,0.63,VWS V14.00,2013-04-26 22:54:00,
2013-04-26 17:55:00,52.3,47.0,30.17,ESE,119,8.0,9.0,82,0.00,,---,0.63,VWS V14.00,2013-04-26 22:55:00,
2013-04-26 17:56:00,52.3,47.0,30.17,SE,137,5.0,12.0,82,0.00,,---,0.63,VWS V14.00,2013-04-26 22:56:00,
2013-04-26 17:57:00,52.3,47.0,30.17,ESE,119,6.0,9.0,82,0.00,,---,0.63,VWS V14.00,2013-04-26 22:57:00,
2013-04-26 17:58:00,52.3,47.0,30.17,SE,131,5.0,11.0,82,0.00,,---,0.63,VWS V14.00,2013-04-26 22:58:00,
2013-04-26 17:59:00,52.3,47.0,30.17,SE,131,5.0,6.0,82,0.00,,---,0.63,VWS V14.00,2013-04-26 22:59:00,
2013-04-26 18:00:00,52.3,47.0,30.17,SSE,148,9.0,12.0,82,0.00,,---,0.63,VWS V14.00,2013-04-26 23:00:00,
2013-04-26 18:01:00,52.3,47.0,30.17,SSE,150,11.0,12.0,82,0.00,,---,0.63,VWS V14.00,2013-04-26 23:01:00,
2013-04-26 18:02:00,52.3,47.0,30.17,SSE,148,7.0,12.0,82,0.00,,---,0.63,VWS V14.00,2013-04-26 23:02:00,
2013-04-26 18:03:00,52.3,47.0,30.17,SSE,148,10.0,10.0,82,0.00,,---,0.63,VWS V14.00,2013-04-26 23:03:00,
2013-04-26 18:04:00,52.2,46.9,30.17,SSE,150,11.0,12.0,82,0.00,,---,0.63,VWS V14.00,2013-04-26 23:04:00,
2013-04-26 18:05:00,52.2,46.9,30.17,SE,133,6.0,12.0,82,0.00,,---,0.63,VWS V14.00,2013-04-26 23:05:00,
2013-04-26 18:06:00,52.2,46.9,30.18,SE,127,10.0,13.0,82,0.00,,---,0.63,VWS V14.00,2013-04-26 23:06:00,
2013-04-26 18:07:00,52.2,46.9,30.17,SE,133,6.0,12.0,82,0.00,,---,0.63,VWS V14.00,2013-04-26 23:07:00,
2013-04-26 18:08:00,52.2,47.2,30.17,SE,131,10.0,10.0,83,0.00,,---,0.63,VWS V14.00,2013-04-26 23:08:00,
2013-04-26 18:09:00,52.2,46.9,30.17,SE,130,6.0,11.0,82,0.00,,---,0.63,VWS V14.00,2013-04-26 23:09:00,
2013-04-26 18:10:00,52.2,46.9,30.17,SE,134,10.0,11.0,82,0.00,,---,0.63,VWS V14.00,2013-04-26 23:10:00,
2013-04-26 18:11:00,52.2,46.9,30.17,SE,134,7.0,9.0,82,0.00,,---,0.63,VWS V14.00,2013-04-26 23:11:00,
2013-04-26 18:12:00,52.2,46.9,30.17,SE,134,8.0,11.0,82,0.00,,---,0.63,VWS V14.00,2013-04-26 23:12:00,
2013-04-26 18:13:00,52.2,46.9,30.17,SE,140,9.0,10.0,82,0.00,,---,0.63,VWS V14.00,2013-04-26 23:13:00,
2013-04-26 18:14:00,52.2,46.9,30.17,SE,136,13.0,13.0,82,0.00,,---,0.63,VWS V14.00,2013-04-26 23:14:00,
2013-04-26 18:15:00,52.2,47.2,30.17,SE,134,13.0,13.0,83,0.00,,---,0.63,VWS V14.00,2013-04-26 23:15:00,
2013-04-26 18:16:00,52.2,46.9,30.17,SE,136,7.0,10.0,82,0.00,,---,0.63,VWS V14.00,2013-04-26 23:16:00,
2013-04-26 18:17:00,52.2,47.2,30.17,SE,136,11.0,13.0,83,0.00,,---,0.63,VWS V14.00,2013-04-26 23:17:00,
2013-04-26 18:18:00,52.2,47.2,30.17,SE,136,3.0,12.0,83,0.00,,---,0.63,VWS V14.00,2013-04-26 23:18:00,
2013-04-26 18:19:00,52.2,47.2,30.17,SE,146,10.0,11.0,83,0.00,,---,0.63,VWS V14.00,2013-04-26 23:19:00,
2013-04-26 18:20:00,52.2,47.2,30.17,SE,142,6.0,11.0,83,0.00,,---,0.63,VWS V14.00,2013-04-26 23:20:00,
2013-04-26 18:21:00,52.2,47.2,30.17,SE,146,7.0,8.0,83,0.00,,---,0.63,VWS V14.00,2013-04-26 23:21:00,
2013-04-26 18:22:00,52.2,47.2,30.17,SE,142,4.0,11.0,83,0.00,,---,0.63,VWS V14.00,2013-04-26 23:22:00,
2013-04-26 18:23:00,52.2,47.2,30.17,SE,141,7.0,13.0,83,0.00,,---,0.63,VWS V14.00,2013-04-26 23:23:00,
2013-04-26 18:24:00,52.2,46.9,30.17,SE,140,3.0,12.0,82,0.00,,---,0.63,VWS V14.00,2013-04-26 23:24:00,
2013-04-26 18:25:00,52.2,47.2,30.17,SE,142,5.0,6.0,83,0.00,,---,0.63,VWS V14.00,2013-04-26 23:25:00,
2013-04-26 18:26:00,52.2,47.2,30.17,SE,142,4.0,7.0,83,0.00,,---,0.63,VWS V14.00,2013-04-26 23:26:00,
2013-04-26 18:27:00,52.2,47.2,30.17,SE,142,5.0,6.0,83,0.00,,---,0.63,VWS V14.00,2013-04-26 23:27:00,
2013-04-26 18:28:00,52.2,47.2,30.17,SSE,159,10.0,10.0,83,0.00,,---,0.63,VWS V14.00,2013-04-26 23:28:00,
2013-04-26 18:29:00,52.2,47.2,30.17,SSE,155,5.0,11.0,83,0.00,,---,0.63,VWS V14.00,2013-04-26 23:29:00,
2013-04-26 18:30:00,52.2,47.2,30.17,SSE,150,7.0,9.0,83,0.00,,---,0.63,VWS V14.00,2013-04-26 23:30:00,
2013-04-26 18:31:00,52.2,47.2,30.17,SSE,151,6.0,11.0,83,0.00,,---,0.63,VWS V14.00,2013-04-26 23:31:00,
2013-04-26 18:32:00,52.2,47.2,30.17,SSE,150,9.0,9.0,83,0.00,,---,0.63,VWS V14.00,2013-04-26 23:32:00,
2013-04-26 18:33:00,52.2,47.2,30.17,SSE,148,7.0,10.0,83,0.00,,---,0.63,VWS V14.00,2013-04-26 23:33:00,
2013-04-26 18:34:00,52.2,47.2,30.17,SSE,148,4.0,10.0,83,0.00,,---,0.63,VWS V14.00,2013-04-26 23:34:00,
2013-04-26 18:35:00,52.2,47.2,30.17,SSE,161,12.0,12.0,83,0.00,,---,0.63,VWS V14.00,2013-04-26 23:35:00,
2013-04-26 18:36:00,52.2,47.2,30.17,SSE,148,10.0,10.0,83,0.00,,---,0.63,VWS V14.00,2013-04-26 23:36:00,
2013-04-26 18:37:00,52.2,47.2,30.17,SSE,160,11.0,12.0,83,0.00,,---,0.63,VWS V14.00,2013-04-26 23:37:00,
2013-04-26 18:38:00,52.2,47.2,30.17,SSE,158,9.0,11.0,83,0.00,,---,0.63,VWS V14.00,2013-04-26 23:38:00,
2013-04-26 18:39:00,52.2,47.2,30.17,SSE,147,11.0,12.0,83,0.00,,---,0.63,VWS V14.00,2013-04-26 23:39:00,
2013-04-26 18:40:00,52.2,47.2,30.17,SSE,152,6.0,7.0,83,0.00,,---,0.63,VWS V14.00,2013-04-26 23:40:00,
2013-04-26 18:41:00,52.2,47.5,30.17,SE,144,7.0,7.0,84,0.00,,---,0.63,VWS V14.00,2013-04-26 23:41:00,
2013-04-26 18:42:00,52.2,47.2,30.17,SSE,153,10.0,10.0,83,0.00,,---,0.63,VWS V14.00,2013-04-26 23:42:00,
2013-04-26 18:43:00,52.2,47.2,30.16,SSE,148,5.0,10.0,83,0.00,,---,0.63,VWS V14.00,2013-04-26 23:43:00,
2013-04-26 18:44:00,52.2,47.2,30.16,SSE,148,8.0,9.0,83,0.00,,---,0.63,VWS V14.00,2013-04-26 23:44:00,
2013-04-26 18:45:00,52.2,47.2,30.17,SE,144,4.0,10.0,83,0.00,,---,0.63,VWS V14.00,2013-04-26 23:45:00,
2013-04-26 18:46:00,52.2,47.2,30.17,SE,144,10.0,13.0,83,0.00,,---,0.63,VWS V14.00,2013-04-26 23:46:00,
2013-04-26 18:47:00,52.2,47.2,30.17,SE,144,1.0,10.0,83,0.00,,---,0.63,VWS V14.00,2013-04-26 23:47:00,
2013-04-26 18:48:00,52.2,47.2,30.16,SE,144,5.0,5.0,83,0.00,,---,0.63,VWS V14.00,2013-04-26 23:48:00,
2013-04-26 18:49:00,52.2,47.2,30.16,SSE,153,11.0,11.0,83,0.00,,---,0.63,VWS V14.00,2013-04-26 23:49:00,
2013-04-26 18:50:00,52.2,47.2,30.17,SSE,155,3.0,7.0,83,0.00,,---,0.63,VWS V14.00,2013-04-26 23:50:00,
2013-04-26 18:51:00,52.2,47.2,30.16,SSE,155,4.0,8.0,83,0.00,,---,0.63,VWS V14.00,2013-04-26 23:51:00,
2013-04-26 18:52:00,52.2,47.2,30.17,SSE,155,0.0,7.0,83,0.00,,---,0.63,VWS V14.00,2013-04-26 23:52:00,
2013-04-26 18:53:00,52.2,47.2,30.17,SSE,155,8.0,8.0,83,0.00,,---,0.63,VWS V14.00,2013-04-26 23:53:00,
2013-04-26 18:54:00,52.2,47.2,30.17,SSE,153,5.0,10.0,83,0.00,,---,0.63,VWS V14.00,2013-04-26 23:54:00,
2013-04-26 18:55:00,52.2,47.5,30.17,SSE,153,3.0,5.0,84,0.00,,---,0.63,VWS V14.00,2013-04-26 23:55:00,
2013-04-26 18:56:00,52.2,47.5,30.17,SSE,153,11.0,11.0,84,0.00,,---,0.63,VWS V14.00,2013-04-26 23:56:00,
2013-04-26 18:57:00,52.2,47.5,30.17,SSE,153,4.0,11.0,84,0.00,,---,0.63,VWS V14.00,2013-04-26 23:57:00,
2013-04-26 18:58:00,52.2,47.5,30.16,SSE,153,6.0,9.0,84,0.00,,---,0.63,VWS V14.00,2013-04-26 23:58:00,
2013-04-26 18:59:00,52.2,47.2,30.17,SSE,153,6.0,8.0,83,0.00,,---,0.63,VWS V14.00,2013-04-26 23:59:00,
2013-04-26 19:00:00,52.3,47.6,30.17,SSE,153,7.0,10.0,84,0.00,,---,0.63,VWS V14.00,2013-04-27 00:00:00,
2013-04-26 19:01:00,52.2,47.2,30.16,SSE,153,3.0,10.0,83,0.00,,---,0.63,VWS V14.00,2013-04-27 00:01:00,
2013-04-26 19:02:00,52.3,47.3,30.16,ESE,108,1.0,7.0,83,0.00,,---,0.63,VWS V14.00,2013-04-27 00:02:00,
2013-04-26 19:03:00,52.3,47.3,30.16,ESE,108,7.0,9.0,83,0.00,,---,0.63,VWS V14.00,2013-04-27 00:03:00,
2013-04-26 19:04:00,52.3,47.6,30.16,ESE,108,6.0,12.0,84,0.00,,---,0.63,VWS V14.00,2013-04-27 00:04:00,
2013-04-26 19:05:00,52.3,47.3,30.16,SE,135,10.0,11.0,83,0.00,,---,0.63,VWS V14.00,2013-04-27 00:05:00,
2013-04-26 19:06:00,52.3,47.6,30.16,SE,134,3.0,9.0,84,0.00,,---,0.63,VWS V14.00,2013-04-27 00:06:00,
2013-04-26 19:07:00,52.3,47.6,30.16,SE,135,11.0,13.0,84,0.00,,---,0.63,VWS V14.00,2013-04-27 00:07:00,
2013-04-26 19:08:00,52.3,47.3,30.16,SE,138,7.0,11.0,83,0.00,,---,0.63,VWS V14.00,2013-04-27 00:08:00,
2013-04-26 19:09:00,52.3,47.3,30.16,SE,140,11.0,11.0,83,0.00,,---,0.63,VWS V14.00,2013-04-27 00:09:00,
2013-04-26 19:10:00,52.3,47.3,30.16,SSE,149,6.0,10.0,83,0.00,,---,0.63,VWS V14.00,2013-04-27 00:10:00,
2013-04-26 19:11:00,52.3,47.3,30.16,SE,145,12.0,15.0,83,0.00,,---,0.63,VWS V14.00,2013-04-27 00:11:00,
2013-04-26 19:12:00,52.3,47.3,30.16,SSE,149,8.0,13.0,83,0.00,,---,0.63,VWS V14.00,2013-04-27 00:12:00,
2013-04-26 19:13:00,52.3,47.3,30.16,SSE,149,5.0,10.0,83,0.00,,---,0.63,VWS V14.00,2013-04-27 00:13:00,
2013-04-26 19:14:00,52.3,47.6,30.16,SSE,151,7.0,7.0,84,0.00,,---,0.63,VWS V14.00,2013-04-27 00:14:00,
2013-04-26 19:15:00,52.3,47.3,30.16,SE,142,3.0,8.0,83,0.00,,---,0.63,VWS V14.00,2013-04-27 00:15:00,
2013-04-26 19:16:00,52.3,47.6,30.16,SSE,152,9.0,9.0,84,0.00,,---,0.63,VWS V14.00,2013-04-27 00:16:00,
2013-04-26 19:17:00,52.3,47.3,30.16,SE,141,8.0,12.0,83,0.00,,---,0.63,VWS V14.00,2013-04-27 00:17:00,
2013-04-26 19:18:00,52.3,47.3,30.16,SE,142,4.0,8.0,83,0.00,,---,0.63,VWS V14.00,2013-04-27 00:18:00,
2013-04-26 19:19:00,52.3,47.3,30.16,SE,142,6.0,9.0,83,0.00,,---,0.63,VWS V14.00,2013-04-27 00:19:00,
2013-04-26 19:20:00,52.5,47.5,30.16,SE,140,13.0,14.0,83,0.00,,---,0.63,VWS V14.00,2013-04-27 00:20:00,
2013-04-26 19:21:00,52.3,47.3,30.16,SE,144,11.0,11.0,83,0.00,,---,0.63,VWS V14.00,2013-04-27 00:21:00,
2013-04-26 19:22:00,52.5,47.5,30.16,SE,143,12.0,14.0,83,0.00,,---,0.63,VWS V14.00,2013-04-27 00:22:00,
2013-04-26 19:23:00,52.5,47.5,30.16,SE,140,14.0,14.0,83,0.00,,---,0.63,VWS V14.00,2013-04-27 00:23:00,
2013-04-26 19:24:00,52.5,47.5,30.16,SE,143,8.0,14.0,83,0.00,,---,0.63,VWS V14.00,2013-04-27 00:24:00,
2013-04-26 19:25:00,52.5,47.8,30.16,SSE,161,4.0,6.0,84,0.00,,---,0.63,VWS V14.00,2013-04-27 00:25:00,
2013-04-26 19:26:00,52.5,47.5,30.16,SSE,159,4.0,16.0,83,0.00,,---,0.63,VWS V14.00,2013-04-27 00:26:00,
2013-04-26 19:27:00,52.5,47.5,30.16,SSE,161,3.0,11.0,83,0.00,,---,0.63,VWS V14.00,2013-04-27 00:27:00,
2013-04-26 19:28:00,52.5,47.5,30.16,SSE,160,7.0,10.0,83,0.00,,---,0.63,VWS V14.00,2013-04-27 00:28:00,
2013-04-26 19:29:00,52.5,47.8,30.16,SSE,154,12.0,12.0,84,0.00,,---,0.63,VWS V14.00,2013-04-27 00:29:00,
2013-04-26 19:30:00,52.5,47.8,30.16,SSE,154,6.0,6.0,84,0.00,,---,0.63,VWS V14.00,2013-04-27 00:30:00,
2013-04-26 19:31:00,52.5,47.5,30.16,SSE,154,3.0,7.0,83,0.00,,---,0.63,VWS V14.00,2013-04-27 00:31:00,
2013-04-26 19:32:00,52.5,47.8,30.16,SSE,154,5.0,5.0,84,0.00,,---,0.63,VWS V14.00,2013-04-27 00:32:00,
2013-04-26 19:33:00,52.5,47.8,30.16,SSE,154,4.0,6.0,84,0.00,,---,0.63,VWS V14.00,2013-04-27 00:33:00,
2013-04-26 19:34:00,52.5,47.8,30.16,SSE,154,3.0,9.0,84,0.00,,---,0.63,VWS V14.00,2013-04-27 00:34:00,
2013-04-26 19:35:00,52.5,47.8,30.16,SSE,152,11.0,11.0,84,0.00,,---,0.63,VWS V14.00,2013-04-27 00:35:00,
2013-04-26 19:36:00,52.5,47.5,30.16,SSE,153,5.0,11.0,83,0.00,,---,0.63,VWS V14.00,2013-04-27 00:36:00,
2013-04-26 19:37:00,52.5,47.8,30.16,SSE,152,7.0,14.0,84,0.00,,---,0.63,VWS V14.00,2013-04-27 00:37:00,
2013-04-26 19:38:00,52.5,47.8,30.16,SSE,150,4.0,11.0,84,0.00,,---,0.63,VWS V14.00,2013-04-27 00:38:00,
2013-04-26 19:39:00,52.5,47.8,30.16,SSE,150,5.0,7.0,84,0.00,,---,0.63,VWS V14.00,2013-04-27 00:39:00,
2013-04-26 19:40:00,52.5,47.8,30.15,SSE,150,8.0,9.0,84,0.00,,---,0.63,VWS V14.00,2013-04-27 00:40:00,
2013-04-26 19:41:00,52.5,47.8,30.16,SSE,150,6.0,7.0,84,0.00,,---,0.63,VWS V14.00,2013-04-27 00:41:00,
2013-04-26 19:42:00,52.5,47.8,30.15,SSE,150,2.0,7.0,84,0.00,,---,0.63,VWS V14.00,2013-04-27 00:42:00,
2013-04-26 19:43:00,52.5,47.8,30.15,SSE,150,7.0,9.0,84,0.00,,---,0.63,VWS V14.00,2013-04-27 00:43:00,
2013-04-26 19:44:00,52.5,47.8,30.15,SSE,150,7.0,9.0,84,0.00,,---,0.63,VWS V14.00,2013-04-27 00:44:00,
2013-04-26 19:45:00,52.5,47.5,30.15,SSE,153,2.0,5.0,83,0.00,,---,0.63,VWS V14.00,2013-04-27 00:45:00,
2013-04-26 19:46:00,52.5,47.8,30.15,SSE,152,8.0,10.0,84,0.00,,---,0.63,VWS V14.00,2013-04-27 00:46:00,
2013-04-26 19:47:00,52.5,47.5,30.15,SSE,153,5.0,9.0,83,0.00,,---,0.63,VWS V14.00,2013-04-27 00:47:00,
2013-04-26 19:48:00,52.5,47.8,30.15,SSE,154,6.0,7.0,84,0.00,,---,0.63,VWS V14.00,2013-04-27 00:48:00,
2013-04-26 19:49:00,52.5,47.5,30.15,SSE,156,9.0,9.0,83,0.00,,---,0.63,VWS V14.00,2013-04-27 00:49:00,
2013-04-26 19:50:00,52.5,47.8,30.15,SE,140,13.0,13.0,84,0.00,,---,0.63,VWS V14.00,2013-04-27 00:50:00,
2013-04-26 19:51:00,52.5,47.8,30.15,SSE,157,2.0,11.0,84,0.00,,---,0.63,VWS V14.00,2013-04-27 00:51:00,
2013-04-26 19:52:00,52.5,47.8,30.15,SSE,155,7.0,11.0,84,0.00,,---,0.63,VWS V14.00,2013-04-27 00:52:00,
2013-04-26 19:53:00,52.5,47.5,30.16,SE,136,13.0,14.0,83,0.00,,---,0.63,VWS V14.00,2013-04-27 00:53:00,
2013-04-26 19:54:00,52.5,47.8,30.16,SSE,155,9.0,13.0,84,0.00,,---,0.63,VWS V14.00,2013-04-27 00:54:00,
2013-04-26 19:55:00,52.5,47.8,30.16,SE,144,1.0,3.0,84,0.00,,---,0.63,VWS V14.00,2013-04-27 00:55:00,
2013-04-26 19:56:00,52.5,47.5,30.16,SE,139,11.0,14.0,83,0.00,,---,0.63,VWS V14.00,2013-04-27 00:56:00,
2013-04-26 19:57:00,52.5,47.8,30.16,SE,144,0.0,11.0,84,0.00,,---,0.63,VWS V14.00,2013-04-27 00:57:00,
2013-04-26 19:58:00,52.5,47.8,30.16,SE,146,11.0,14.0,84,0.00,,---,0.63,VWS V14.00,2013-04-27 00:58:00,
2013-04-26 19:59:00,52.5,47.8,30.16,SE,146,4.0,12.0,84,0.00,,---,0.63,VWS V14.00,2013-04-27 00:59:00,
2013-04-26 20:00:00,52.3,47.6,30.16,SSE,150,9.0,10.0,84,0.00,,---,0.63,VWS V14.00,2013-04-27 01:00:00,
2013-04-26 20:01:00,52.3,47.6,30.16,SSE,153,5.0,10.0,84,0.00,,---,0.63,VWS V14.00,2013-04-27 01:01:00,
2013-04-26 20:02:00,52.3,47.6,30.16,SSE,150,10.0,11.0,84,0.00,,---,0.63,VWS V14.00,2013-04-27 01:02:00,
2013-04-26 20:03:00,52.3,47.9,30.16,SSE,150,5.0,10.0,85,0.00,,---,0.63,VWS V14.00,2013-04-27 01:03:00,
2013-04-26 20:04:00,52.3,47.9,30.16,SSE,151,6.0,7.0,85,0.00,,---,0.63,VWS V14.00,2013-04-27 01:04:00,
2013-04-26 20:05:00,52.2,47.8,30.16,SSE,150,11.0,13.0,85,0.00,,---,0.63,VWS V14.00,2013-04-27 01:05:00,
2013-04-26 20:06:00,52.2,47.8,30.16,SSE,151,4.0,10.0,85,0.00,,---,0.63,VWS V14.00,2013-04-27 01:06:00,
2013-04-26 20:07:00,52.2,47.8,30.16,SSE,153,10.0,12.0,85,0.00,,---,0.63,VWS V14.00,2013-04-27 01:07:00,
2013-04-26 20:08:00,52.0,47.6,30.15,SSE,164,5.0,13.0,85,0.01,,---,0.64,VWS V14.00,2013-04-27 01:08:00,
2013-04-26 20:09:00,52.0,48.0,30.16,SSE,159,11.0,11.0,86,0.01,,---,0.64,VWS V14.00,2013-04-27 01:09:00,
2013-04-26 20:10:00,51.9,48.2,30.15,SE,146,4.0,5.0,87,0.01,,---,0.64,VWS V14.00,2013-04-27 01:10:00,
2013-04-26 20:11:00,51.9,47.8,30.15,SSE,159,5.0,12.0,86,0.01,,---,0.64,VWS V14.00,2013-04-27 01:11:00,
2013-04-26 20:12:00,51.9,47.8,30.15,SE,146,4.0,13.0,86,0.01,,---,0.64,VWS V14.00,2013-04-27 01:12:00,
2013-04-26 20:13:00,51.9,48.2,30.15,SE,146,7.0,10.0,87,0.01,,---,0.64,VWS V14.00,2013-04-27 01:13:00,
2013-04-26 20:14:00,51.9,47.8,30.15,SE,146,3.0,7.0,86,0.01,,---,0.64,VWS V14.00,2013-04-27 01:14:00,
2013-04-26 20:15:00,51.7,48.0,30.15,SE,146,8.0,9.0,87,0.02,,---,0.65,VWS V14.00,2013-04-27 01:15:00,
2013-04-26 20:16:00,51.7,48.0,30.15,SE,146,9.0,9.0,87,0.02,,---,0.65,VWS V14.00,2013-04-27 01:16:00,
2013-04-26 20:17:00,51.7,48.0,30.15,SE,146,4.0,10.0,87,0.02,,---,0.65,VWS V14.00,2013-04-27 01:17:00,
2013-04-26 20:18:00,51.7,48.0,30.15,SE,145,10.0,11.0,87,0.02,,---,0.65,VWS V14.00,2013-04-27 01:18:00,
2013-04-26 20:19:00,51.7,48.3,30.15,SE,144,5.0,13.0,88,0.02,,---,0.65,VWS V14.00,2013-04-27 01:19:00,
2013-04-26 20:20:00,51.7,48.3,30.15,SE,144,3.0,5.0,88,0.02,,---,0.65,VWS V14.00,2013-04-27 01:20:00,
2013-04-26 20:21:00,51.6,48.2,30.15,SE,144,4.0,6.0,88,0.02,,---,0.65,VWS V14.00,2013-04-27 01:21:00,
2013-04-26 20:22:00,51.6,48.2,30.15,SE,144,4.0,4.0,88,0.02,,---,0.65,VWS V14.00,2013-04-27 01:22:00,
2013-04-26 20:23:00,51.7,48.3,30.15,SE,144,6.0,6.0,88,0.02,,---,0.65,VWS V14.00,2013-04-27 01:23:00,
2013-04-26 20:24:00,51.6,48.2,30.15,SE,144,7.0,10.0,88,0.02,,---,0.65,VWS V14.00,2013-04-27 01:24:00,
2013-04-26 20:25:00,51.4,48.0,30.15,SE,144,1.0,3.0,88,0.02,,---,0.65,VWS V14.00,2013-04-27 01:25:00,
2013-04-26 20:26:00,51.4,48.0,30.15,SE,144,3.0,9.0,88,0.02,,---,0.65,VWS V14.00,2013-04-27 01:26:00,
2013-04-26 20:27:00,51.4,48.0,30.15,SE,144,3.0,4.0,88,0.02,,---,0.65,VWS V14.00,2013-04-27 01:27:00,
2013-04-26 20:28:00,51.3,47.9,30.15,SE,144,3.0,3.0,88,0.02,,---,0.65,VWS V14.00,2013-04-27 01:28:00,
2013-04-26 20:29:00,51.3,47.9,30.15,SE,144,5.0,6.0,88,0.02,,---,0.65,VWS V14.00,2013-04-27 01:29:00,
2013-04-26 20:30:00,51.3,48.2,30.15,SE,144,4.0,4.0,89,0.02,,---,0.65,VWS V14.00,2013-04-27 01:30:00,
2013-04-26 20:31:00,51.3,47.9,30.15,SE,144,5.0,7.0,88,0.02,,---,0.65,VWS V14.00,2013-04-27 01:31:00,
2013-04-26 20:32:00,51.3,48.2,30.15,SE,144,3.0,6.0,89,0.02,,---,0.65,VWS V14.00,2013-04-27 01:32:00,
2013-04-26 20:33:00,51.3,48.2,30.15,SE,144,4.0,4.0,89,0.02,,---,0.65,VWS V14.00,2013-04-27 01:33:00,
2013-04-26 20:34:00,51.3,48.2,30.15,SE,144,4.0,4.0,89,0.02,,---,0.65,VWS V14.00,2013-04-27 01:34:00,
2013-04-26 20:35:00,51.3,48.2,30.15,SE,144,5.0,6.0,89,0.02,,---,0.65,VWS V14.00,2013-04-27 01:35:00,
2013-04-26 20:36:00,51.3,48.2,30.15,SE,144,6.0,8.0,89,0.02,,---,0.65,VWS V14.00,2013-04-27 01:36:00,
2013-04-26 20:37:00,51.3,48.2,30.15,SE,144,5.0,9.0,89,0.02,,---,0.65,VWS V14.00,2013-04-27 01:37:00,
2013-04-26 20:38:00,51.3,48.2,30.15,SE,144,0.0,7.0,89,0.02,,---,0.65,VWS V14.00,2013-04-27 01:38:00,
2013-04-26 20:39:00,51.3,48.2,30.15,SE,144,5.0,6.0,89,0.02,,---,0.65,VWS V14.00,2013-04-27 01:39:00,
2013-04-26 20:40:00,51.4,48.6,30.15,SE,144,4.0,4.0,90,0.03,,---,0.66,VWS V14.00,2013-04-27 01:40:00,
2013-04-26 20:41:00,51.4,48.6,30.15,SE,144,5.0,6.0,90,0.02,,---,0.65,VWS V14.00,2013-04-27 01:41:00,
2013-04-26 20:42:00,51.4,48.6,30.15,SE,144,4.0,6.0,90,0.02,,---,0.65,VWS V14.00,2013-04-27 01:42:00,
2013-04-26 20:43:00,51.4,48.6,30.15,SE,144,4.0,5.0,90,0.03,,---,0.66,VWS V14.00,2013-04-27 01:43:00,
2013-04-26 20:44:00,51.4,48.6,30.15,SE,144,6.0,6.0,90,0.03,,---,0.66,VWS V14.00,2013-04-27 01:44:00,
2013-04-26 20:45:00,51.1,48.0,30.15,SE,144,4.0,5.0,89,0.04,,---,0.67,VWS V14.00,2013-04-27 01:45:00,
2013-04-26 20:46:00,51.3,48.2,30.15,SE,144,5.0,7.0,89,0.04,,---,0.67,VWS V14.00,2013-04-27 01:46:00,
2013-04-26 20:47:00,51.1,48.0,30.15,SE,144,1.0,5.0,89,0.04,,---,0.67,VWS V14.00,2013-04-27 01:47:00,
2013-04-26 20:48:00,51.1,48.3,30.15,SE,144,2.0,5.0,90,0.04,,---,0.67,VWS V14.00,2013-04-27 01:48:00,
2013-04-26 20:49:00,51.1,48.3,30.15,SE,144,4.0,4.0,90,0.04,,---,0.67,VWS V14.00,2013-04-27 01:49:00,
2013-04-26 20:50:00,51.0,48.2,30.16,SE,144,4.0,4.0,90,0.04,,---,0.67,VWS V14.00,2013-04-27 01:50:00,
2013-04-26 20:51:00,51.0,48.2,30.16,SE,144,2.0,4.0,90,0.04,,---,0.67,VWS V14.00,2013-04-27 01:51:00,
2013-04-26 20:52:00,51.0,48.2,30.16,SE,144,3.0,3.0,90,0.04,,---,0.67,VWS V14.00,2013-04-27 01:52:00,
2013-04-26 20:53:00,51.0,48.2,30.16,SE,144,2.0,4.0,90,0.04,,---,0.67,VWS V14.00,2013-04-27 01:53:00,
2013-04-26 20:54:00,51.0,48.2,30.16,SE,144,3.0,3.0,90,0.05,,---,0.68,VWS V14.00,2013-04-27 01:54:00,
2013-04-26 20:55:00,51.0,48.2,30.16,SE,144,0.0,0.0,90,0.05,,---,0.68,VWS V14.00,2013-04-27 01:55:00,
2013-04-26 20:56:00,51.0,48.2,30.16,SE,144,0.0,3.0,90,0.05,,---,0.68,VWS V14.00,2013-04-27 01:56:00,
2013-04-26 20:57:00,51.0,48.2,30.16,SE,144,0.0,0.0,90,0.05,,---,0.68,VWS V14.00,2013-04-27 01:57:00,
2013-04-26 20:58:00,51.0,48.2,30.16,SE,144,2.0,3.0,90,0.06,,---,0.69,VWS V14.00,2013-04-27 01:58:00,
2013-04-26 20:59:00,51.0,48.2,30.16,SE,144,3.0,4.0,90,0.06,,---,0.69,VWS V14.00,2013-04-27 01:59:00,
2013-04-26 21:00:00,51.0,48.2,30.16,SE,144,2.0,2.0,90,0.08,,---,0.71,VWS V14.00,2013-04-27 02:00:00,
2013-04-26 21:01:00,51.0,48.2,30.16,SE,144,0.0,0.0,90,0.06,,---,0.69,VWS V14.00,2013-04-27 02:01:00,
2013-04-26 21:02:00,51.0,48.2,30.16,SE,144,1.0,1.0,90,0.07,,---,0.70,VWS V14.00,2013-04-27 02:02:00,
2013-04-26 21:03:00,51.0,48.5,30.17,SE,144,1.0,3.0,91,0.08,,---,0.71,VWS V14.00,2013-04-27 02:03:00,
2013-04-26 21:04:00,51.0,48.2,30.17,SE,144,0.0,2.0,90,0.09,,---,0.72,VWS V14.00,2013-04-27 02:04:00,
2013-04-26 21:05:00,51.0,48.5,30.17,SE,144,0.0,0.0,91,0.11,,---,0.74,VWS V14.00,2013-04-27 02:05:00,
2013-04-26 21:06:00,51.0,48.5,30.17,SE,144,0.0,0.0,91,0.10,,---,0.73,VWS V14.00,2013-04-27 02:06:00,
2013-04-26 21:07:00,51.0,48.5,30.17,SE,144,0.0,0.0,91,0.11,,---,0.74,VWS V14.00,2013-04-27 02:07:00,
2013-04-26 21:08:00,51.0,48.5,30.17,SE,144,0.0,0.0,91,0.12,,---,0.75,VWS V14.00,2013-04-27 02:08:00,
2013-04-26 21:09:00,51.0,48.5,30.16,SE,144,2.0,2.0,91,0.11,,---,0.75,VWS V14.00,2013-04-27 02:09:00,
2013-04-26 21:10:00,50.8,48.3,30.17,SE,144,1.0,4.0,91,0.12,,---,0.76,VWS V14.00,2013-04-27 02:10:00,
2013-04-26 21:11:00,51.0,48.5,30.17,SE,144,0.0,3.0,91,0.11,,---,0.75,VWS V14.00,2013-04-27 02:11:00,
2013-04-26 21:12:00,50.8,48.3,30.17,SE,144,4.0,6.0,91,0.11,,---,0.75,VWS V14.00,2013-04-27 02:12:00,
2013-04-26 21:13:00,50.8,48.3,30.17,SE,144,0.0,4.0,91,0.12,,---,0.76,VWS V14.00,2013-04-27 02:13:00,
2013-04-26 21:14:00,50.8,48.3,30.17,SE,144,0.0,1.0,91,0.12,,---,0.76,VWS V14.00,2013-04-27 02:14:00,
2013-04-26 21:15:00,50.8,48.3,30.17,SE,144,3.0,3.0,91,0.12,,---,0.77,VWS V14.00,2013-04-27 02:15:00,
2013-04-26 21:16:00,50.8,48.3,30.17,SE,144,0.0,2.0,91,0.12,,---,0.77,VWS V14.00,2013-04-27 02:16:00,
2013-04-26 21:17:00,50.8,48.3,30.17,SE,144,3.0,4.0,91,0.12,,---,0.77,VWS V14.00,2013-04-27 02:17:00,
2013-04-26 21:18:00,50.8,48.3,30.18,SE,144,0.0,3.0,91,0.12,,---,0.77,VWS V14.00,2013-04-27 02:18:00,
2013-04-26 21:19:00,50.8,48.3,30.18,SE,144,0.0,1.0,91,0.12,,---,0.77,VWS V14.00,2013-04-27 02:19:00,
2013-04-26 21:20:00,51.0,48.5,30.18,SE,144,3.0,4.0,91,0.12,,---,0.77,VWS V14.00,2013-04-27 02:20:00,
2013-04-26 21:21:00,51.0,48.5,30.17,SE,144,3.0,4.0,91,0.12,,---,0.77,VWS V14.00,2013-04-27 02:21:00,
2013-04-26 21:22:00,51.0,48.5,30.18,SE,144,3.0,5.0,91,0.12,,---,0.77,VWS V14.00,2013-04-27 02:22:00,
2013-04-26 21:23:00,51.0,48.5,30.18,SE,144,4.0,4.0,91,0.12,,---,0.77,VWS V14.00,2013-04-27 02:23:00,
2013-04-26 21:24:00,51.0,48.5,30.18,SE,144,3.0,5.0,91,0.12,,---,0.77,VWS V14.00,2013-04-27 02:24:00,
2013-04-26 21:25:00,51.0,48.8,30.18,SE,144,3.0,4.0,92,0.14,,---,0.79,VWS V14.00,2013-04-27 02:25:00,
2013-04-26 21:26:00,51.0,48.8,30.18,SE,144,3.0,4.0,92,0.13,,---,0.78,VWS V14.00,2013-04-27 02:26:00,
2013-04-26 21:27:00,51.0,48.8,30.18,SE,144,3.0,4.0,92,0.14,,---,0.79,VWS V14.00,2013-04-27 02:27:00,
2013-04-26 21:28:00,51.0,48.8,30.18,SE,144,0.0,4.0,92,0.14,,---,0.79,VWS V14.00,2013-04-27 02:28:00,
2013-04-26 21:29:00,51.0,48.8,30.18,SE,144,4.0,4.0,92,0.14,,---,0.79,VWS V14.00,2013-04-27 02:29:00,
2013-04-26 21:30:00,51.0,48.8,30.18,SE,144,5.0,5.0,92,0.14,,---,0.79,VWS V14.00,2013-04-27 02:30:00,
2013-04-26 21:31:00,51.0,48.8,30.18,SE,144,5.0,6.0,92,0.14,,---,0.79,VWS V14.00,2013-04-27 02:31:00,
2013-04-26 21:32:00,51.0,48.8,30.18,SE,144,4.0,6.0,92,0.14,,---,0.79,VWS V14.00,2013-04-27 02:32:00,
2013-04-26 21:33:00,51.0,48.8,30.18,SE,144,3.0,5.0,92,0.14,,---,0.79,VWS V14.00,2013-04-27 02:33:00,
2013-04-26 21:34:00,51.1,48.9,30.18,SE,144,3.0,4.0,92,0.14,,---,0.79,VWS V14.00,2013-04-27 02:34:00,
2013-04-26 21:35:00,51.1,48.9,30.18,SE,144,5.0,5.0,92,0.14,,---,0.79,VWS V14.00,2013-04-27 02:35:00,
2013-04-26 21:36:00,51.1,48.9,30.18,SE,144,3.0,6.0,92,0.14,,---,0.79,VWS V14.00,2013-04-27 02:36:00,
2013-04-26 21:37:00,51.1,48.9,30.18,SE,144,5.0,6.0,92,0.14,,---,0.79,VWS V14.00,2013-04-27 02:37:00,
2013-04-26 21:38:00,51.1,48.9,30.18,SE,144,5.0,6.0,92,0.14,,---,0.79,VWS V14.00,2013-04-27 02:38:00,
2013-04-26 21:39:00,51.1,48.9,30.17,SE,144,4.0,7.0,92,0.14,,---,0.79,VWS V14.00,2013-04-27 02:39:00,
2013-04-26 21:40:00,51.1,48.9,30.17,SE,144,7.0,9.0,92,0.14,,---,0.79,VWS V14.00,2013-04-27 02:40:00,
2013-04-26 21:41:00,51.0,48.8,30.17,SE,144,7.0,9.0,92,0.14,,---,0.79,VWS V14.00,2013-04-27 02:41:00,
2013-04-26 21:42:00,51.1,48.9,30.17,SE,144,7.0,9.0,92,0.14,,---,0.79,VWS V14.00,2013-04-27 02:42:00,
2013-04-26 21:43:00,51.1,48.9,30.17,SE,144,6.0,9.0,92,0.14,,---,0.79,VWS V14.00,2013-04-27 02:43:00,
2013-04-26 21:44:00,51.1,48.9,30.17,SE,144,5.0,9.0,92,0.13,,---,0.79,VWS V14.00,2013-04-27 02:44:00,
2013-04-26 21:45:00,51.1,48.9,30.17,SE,144,7.0,7.0,92,0.12,,---,0.79,VWS V14.00,2013-04-27 02:45:00,
2013-04-26 21:46:00,51.1,48.9,30.17,SE,144,10.0,10.0,92,0.12,,---,0.79,VWS V14.00,2013-04-27 02:46:00,
2013-04-26 21:47:00,51.1,48.9,30.17,SE,144,6.0,10.0,92,0.12,,---,0.79,VWS V14.00,2013-04-27 02:47:00,
2013-04-26 21:48:00,51.1,48.9,30.17,SE,144,5.0,8.0,92,0.12,,---,0.79,VWS V14.00,2013-04-27 02:48:00,
2013-04-26 21:49:00,51.3,49.1,30.17,SE,144,6.0,6.0,92,0.12,,---,0.79,VWS V14.00,2013-04-27 02:49:00,
2013-04-26 21:50:00,51.3,49.1,30.17,SE,144,4.0,6.0,92,0.12,,---,0.79,VWS V14.00,2013-04-27 02:50:00,
2013-04-26 21:51:00,51.3,49.1,30.17,SE,144,6.0,6.0,92,0.12,,---,0.79,VWS V14.00,2013-04-27 02:51:00,
2013-04-26 21:52:00,51.3,49.1,30.17,SE,144,6.0,8.0,92,0.12,,---,0.79,VWS V14.00,2013-04-27 02:52:00,
2013-04-26 21:53:00,51.3,49.1,30.17,SE,144,6.0,9.0,92,0.12,,---,0.79,VWS V14.00,2013-04-27 02:53:00,
2013-04-26 21:54:00,51.3,49.1,30.17,SE,144,6.0,8.0,92,0.12,,---,0.79,VWS V14.00,2013-04-27 02:54:00,
2013-04-26 21:55:00,51.3,49.1,30.17,SE,144,9.0,9.0,92,0.11,,---,0.79,VWS V14.00,2013-04-27 02:55:00,
2013-04-26 21:56:00,51.3,49.1,30.17,SE,144,6.0,7.0,92,0.11,,---,0.79,VWS V14.00,2013-04-27 02:56:00,
2013-04-26 21:57:00,51.3,49.1,30.17,SE,144,8.0,9.0,92,0.11,,---,0.79,VWS V14.00,2013-04-27 02:57:00,
2013-04-26 21:58:00,51.3,48.8,30.17,SE,144,6.0,9.0,91,0.11,,---,0.79,VWS V14.00,2013-04-27 02:58:00,
2013-04-26 21:59:00,51.3,48.8,30.18,SE,144,6.0,8.0,91,0.10,,---,0.79,VWS V14.00,2013-04-27 02:59:00,
2013-04-26 22:00:00,51.4,48.9,30.18,SE,144,7.0,7.0,91,0.09,,---,0.79,VWS V14.00,2013-04-27 03:00:00,
2013-04-26 22:01:00,51.4,48.9,30.18,SE,144,8.0,8.0,91,0.10,,---,0.79,VWS V14.00,2013-04-27 03:01:00,
2013-04-26 22:02:00,51.4,48.9,30.18,SE,144,4.0,8.0,91,0.10,,---,0.79,VWS V14.00,2013-04-27 03:02:00,
2013-04-26 22:03:00,51.4,48.9,30.17,SE,144,6.0,7.0,91,0.09,,---,0.79,VWS V14.00,2013-04-27 03:03:00,
2013-04-26 22:04:00,51.4,48.9,30.17,SE,144,6.0,7.0,91,0.08,,---,0.79,VWS V14.00,2013-04-27 03:04:00,
2013-04-26 22:05:00,51.6,49.1,30.17,SE,144,4.0,4.0,91,0.05,,---,0.79,VWS V14.00,2013-04-27 03:05:00,
2013-04-26 22:06:00,51.4,48.9,30.17,SE,144,6.0,7.0,91,0.07,,---,0.79,VWS V14.00,2013-04-27 03:06:00,
2013-04-26 22:07:00,51.4,48.9,30.17,SE,144,4.0,6.0,91,0.06,,---,0.79,VWS V14.00,2013-04-27 03:07:00,
2013-04-26 22:08:00,51.6,49.1,30.17,SE,144,4.0,5.0,91,0.05,,---,0.79,VWS V14.00,2013-04-27 03:08:00,
2013-04-26 22:09:00,51.6,49.1,30.17,SE,144,4.0,6.0,91,0.04,,---,0.79,VWS V14.00,2013-04-27 03:09:00,
2013-04-26 22:10:00,51.4,48.9,30.17,SE,144,5.0,5.0,91,0.04,,---,0.79,VWS V14.00,2013-04-27 03:10:00,
2013-04-26 22:11:00,51.4,48.9,30.17,SE,144,5.0,10.0,91,0.04,,---,0.79,VWS V14.00,2013-04-27 03:11:00,
2013-04-26 22:12:00,51.4,48.9,30.17,SE,144,5.0,9.0,91,0.04,,---,0.79,VWS V14.00,2013-04-27 03:12:00,
2013-04-26 22:13:00,51.4,48.9,30.17,SE,144,5.0,5.0,91,0.04,,---,0.79,VWS V14.00,2013-04-27 03:13:00,
2013-04-26 22:14:00,51.4,48.9,30.17,SE,144,3.0,5.0,91,0.03,,---,0.79,VWS V14.00,2013-04-27 03:14:00,
2013-04-26 22:15:00,51.6,49.1,30.17,SE,144,2.0,6.0,91,0.02,,---,0.79,VWS V14.00,2013-04-27 03:15:00,
2013-04-26 22:16:00,51.4,48.9,30.17,SE,144,4.0,5.0,91,0.03,,---,0.79,VWS V14.00,2013-04-27 03:16:00,
2013-04-26 22:17:00,51.6,49.1,30.17,SE,144,6.0,6.0,91,0.02,,---,0.79,VWS V14.00,2013-04-27 03:17:00,
2013-04-26 22:18:00,51.6,49.1,30.17,SE,144,4.0,6.0,91,0.02,,---,0.79,VWS V14.00,2013-04-27 03:18:00,
2013-04-26 22:19:00,51.6,49.1,30.17,SE,144,5.0,5.0,91,0.02,,---,0.79,VWS V14.00,2013-04-27 03:19:00,
2013-04-26 22:20:00,51.6,49.1,30.18,SE,144,4.0,4.0,91,0.02,,---,0.79,VWS V14.00,2013-04-27 03:20:00,
2013-04-26 22:21:00,51.6,49.1,30.18,SE,144,4.0,9.0,91,0.02,,---,0.79,VWS V14.00,2013-04-27 03:21:00,
2013-04-26 22:22:00,51.6,49.1,30.18,SE,144,4.0,7.0,91,0.02,,---,0.79,VWS V14.00,2013-04-27 03:22:00,
2013-04-26 22:23:00,51.6,49.1,30.18,SE,144,6.0,7.0,91,0.02,,---,0.79,VWS V14.00,2013-04-27 03:23:00,
2013-04-26 22:24:00,51.6,49.1,30.18,SE,144,4.0,6.0,91,0.02,,---,0.79,VWS V14.00,2013-04-27 03:24:00,
2013-04-26 22:25:00,51.7,49.2,30.18,SE,144,7.0,7.0,91,0.00,,---,0.79,VWS V14.00,2013-04-27 03:25:00,
2013-04-26 22:26:00,51.7,49.2,30.18,SE,144,5.0,7.0,91,0.02,,---,0.79,VWS V14.00,2013-04-27 03:26:00,
2013-04-26 22:27:00,51.7,49.2,30.18,SE,144,5.0,5.0,91,0.01,,---,0.79,VWS V14.00,2013-04-27 03:27:00,
2013-04-26 22:28:00,51.7,49.2,30.18,SE,144,6.0,7.0,91,0.00,,---,0.79,VWS V14.00,2013-04-27 03:28:00,
2013-04-26 22:29:00,51.7,49.2,30.18,SE,144,5.0,6.0,91,0.00,,---,0.79,VWS V14.00,2013-04-27 03:29:00,
2013-04-26 22:30:00,51.7,49.2,30.18,SE,144,6.0,6.0,91,0.00,,---,0.79,VWS V14.00,2013-04-27 03:30:00,
2013-04-26 22:31:00,51.7,49.2,30.18,SE,144,6.0,7.0,91,0.00,,---,0.79,VWS V14.00,2013-04-27 03:31:00,
2013-04-26 22:32:00,51.7,49.2,30.18,SE,144,6.0,6.0,91,0.00,,---,0.79,VWS V14.00,2013-04-27 03:32:00,
2013-04-26 22:33:00,51.7,49.2,30.18,SE,144,6.0,7.0,91,0.00,,---,0.79,VWS V14.00,2013-04-27 03:33:00,
2013-04-26 22:34:00,51.7,49.2,30.18,SE,142,6.0,10.0,91,0.00,,---,0.79,VWS V14.00,2013-04-27 03:34:00,
2013-04-26 22:35:00,51.9,49.4,30.18,SE,142,5.0,6.0,91,0.00,,---,0.79,VWS V14.00,2013-04-27 03:35:00,
2013-04-26 22:36:00,51.7,49.2,30.18,SE,142,5.0,7.0,91,0.00,,---,0.79,VWS V14.00,2013-04-27 03:36:00,
2013-04-26 22:37:00,51.9,49.4,30.18,SE,142,5.0,7.0,91,0.00,,---,0.79,VWS V14.00,2013-04-27 03:37:00,
2013-04-26 22:38:00,51.9,49.4,30.18,SE,142,4.0,6.0,91,0.00,,---,0.79,VWS V14.00,2013-04-27 03:38:00,
2013-04-26 22:39:00,51.9,49.4,30.18,SE,142,4.0,7.0,91,0.00,,---,0.79,VWS V14.00,2013-04-27 03:39:00,
2013-04-26 22:40:00,51.9,49.4,30.18,SE,142,1.0,1.0,91,0.00,,---,0.79,VWS V14.00,2013-04-27 03:40:00,
2013-04-26 22:41:00,51.9,49.4,30.18,SE,142,5.0,5.0,91,0.00,,---,0.79,VWS V14.00,2013-04-27 03:41:00,
2013-04-26 22:42:00,51.9,49.4,30.18,SE,142,1.0,6.0,91,0.00,,---,0.79,VWS V14.00,2013-04-27 03:42:00,
2013-04-26 22:43:00,51.9,49.4,30.18,SE,142,1.0,5.0,91,0.00,,---,0.79,VWS V14.00,2013-04-27 03:43:00,
2013-04-26 22:44:00,51.9,49.4,30.18,SE,142,0.0,4.0,91,0.00,,---,0.79,VWS V14.00,2013-04-27 03:44:00,
2013-04-26 22:45:00,51.9,49.4,30.18,SE,142,0.0,0.0,91,0.00,,---,0.79,VWS V14.00,2013-04-27 03:45:00,
2013-04-26 22:46:00,51.9,49.4,30.18,SE,142,2.0,5.0,91,0.00,,---,0.79,VWS V14.00,2013-04-27 03:46:00,
2013-04-26 22:47:00,51.9,49.4,30.18,SE,142,0.0,2.0,91,0.00,,---,0.79,VWS V14.00,2013-04-27 03:47:00,
2013-04-26 22:48:00,51.9,49.4,30.18,SE,142,0.0,0.0,91,0.00,,---,0.79,VWS V14.00,2013-04-27 03:48:00,
2013-04-26 22:49:00,51.9,49.4,30.18,SE,142,3.0,4.0,91,0.00,,---,0.79,VWS V14.00,2013-04-27 03:49:00,
2013-04-26 22:50:00,51.9,49.4,30.18,SE,142,0.0,0.0,91,0.00,,---,0.79,VWS V14.00,2013-04-27 03:50:00,
2013-04-26 22:51:00,51.9,49.4,30.18,SE,142,0.0,3.0,91,0.00,,---,0.79,VWS V14.00,2013-04-27 03:51:00,
2013-04-26 22:52:00,51.9,49.4,30.18,SE,142,0.0,0.0,91,0.00,,---,0.79,VWS V14.00,2013-04-27 03:52:00,
2013-04-26 22:53:00,51.9,49.4,30.18,SE,142,1.0,3.0,91,0.00,,---,0.79,VWS V14.00,2013-04-27 03:53:00,
2013-04-26 22:54:00,51.9,49.4,30.18,SE,142,0.0,2.0,91,0.00,,---,0.79,VWS V14.00,2013-04-27 03:54:00,
2013-04-26 22:55:00,52.0,49.5,30.18,SE,142,0.0,0.0,91,0.00,,---,0.79,VWS V14.00,2013-04-27 03:55:00,
2013-04-26 22:56:00,52.0,49.5,30.18,SE,142,0.0,0.0,91,0.00,,---,0.79,VWS V14.00,2013-04-27 03:56:00,
2013-04-26 22:57:00,52.0,49.5,30.18,SE,142,0.0,0.0,91,0.00,,---,0.79,VWS V14.00,2013-04-27 03:57:00,
2013-04-26 22:58:00,52.0,49.5,30.18,SE,142,0.0,0.0,91,0.00,,---,0.79,VWS V14.00,2013-04-27 03:58:00,
2013-04-26 22:59:00,52.0,49.5,30.18,SE,142,0.0,0.0,91,0.00,,---,0.79,VWS V14.00,2013-04-27 03:59:00,
2013-04-26 23:00:00,52.0,49.5,30.18,SE,142,0.0,0.0,91,0.00,,---,0.79,VWS V14.00,2013-04-27 04:00:00,
2013-04-26 23:01:00,52.0,49.5,30.18,SE,142,1.0,6.0,91,0.00,,---,0.79,VWS V14.00,2013-04-27 04:01:00,
2013-04-26 23:02:00,52.0,49.5,30.18,SE,142,0.0,0.0,91,0.00,,---,0.79,VWS V14.00,2013-04-27 04:02:00,
2013-04-26 23:03:00,52.0,49.5,30.18,SE,142,1.0,6.0,91,0.00,,---,0.79,VWS V14.00,2013-04-27 04:03:00,
2013-04-26 23:04:00,52.0,49.5,30.18,SE,142,1.0,5.0,91,0.00,,---,0.79,VWS V14.00,2013-04-27 04:04:00,
2013-04-26 23:05:00,52.0,49.2,30.18,SE,142,4.0,4.0,90,0.00,,---,0.79,VWS V14.00,2013-04-27 04:05:00,
2013-04-26 23:06:00,52.0,49.2,30.18,SE,142,0.0,0.0,90,0.00,,---,0.79,VWS V14.00,2013-04-27 04:06:00,
2013-04-26 23:07:00,52.0,49.2,30.18,SE,142,0.0,2.0,90,0.00,,---,0.79,VWS V14.00,2013-04-27 04:07:00,
2013-04-26 23:08:00,52.0,49.2,30.18,SE,142,0.0,1.0,90,0.00,,---,0.79,VWS V14.00,2013-04-27 04:08:00,
2013-04-26 23:09:00,52.0,49.2,30.18,SE,142,0.0,3.0,90,0.00,,---,0.79,VWS V14.00,2013-04-27 04:09:00,
2013-04-26 23:10:00,52.0,49.2,30.18,SE,142,0.0,0.0,90,0.00,,---,0.79,VWS V14.00,2013-04-27 04:10:00,
2013-04-26 23:11:00,52.0,49.5,30.18,SE,142,0.0,0.0,91,0.00,,---,0.79,VWS V14.00,2013-04-27 04:11:00,
2013-04-26 23:12:00,52.0,49.5,30.18,SE,142,0.0,0.0,91,0.00,,---,0.79,VWS V14.00,2013-04-27 04:12:00,
2013-04-26 23:13:00,52.0,49.5,30.18,SE,142,0.0,0.0,91,0.00,,---,0.79,VWS V14.00,2013-04-27 04:13:00,
2013-04-26 23:14:00,52.2,49.7,30.18,SE,142,0.0,0.0,91,0.00,,---,0.79,VWS V14.00,2013-04-27 04:14:00,
2013-04-26 23:15:00,52.2,49.7,30.18,SE,142,0.0,0.0,91,0.00,,---,0.79,VWS V14.00,2013-04-27 04:15:00,
2013-04-26 23:16:00,52.2,49.7,30.18,SE,142,2.0,2.0,91,0.00,,---,0.79,VWS V14.00,2013-04-27 04:16:00,
2013-04-26 23:17:00,52.2,49.7,30.18,SE,142,0.0,0.0,91,0.00,,---,0.79,VWS V14.00,2013-04-27 04:17:00,
2013-04-26 23:18:00,52.2,49.7,30.18,SE,142,2.0,3.0,91,0.00,,---,0.79,VWS V14.00,2013-04-27 04:18:00,
2013-04-26 23:19:00,52.2,49.7,30.18,SE,142,4.0,5.0,91,0.00,,---,0.79,VWS V14.00,2013-04-27 04:19:00,
2013-04-26 23:20:00,52.2,49.7,30.18,SE,142,10.0,10.0,91,0.00,,---,0.79,VWS V14.00,2013-04-27 04:20:00,
2013-04-26 23:21:00,52.3,49.8,30.18,SE,142,6.0,6.0,91,0.00,,---,0.79,VWS V14.00,2013-04-27 04:21:00,
2013-04-26 23:22:00,52.2,49.7,30.18,SE,142,6.0,7.0,91,0.00,,---,0.79,VWS V14.00,2013-04-27 04:22:00,
2013-04-26 23:23:00,52.3,49.8,30.18,SE,142,6.0,7.0,91,0.00,,---,0.79,VWS V14.00,2013-04-27 04:23:00,
2013-04-26 23:24:00,52.3,49.8,30.18,SE,142,4.0,7.0,91,0.00,,---,0.79,VWS V14.00,2013-04-27 04:24:00,
2013-04-26 23:25:00,52.3,49.8,30.18,SE,142,4.0,6.0,91,0.00,,---,0.79,VWS V14.00,2013-04-27 04:25:00,
2013-04-26 23:26:00,52.2,49.7,30.18,SE,142,0.0,0.0,91,0.00,,---,0.79,VWS V14.00,2013-04-27 04:26:00,
2013-04-26 23:27:00,52.2,49.7,30.18,SE,142,4.0,4.0,91,0.00,,---,0.79,VWS V14.00,2013-04-27 04:27:00,
2013-04-26 23:28:00,52.2,49.7,30.18,SE,142,0.0,4.0,91,0.00,,---,0.79,VWS V14.00,2013-04-27 04:28:00,
2013-04-26 23:29:00,52.2,49.7,30.18,SE,142,0.0,2.0,91,0.00,,---,0.79,VWS V14.00,2013-04-27 04:29:00,
2013-04-26 23:30:00,52.2,49.7,30.18,SE,142,0.0,0.0,91,0.00,,---,0.79,VWS V14.00,2013-04-27 04:30:00,
2013-04-26 23:31:00,52.2,49.7,30.17,SE,142,3.0,4.0,91,0.00,,---,0.79,VWS V14.00,2013-04-27 04:31:00,
2013-04-26 23:32:00,52.2,49.7,30.18,SE,142,3.0,4.0,91,0.00,,---,0.79,VWS V14.00,2013-04-27 04:32:00,
2013-04-26 23:33:00,52.2,49.7,30.17,SE,142,4.0,4.0,91,0.00,,---,0.79,VWS V14.00,2013-04-27 04:33:00,
2013-04-26 23:34:00,52.2,49.7,30.17,SE,142,2.0,4.0,91,0.00,,---,0.79,VWS V14.00,2013-04-27 04:34:00,
2013-04-26 23:35:00,52.2,49.7,30.17,SE,142,3.0,5.0,91,0.00,,---,0.79,VWS V14.00,2013-04-27 04:35:00,
2013-04-26 23:36:00,52.2,49.7,30.16,SE,142,4.0,5.0,91,0.00,,---,0.79,VWS V14.00,2013-04-27 04:36:00,
2013-04-26 23:37:00,52.2,49.7,30.17,SE,142,0.0,4.0,91,0.00,,---,0.79,VWS V14.00,2013-04-27 04:37:00,
2013-04-26 23:38:00,52.2,49.7,30.16,SE,142,4.0,5.0,91,0.00,,---,0.79,VWS V14.00,2013-04-27 04:38:00,
2013-04-26 23:39:00,52.2,49.7,30.16,SE,142,0.0,4.0,91,0.00,,---,0.79,VWS V14.00,2013-04-27 04:39:00,
2013-04-26 23:40:00,52.3,49.8,30.17,SE,142,0.0,2.0,91,0.00,,---,0.79,VWS V14.00,2013-04-27 04:40:00,
2013-04-26 23:41:00,52.2,49.7,30.17,SE,142,4.0,4.0,91,0.00,,---,0.79,VWS V14.00,2013-04-27 04:41:00,
2013-04-26 23:42:00,52.2,49.7,30.17,SE,142,1.0,5.0,91,0.00,,---,0.79,VWS V14.00,2013-04-27 04:42:00,
2013-04-26 23:43:00,52.2,49.7,30.17,SE,142,2.0,4.0,91,0.00,,---,0.79,VWS V14.00,2013-04-27 04:43:00,
2013-04-26 23:44:00,52.2,49.7,30.17,SE,142,1.0,5.0,91,0.00,,---,0.79,VWS V14.00,2013-04-27 04:44:00,
2013-04-26 23:45:00,52.3,49.8,30.17,SE,142,2.0,3.0,91,0.00,,---,0.79,VWS V14.00,2013-04-27 04:45:00,
2013-04-26 23:46:00,52.3,49.8,30.16,SE,142,4.0,4.0,91,0.00,,---,0.79,VWS V14.00,2013-04-27 04:46:00,
2013-04-26 23:47:00,52.3,48.9,30.16,SE,142,3.0,4.0,88,0.00,,---,0.79,VWS V14.00,2013-04-27 04:47:00,
2013-04-26 23:48:00,52.3,49.8,30.16,SE,142,4.0,4.0,91,0.00,,---,0.79,VWS V14.00,2013-04-27 04:48:00,
2013-04-26 23:49:00,52.3,49.8,30.17,SE,142,3.0,6.0,91,0.00,,---,0.79,VWS V14.00,2013-04-27 04:49:00,
2013-04-26 23:50:00,52.3,49.8,30.16,SE,142,2.0,4.0,91,0.00,,---,0.79,VWS V14.00,2013-04-27 04:50:00,
2013-04-26 23:51:00,52.5,50.0,30.16,SE,142,3.0,4.0,91,0.00,,---,0.79,VWS V14.00,2013-04-27 04:51:00,
2013-04-26 23:52:00,52.3,49.8,30.16,SE,142,2.0,5.0,91,0.00,,---,0.79,VWS V14.00,2013-04-27 04:52:00,
2013-04-26 23:53:00,52.5,50.0,30.16,SE,142,4.0,9.0,91,0.00,,---,0.79,VWS V14.00,2013-04-27 04:53:00,
2013-04-26 23:54:00,52.5,50.0,30.16,SE,142,7.0,7.0,91,0.00,,---,0.79,VWS V14.00,2013-04-27 04:54:00,
2013-04-26 23:55:00,52.5,50.0,30.16,SE,142,5.0,7.0,91,0.00,,---,0.79,VWS V14.00,2013-04-27 04:55:00,
2013-04-26 23:56:00,52.5,50.0,30.16,SE,142,3.0,3.0,91,0.00,,---,0.79,VWS V14.00,2013-04-27 04:56:00,
2013-04-26 23:57:00,52.5,50.0,30.16,SE,142,3.0,8.0,91,0.00,,---,0.79,VWS V14.00,2013-04-27 04:57:00,
2013-04-26 23:58:00,52.5,50.0,30.16,SE,142,2.0,5.0,91,0.00,,---,0.79,VWS V14.00,2013-04-27 04:58:00,
2013-04-26 23:59:00,52.5,50.0,30.16,SE,142,4.0,5.0,91,0.00,,---,0.79,VWS V14.00,2013-04-27 04:59:00,